<?xml version="1.0" encoding="UTF-8" standalone="no" ?>
<gpx xmlns="http://www.topografix.com/GPX/1/1" xmlns:xsi="http://www.w3.org/2001/XMLSchema-instance" xsi:schemaLocation="http://www.topografix.com/GPX/1/1 http://www.topografix.com/GPX/1/1/gpx.xsd" version="1.1" creator="VisuGPX - https://www.visugpx.com">
  <metadata>
    <name>Nyons-Tour-Montagne-Autuche</name>
    <desc><![CDATA[Nyons - Tour de la Montage d'Autuche]]></desc>
  </metadata>
  <trk>
    <name><![CDATA[Nyons 3 mai 2019]]></name>
    <cmt><![CDATA[3 mai 2019 à 10:23:38]]></cmt>
    <trkseg>
      <trkpt lat="44.36035" lon="5.13936">
        <ele>266</ele>
        <time>2019-05-03T08:23:39Z</time>
      </trkpt>
      <trkpt lat="44.35993" lon="5.13924">
        <ele>266</ele>
        <time>2019-05-03T08:24:02Z</time>
      </trkpt>
      <trkpt lat="44.35978" lon="5.13908">
        <ele>259</ele>
        <time>2019-05-03T08:24:03Z</time>
      </trkpt>
      <trkpt lat="44.35981" lon="5.13925">
        <ele>264</ele>
        <time>2019-05-03T08:24:09Z</time>
      </trkpt>
      <trkpt lat="44.35983" lon="5.13956">
        <ele>281</ele>
        <time>2019-05-03T08:24:19Z</time>
      </trkpt>
      <trkpt lat="44.35983" lon="5.13963">
        <ele>280</ele>
        <time>2019-05-03T08:24:21Z</time>
      </trkpt>
      <trkpt lat="44.35985" lon="5.1397">
        <ele>278</ele>
        <time>2019-05-03T08:24:23Z</time>
      </trkpt>
      <trkpt lat="44.35988" lon="5.13974">
        <ele>275</ele>
        <time>2019-05-03T08:24:26Z</time>
      </trkpt>
      <trkpt lat="44.35994" lon="5.13974">
        <ele>276</ele>
        <time>2019-05-03T08:24:30Z</time>
      </trkpt>
      <trkpt lat="44.35997" lon="5.13979">
        <ele>273</ele>
        <time>2019-05-03T08:24:34Z</time>
      </trkpt>
      <trkpt lat="44.36" lon="5.13985">
        <ele>275</ele>
        <time>2019-05-03T08:24:37Z</time>
      </trkpt>
      <trkpt lat="44.36013" lon="5.13979">
        <ele>270</ele>
        <time>2019-05-03T08:25:23Z</time>
      </trkpt>
      <trkpt lat="44.36023" lon="5.13984">
        <ele>270</ele>
        <time>2019-05-03T08:25:36Z</time>
      </trkpt>
      <trkpt lat="44.36018" lon="5.13996">
        <ele>272</ele>
        <time>2019-05-03T08:25:41Z</time>
      </trkpt>
      <trkpt lat="44.36008" lon="5.13992">
        <ele>274</ele>
        <time>2019-05-03T08:26:00Z</time>
      </trkpt>
      <trkpt lat="44.35999" lon="5.14">
        <ele>274</ele>
        <time>2019-05-03T08:26:05Z</time>
      </trkpt>
      <trkpt lat="44.3598" lon="5.14008">
        <ele>275</ele>
        <time>2019-05-03T08:26:11Z</time>
      </trkpt>
      <trkpt lat="44.3597" lon="5.14014">
        <ele>275</ele>
        <time>2019-05-03T08:26:14Z</time>
      </trkpt>
      <trkpt lat="44.35953" lon="5.14023">
        <ele>274</ele>
        <time>2019-05-03T08:26:18Z</time>
      </trkpt>
      <trkpt lat="44.35916" lon="5.14041">
        <ele>267</ele>
        <time>2019-05-03T08:26:26Z</time>
      </trkpt>
      <trkpt lat="44.35896" lon="5.14051">
        <ele>267</ele>
        <time>2019-05-03T08:26:31Z</time>
      </trkpt>
      <trkpt lat="44.35887" lon="5.14059">
        <ele>268</ele>
        <time>2019-05-03T08:26:34Z</time>
      </trkpt>
      <trkpt lat="44.35876" lon="5.14067">
        <ele>270</ele>
        <time>2019-05-03T08:26:37Z</time>
      </trkpt>
      <trkpt lat="44.3587" lon="5.14077">
        <ele>272</ele>
        <time>2019-05-03T08:26:40Z</time>
      </trkpt>
      <trkpt lat="44.35846" lon="5.1411">
        <ele>269</ele>
        <time>2019-05-03T08:26:50Z</time>
      </trkpt>
      <trkpt lat="44.35821" lon="5.14144">
        <ele>271</ele>
        <time>2019-05-03T08:26:59Z</time>
      </trkpt>
      <trkpt lat="44.35812" lon="5.14155">
        <ele>273</ele>
        <time>2019-05-03T08:27:03Z</time>
      </trkpt>
      <trkpt lat="44.35804" lon="5.14166">
        <ele>272</ele>
        <time>2019-05-03T08:27:06Z</time>
      </trkpt>
      <trkpt lat="44.35797" lon="5.14177">
        <ele>273</ele>
        <time>2019-05-03T08:27:10Z</time>
      </trkpt>
      <trkpt lat="44.35788" lon="5.14183">
        <ele>270</ele>
        <time>2019-05-03T08:27:14Z</time>
      </trkpt>
      <trkpt lat="44.35778" lon="5.1418">
        <ele>269</ele>
        <time>2019-05-03T08:27:18Z</time>
      </trkpt>
      <trkpt lat="44.35769" lon="5.14195">
        <ele>270</ele>
        <time>2019-05-03T08:27:22Z</time>
      </trkpt>
      <trkpt lat="44.3577" lon="5.14208">
        <ele>270</ele>
        <time>2019-05-03T08:27:24Z</time>
      </trkpt>
      <trkpt lat="44.35776" lon="5.14218">
        <ele>270</ele>
        <time>2019-05-03T08:27:26Z</time>
      </trkpt>
      <trkpt lat="44.35801" lon="5.14226">
        <ele>271</ele>
        <time>2019-05-03T08:27:31Z</time>
      </trkpt>
      <trkpt lat="44.35817" lon="5.14237">
        <ele>273</ele>
        <time>2019-05-03T08:27:36Z</time>
      </trkpt>
      <trkpt lat="44.35827" lon="5.14248">
        <ele>272</ele>
        <time>2019-05-03T08:27:40Z</time>
      </trkpt>
      <trkpt lat="44.35837" lon="5.14259">
        <ele>275</ele>
        <time>2019-05-03T08:27:44Z</time>
      </trkpt>
      <trkpt lat="44.35847" lon="5.14268">
        <ele>276</ele>
        <time>2019-05-03T08:27:47Z</time>
      </trkpt>
      <trkpt lat="44.35856" lon="5.14276">
        <ele>276</ele>
        <time>2019-05-03T08:27:50Z</time>
      </trkpt>
      <trkpt lat="44.35865" lon="5.14284">
        <ele>278</ele>
        <time>2019-05-03T08:27:53Z</time>
      </trkpt>
      <trkpt lat="44.35873" lon="5.14294">
        <ele>275</ele>
        <time>2019-05-03T08:27:57Z</time>
      </trkpt>
      <trkpt lat="44.35878" lon="5.14306">
        <ele>274</ele>
        <time>2019-05-03T08:28:02Z</time>
      </trkpt>
      <trkpt lat="44.35883" lon="5.14318">
        <ele>275</ele>
        <time>2019-05-03T08:28:07Z</time>
      </trkpt>
      <trkpt lat="44.35917" lon="5.14359">
        <ele>281</ele>
        <time>2019-05-03T08:28:38Z</time>
      </trkpt>
      <trkpt lat="44.35922" lon="5.14426">
        <ele>280</ele>
        <time>2019-05-03T08:28:48Z</time>
      </trkpt>
      <trkpt lat="44.35923" lon="5.14434">
        <ele>278</ele>
        <time>2019-05-03T08:28:50Z</time>
      </trkpt>
      <trkpt lat="44.35924" lon="5.1445">
        <ele>274</ele>
        <time>2019-05-03T08:28:53Z</time>
      </trkpt>
      <trkpt lat="44.35925" lon="5.14465">
        <ele>274</ele>
        <time>2019-05-03T08:28:56Z</time>
      </trkpt>
      <trkpt lat="44.35922" lon="5.14489">
        <ele>271</ele>
        <time>2019-05-03T08:28:59Z</time>
      </trkpt>
      <trkpt lat="44.35918" lon="5.14505">
        <ele>272</ele>
        <time>2019-05-03T08:29:01Z</time>
      </trkpt>
      <trkpt lat="44.35917" lon="5.14518">
        <ele>271</ele>
        <time>2019-05-03T08:29:03Z</time>
      </trkpt>
      <trkpt lat="44.35914" lon="5.14535">
        <ele>270</ele>
        <time>2019-05-03T08:29:05Z</time>
      </trkpt>
      <trkpt lat="44.35915" lon="5.14548">
        <ele>272</ele>
        <time>2019-05-03T08:29:07Z</time>
      </trkpt>
      <trkpt lat="44.35915" lon="5.14563">
        <ele>271</ele>
        <time>2019-05-03T08:29:09Z</time>
      </trkpt>
      <trkpt lat="44.35914" lon="5.14578">
        <ele>272</ele>
        <time>2019-05-03T08:29:11Z</time>
      </trkpt>
      <trkpt lat="44.3591" lon="5.1459">
        <ele>275</ele>
        <time>2019-05-03T08:29:14Z</time>
      </trkpt>
      <trkpt lat="44.35898" lon="5.14601">
        <ele>275</ele>
        <time>2019-05-03T08:29:18Z</time>
      </trkpt>
      <trkpt lat="44.35891" lon="5.14592">
        <ele>276</ele>
        <time>2019-05-03T08:29:26Z</time>
      </trkpt>
      <trkpt lat="44.35882" lon="5.14588">
        <ele>278</ele>
        <time>2019-05-03T08:29:43Z</time>
      </trkpt>
      <trkpt lat="44.35873" lon="5.14606">
        <ele>277</ele>
        <time>2019-05-03T08:29:55Z</time>
      </trkpt>
      <trkpt lat="44.3587" lon="5.1462">
        <ele>278</ele>
        <time>2019-05-03T08:30:01Z</time>
      </trkpt>
      <trkpt lat="44.35871" lon="5.14633">
        <ele>278</ele>
        <time>2019-05-03T08:30:07Z</time>
      </trkpt>
      <trkpt lat="44.35876" lon="5.14645">
        <ele>276</ele>
        <time>2019-05-03T08:30:14Z</time>
      </trkpt>
      <trkpt lat="44.35885" lon="5.14652">
        <ele>278</ele>
        <time>2019-05-03T08:30:21Z</time>
      </trkpt>
      <trkpt lat="44.35879" lon="5.14666">
        <ele>281</ele>
        <time>2019-05-03T08:30:28Z</time>
      </trkpt>
      <trkpt lat="44.35823" lon="5.14647">
        <ele>298</ele>
        <time>2019-05-03T08:31:06Z</time>
      </trkpt>
      <trkpt lat="44.35805" lon="5.14635">
        <ele>305</ele>
        <time>2019-05-03T08:31:24Z</time>
      </trkpt>
      <trkpt lat="44.35786" lon="5.1463">
        <ele>310</ele>
        <time>2019-05-03T08:31:39Z</time>
      </trkpt>
      <trkpt lat="44.35773" lon="5.1461">
        <ele>317</ele>
        <time>2019-05-03T08:31:52Z</time>
      </trkpt>
      <trkpt lat="44.35768" lon="5.14596">
        <ele>321</ele>
        <time>2019-05-03T08:31:58Z</time>
      </trkpt>
      <trkpt lat="44.35766" lon="5.14583">
        <ele>321</ele>
        <time>2019-05-03T08:32:03Z</time>
      </trkpt>
      <trkpt lat="44.35765" lon="5.1457">
        <ele>324</ele>
        <time>2019-05-03T08:32:08Z</time>
      </trkpt>
      <trkpt lat="44.35763" lon="5.14543">
        <ele>327</ele>
        <time>2019-05-03T08:32:19Z</time>
      </trkpt>
      <trkpt lat="44.35766" lon="5.14531">
        <ele>327</ele>
        <time>2019-05-03T08:32:26Z</time>
      </trkpt>
      <trkpt lat="44.35774" lon="5.14521">
        <ele>328</ele>
        <time>2019-05-03T08:32:33Z</time>
      </trkpt>
      <trkpt lat="44.35782" lon="5.14513">
        <ele>325</ele>
        <time>2019-05-03T08:32:40Z</time>
      </trkpt>
      <trkpt lat="44.35788" lon="5.14504">
        <ele>324</ele>
        <time>2019-05-03T08:32:47Z</time>
      </trkpt>
      <trkpt lat="44.35803" lon="5.14486">
        <ele>327</ele>
        <time>2019-05-03T08:32:59Z</time>
      </trkpt>
      <trkpt lat="44.35811" lon="5.14481">
        <ele>327</ele>
        <time>2019-05-03T08:33:05Z</time>
      </trkpt>
      <trkpt lat="44.3582" lon="5.14479">
        <ele>326</ele>
        <time>2019-05-03T08:33:11Z</time>
      </trkpt>
      <trkpt lat="44.35829" lon="5.14477">
        <ele>323</ele>
        <time>2019-05-03T08:33:18Z</time>
      </trkpt>
      <trkpt lat="44.35839" lon="5.14473">
        <ele>327</ele>
        <time>2019-05-03T08:33:26Z</time>
      </trkpt>
      <trkpt lat="44.35834" lon="5.14461">
        <ele>327</ele>
        <time>2019-05-03T08:33:33Z</time>
      </trkpt>
      <trkpt lat="44.35825" lon="5.14438">
        <ele>333</ele>
        <time>2019-05-03T08:33:46Z</time>
      </trkpt>
      <trkpt lat="44.35822" lon="5.1441">
        <ele>332</ele>
        <time>2019-05-03T08:33:59Z</time>
      </trkpt>
      <trkpt lat="44.35819" lon="5.14397">
        <ele>334</ele>
        <time>2019-05-03T08:34:05Z</time>
      </trkpt>
      <trkpt lat="44.35816" lon="5.14385">
        <ele>333</ele>
        <time>2019-05-03T08:34:12Z</time>
      </trkpt>
      <trkpt lat="44.35813" lon="5.14372">
        <ele>338</ele>
        <time>2019-05-03T08:34:20Z</time>
      </trkpt>
      <trkpt lat="44.35798" lon="5.14355">
        <ele>333</ele>
        <time>2019-05-03T08:34:33Z</time>
      </trkpt>
      <trkpt lat="44.3579" lon="5.14348">
        <ele>333</ele>
        <time>2019-05-03T08:34:39Z</time>
      </trkpt>
      <trkpt lat="44.35783" lon="5.1434">
        <ele>334</ele>
        <time>2019-05-03T08:34:45Z</time>
      </trkpt>
      <trkpt lat="44.35733" lon="5.14306">
        <ele>358</ele>
        <time>2019-05-03T08:35:17Z</time>
      </trkpt>
      <trkpt lat="44.35723" lon="5.14304">
        <ele>360</ele>
        <time>2019-05-03T08:35:22Z</time>
      </trkpt>
      <trkpt lat="44.35713" lon="5.14307">
        <ele>355</ele>
        <time>2019-05-03T08:35:28Z</time>
      </trkpt>
      <trkpt lat="44.35695" lon="5.14308">
        <ele>355</ele>
        <time>2019-05-03T08:35:38Z</time>
      </trkpt>
      <trkpt lat="44.35686" lon="5.14306">
        <ele>349</ele>
        <time>2019-05-03T08:35:42Z</time>
      </trkpt>
      <trkpt lat="44.35676" lon="5.14304">
        <ele>348</ele>
        <time>2019-05-03T08:35:47Z</time>
      </trkpt>
      <trkpt lat="44.35641" lon="5.14301">
        <ele>353</ele>
        <time>2019-05-03T08:36:04Z</time>
      </trkpt>
      <trkpt lat="44.35609" lon="5.14303">
        <ele>349</ele>
        <time>2019-05-03T08:36:18Z</time>
      </trkpt>
      <trkpt lat="44.356" lon="5.14306">
        <ele>350</ele>
        <time>2019-05-03T08:36:21Z</time>
      </trkpt>
      <trkpt lat="44.35589" lon="5.14312">
        <ele>348</ele>
        <time>2019-05-03T08:36:25Z</time>
      </trkpt>
      <trkpt lat="44.35581" lon="5.14319">
        <ele>351</ele>
        <time>2019-05-03T08:36:28Z</time>
      </trkpt>
      <trkpt lat="44.35574" lon="5.14331">
        <ele>353</ele>
        <time>2019-05-03T08:36:32Z</time>
      </trkpt>
      <trkpt lat="44.35572" lon="5.14359">
        <ele>360</ele>
        <time>2019-05-03T08:36:41Z</time>
      </trkpt>
      <trkpt lat="44.35571" lon="5.14373">
        <ele>359</ele>
        <time>2019-05-03T08:36:46Z</time>
      </trkpt>
      <trkpt lat="44.3557" lon="5.14386">
        <ele>362</ele>
        <time>2019-05-03T08:36:51Z</time>
      </trkpt>
      <trkpt lat="44.35565" lon="5.14398">
        <ele>363</ele>
        <time>2019-05-03T08:36:56Z</time>
      </trkpt>
      <trkpt lat="44.35559" lon="5.14412">
        <ele>362</ele>
        <time>2019-05-03T08:37:02Z</time>
      </trkpt>
      <trkpt lat="44.35553" lon="5.14426">
        <ele>365</ele>
        <time>2019-05-03T08:37:08Z</time>
      </trkpt>
      <trkpt lat="44.35545" lon="5.14436">
        <ele>366</ele>
        <time>2019-05-03T08:37:13Z</time>
      </trkpt>
      <trkpt lat="44.35537" lon="5.14444">
        <ele>365</ele>
        <time>2019-05-03T08:37:18Z</time>
      </trkpt>
      <trkpt lat="44.35528" lon="5.14453">
        <ele>364</ele>
        <time>2019-05-03T08:37:23Z</time>
      </trkpt>
      <trkpt lat="44.35522" lon="5.14462">
        <ele>366</ele>
        <time>2019-05-03T08:37:28Z</time>
      </trkpt>
      <trkpt lat="44.35505" lon="5.14473">
        <ele>370</ele>
        <time>2019-05-03T08:37:39Z</time>
      </trkpt>
      <trkpt lat="44.35496" lon="5.14471">
        <ele>370</ele>
        <time>2019-05-03T08:37:45Z</time>
      </trkpt>
      <trkpt lat="44.35478" lon="5.14462">
        <ele>377</ele>
        <time>2019-05-03T08:37:57Z</time>
      </trkpt>
      <trkpt lat="44.35462" lon="5.14458">
        <ele>377</ele>
        <time>2019-05-03T08:38:06Z</time>
      </trkpt>
      <trkpt lat="44.35451" lon="5.14452">
        <ele>377</ele>
        <time>2019-05-03T08:38:12Z</time>
      </trkpt>
      <trkpt lat="44.35433" lon="5.14446">
        <ele>373</ele>
        <time>2019-05-03T08:38:20Z</time>
      </trkpt>
      <trkpt lat="44.35423" lon="5.14441">
        <ele>374</ele>
        <time>2019-05-03T08:38:24Z</time>
      </trkpt>
      <trkpt lat="44.35412" lon="5.14441">
        <ele>373</ele>
        <time>2019-05-03T08:38:31Z</time>
      </trkpt>
      <trkpt lat="44.35404" lon="5.14446">
        <ele>376</ele>
        <time>2019-05-03T08:38:37Z</time>
      </trkpt>
      <trkpt lat="44.35395" lon="5.14443">
        <ele>372</ele>
        <time>2019-05-03T08:39:11Z</time>
      </trkpt>
      <trkpt lat="44.35396" lon="5.14458">
        <ele>376</ele>
        <time>2019-05-03T08:42:01Z</time>
      </trkpt>
      <trkpt lat="44.3539" lon="5.14483">
        <ele>380</ele>
        <time>2019-05-03T08:42:11Z</time>
      </trkpt>
      <trkpt lat="44.35387" lon="5.14498">
        <ele>380</ele>
        <time>2019-05-03T08:42:17Z</time>
      </trkpt>
      <trkpt lat="44.35384" lon="5.1451">
        <ele>378</ele>
        <time>2019-05-03T08:42:22Z</time>
      </trkpt>
      <trkpt lat="44.35379" lon="5.14524">
        <ele>378</ele>
        <time>2019-05-03T08:42:28Z</time>
      </trkpt>
      <trkpt lat="44.3537" lon="5.1453">
        <ele>378</ele>
        <time>2019-05-03T08:42:34Z</time>
      </trkpt>
      <trkpt lat="44.3536" lon="5.14528">
        <ele>379</ele>
        <time>2019-05-03T08:42:40Z</time>
      </trkpt>
      <trkpt lat="44.35352" lon="5.14523">
        <ele>379</ele>
        <time>2019-05-03T08:42:45Z</time>
      </trkpt>
      <trkpt lat="44.35344" lon="5.14512">
        <ele>380</ele>
        <time>2019-05-03T08:42:51Z</time>
      </trkpt>
      <trkpt lat="44.35337" lon="5.14503">
        <ele>382</ele>
        <time>2019-05-03T08:42:55Z</time>
      </trkpt>
      <trkpt lat="44.35292" lon="5.14478">
        <ele>392</ele>
        <time>2019-05-03T08:43:18Z</time>
      </trkpt>
      <trkpt lat="44.35273" lon="5.14469">
        <ele>393</ele>
        <time>2019-05-03T08:43:26Z</time>
      </trkpt>
      <trkpt lat="44.35265" lon="5.14464">
        <ele>394</ele>
        <time>2019-05-03T08:43:30Z</time>
      </trkpt>
      <trkpt lat="44.35245" lon="5.14457">
        <ele>395</ele>
        <time>2019-05-03T08:43:39Z</time>
      </trkpt>
      <trkpt lat="44.35235" lon="5.14456">
        <ele>395</ele>
        <time>2019-05-03T08:43:43Z</time>
      </trkpt>
      <trkpt lat="44.35216" lon="5.14454">
        <ele>397</ele>
        <time>2019-05-03T08:43:52Z</time>
      </trkpt>
      <trkpt lat="44.35207" lon="5.14451">
        <ele>397</ele>
        <time>2019-05-03T08:43:56Z</time>
      </trkpt>
      <trkpt lat="44.35187" lon="5.14446">
        <ele>397</ele>
        <time>2019-05-03T08:44:06Z</time>
      </trkpt>
      <trkpt lat="44.35168" lon="5.14439">
        <ele>396</ele>
        <time>2019-05-03T08:44:14Z</time>
      </trkpt>
      <trkpt lat="44.35157" lon="5.14434">
        <ele>396</ele>
        <time>2019-05-03T08:44:18Z</time>
      </trkpt>
      <trkpt lat="44.35147" lon="5.1443">
        <ele>394</ele>
        <time>2019-05-03T08:44:22Z</time>
      </trkpt>
      <trkpt lat="44.3514" lon="5.14422">
        <ele>396</ele>
        <time>2019-05-03T08:44:26Z</time>
      </trkpt>
      <trkpt lat="44.35131" lon="5.14413">
        <ele>395</ele>
        <time>2019-05-03T08:44:30Z</time>
      </trkpt>
      <trkpt lat="44.35098" lon="5.14381">
        <ele>396</ele>
        <time>2019-05-03T08:44:48Z</time>
      </trkpt>
      <trkpt lat="44.35091" lon="5.14374">
        <ele>396</ele>
        <time>2019-05-03T08:44:52Z</time>
      </trkpt>
      <trkpt lat="44.35083" lon="5.14365">
        <ele>396</ele>
        <time>2019-05-03T08:44:56Z</time>
      </trkpt>
      <trkpt lat="44.35069" lon="5.14348">
        <ele>394</ele>
        <time>2019-05-03T08:45:04Z</time>
      </trkpt>
      <trkpt lat="44.35053" lon="5.14333">
        <ele>395</ele>
        <time>2019-05-03T08:45:14Z</time>
      </trkpt>
      <trkpt lat="44.35035" lon="5.14297">
        <ele>399</ele>
        <time>2019-05-03T08:45:26Z</time>
      </trkpt>
      <trkpt lat="44.35031" lon="5.14282">
        <ele>398</ele>
        <time>2019-05-03T08:45:30Z</time>
      </trkpt>
      <trkpt lat="44.35027" lon="5.1427">
        <ele>399</ele>
        <time>2019-05-03T08:45:34Z</time>
      </trkpt>
      <trkpt lat="44.35004" lon="5.14243">
        <ele>405</ele>
        <time>2019-05-03T08:45:48Z</time>
      </trkpt>
      <trkpt lat="44.3497" lon="5.14212">
        <ele>410</ele>
        <time>2019-05-03T08:46:06Z</time>
      </trkpt>
      <trkpt lat="44.34952" lon="5.142">
        <ele>410</ele>
        <time>2019-05-03T08:46:15Z</time>
      </trkpt>
      <trkpt lat="44.34889" lon="5.14147">
        <ele>417</ele>
        <time>2019-05-03T08:46:46Z</time>
      </trkpt>
      <trkpt lat="44.34881" lon="5.14139">
        <ele>418</ele>
        <time>2019-05-03T08:46:50Z</time>
      </trkpt>
      <trkpt lat="44.34873" lon="5.1413">
        <ele>417</ele>
        <time>2019-05-03T08:46:55Z</time>
      </trkpt>
      <trkpt lat="44.34862" lon="5.14122">
        <ele>418</ele>
        <time>2019-05-03T08:47:00Z</time>
      </trkpt>
      <trkpt lat="44.34842" lon="5.14118">
        <ele>418</ele>
        <time>2019-05-03T08:47:06Z</time>
      </trkpt>
      <trkpt lat="44.34831" lon="5.14118">
        <ele>420</ele>
        <time>2019-05-03T08:47:10Z</time>
      </trkpt>
      <trkpt lat="44.3482" lon="5.14124">
        <ele>421</ele>
        <time>2019-05-03T08:47:14Z</time>
      </trkpt>
      <trkpt lat="44.34812" lon="5.1413">
        <ele>421</ele>
        <time>2019-05-03T08:47:17Z</time>
      </trkpt>
      <trkpt lat="44.34771" lon="5.14179">
        <ele>427</ele>
        <time>2019-05-03T08:47:37Z</time>
      </trkpt>
      <trkpt lat="44.34763" lon="5.14189">
        <ele>427</ele>
        <time>2019-05-03T08:47:41Z</time>
      </trkpt>
      <trkpt lat="44.34747" lon="5.14206">
        <ele>427</ele>
        <time>2019-05-03T08:47:49Z</time>
      </trkpt>
      <trkpt lat="44.34724" lon="5.1423">
        <ele>427</ele>
        <time>2019-05-03T08:48:01Z</time>
      </trkpt>
      <trkpt lat="44.34707" lon="5.14245">
        <ele>429</ele>
        <time>2019-05-03T08:48:09Z</time>
      </trkpt>
      <trkpt lat="44.34699" lon="5.14252">
        <ele>429</ele>
        <time>2019-05-03T08:48:13Z</time>
      </trkpt>
      <trkpt lat="44.34683" lon="5.14269">
        <ele>431</ele>
        <time>2019-05-03T08:48:22Z</time>
      </trkpt>
      <trkpt lat="44.34675" lon="5.14277">
        <ele>431</ele>
        <time>2019-05-03T08:48:26Z</time>
      </trkpt>
      <trkpt lat="44.34668" lon="5.14284">
        <ele>431</ele>
        <time>2019-05-03T08:48:30Z</time>
      </trkpt>
      <trkpt lat="44.34659" lon="5.14293">
        <ele>431</ele>
        <time>2019-05-03T08:48:35Z</time>
      </trkpt>
      <trkpt lat="44.34644" lon="5.14312">
        <ele>434</ele>
        <time>2019-05-03T08:48:45Z</time>
      </trkpt>
      <trkpt lat="44.34635" lon="5.14321">
        <ele>434</ele>
        <time>2019-05-03T08:48:50Z</time>
      </trkpt>
      <trkpt lat="44.3462" lon="5.14338">
        <ele>436</ele>
        <time>2019-05-03T08:49:00Z</time>
      </trkpt>
      <trkpt lat="44.34611" lon="5.14344">
        <ele>437</ele>
        <time>2019-05-03T08:49:05Z</time>
      </trkpt>
      <trkpt lat="44.34601" lon="5.14351">
        <ele>438</ele>
        <time>2019-05-03T08:49:10Z</time>
      </trkpt>
      <trkpt lat="44.34575" lon="5.14364">
        <ele>440</ele>
        <time>2019-05-03T08:49:25Z</time>
      </trkpt>
      <trkpt lat="44.34566" lon="5.14368">
        <ele>441</ele>
        <time>2019-05-03T08:49:30Z</time>
      </trkpt>
      <trkpt lat="44.34554" lon="5.14371">
        <ele>443</ele>
        <time>2019-05-03T08:49:38Z</time>
      </trkpt>
      <trkpt lat="44.34543" lon="5.14376">
        <ele>442</ele>
        <time>2019-05-03T08:49:44Z</time>
      </trkpt>
      <trkpt lat="44.3452" lon="5.14387">
        <ele>442</ele>
        <time>2019-05-03T08:49:59Z</time>
      </trkpt>
      <trkpt lat="44.3451" lon="5.14391">
        <ele>443</ele>
        <time>2019-05-03T08:50:06Z</time>
      </trkpt>
      <trkpt lat="44.34503" lon="5.14398">
        <ele>444</ele>
        <time>2019-05-03T08:50:12Z</time>
      </trkpt>
      <trkpt lat="44.34494" lon="5.14403">
        <ele>445</ele>
        <time>2019-05-03T08:50:18Z</time>
      </trkpt>
      <trkpt lat="44.34485" lon="5.14411">
        <ele>445</ele>
        <time>2019-05-03T08:50:24Z</time>
      </trkpt>
      <trkpt lat="44.34469" lon="5.14415">
        <ele>446</ele>
        <time>2019-05-03T08:50:33Z</time>
      </trkpt>
      <trkpt lat="44.3446" lon="5.14419">
        <ele>446</ele>
        <time>2019-05-03T08:50:38Z</time>
      </trkpt>
      <trkpt lat="44.3445" lon="5.14418">
        <ele>446</ele>
        <time>2019-05-03T08:50:44Z</time>
      </trkpt>
      <trkpt lat="44.3444" lon="5.14418">
        <ele>445</ele>
        <time>2019-05-03T08:50:50Z</time>
      </trkpt>
      <trkpt lat="44.3443" lon="5.14412">
        <ele>445</ele>
        <time>2019-05-03T08:50:57Z</time>
      </trkpt>
      <trkpt lat="44.34409" lon="5.14413">
        <ele>446</ele>
        <time>2019-05-03T08:51:08Z</time>
      </trkpt>
      <trkpt lat="44.34327" lon="5.14428">
        <ele>461</ele>
        <time>2019-05-03T08:51:44Z</time>
      </trkpt>
      <trkpt lat="44.34318" lon="5.14428">
        <ele>463</ele>
        <time>2019-05-03T08:51:48Z</time>
      </trkpt>
      <trkpt lat="44.34309" lon="5.14432">
        <ele>465</ele>
        <time>2019-05-03T08:51:52Z</time>
      </trkpt>
      <trkpt lat="44.34299" lon="5.14441">
        <ele>466</ele>
        <time>2019-05-03T08:51:57Z</time>
      </trkpt>
      <trkpt lat="44.34248" lon="5.14511">
        <ele>474</ele>
        <time>2019-05-03T08:52:31Z</time>
      </trkpt>
      <trkpt lat="44.34243" lon="5.14522">
        <ele>474</ele>
        <time>2019-05-03T08:52:36Z</time>
      </trkpt>
      <trkpt lat="44.34241" lon="5.14538">
        <ele>475</ele>
        <time>2019-05-03T08:52:43Z</time>
      </trkpt>
      <trkpt lat="44.34251" lon="5.14546">
        <ele>474</ele>
        <time>2019-05-03T08:52:50Z</time>
      </trkpt>
      <trkpt lat="44.34261" lon="5.14553">
        <ele>475</ele>
        <time>2019-05-03T08:52:56Z</time>
      </trkpt>
      <trkpt lat="44.34272" lon="5.14563">
        <ele>475</ele>
        <time>2019-05-03T08:53:03Z</time>
      </trkpt>
      <trkpt lat="44.34269" lon="5.14579">
        <ele>478</ele>
        <time>2019-05-03T08:53:09Z</time>
      </trkpt>
      <trkpt lat="44.34255" lon="5.146">
        <ele>481</ele>
        <time>2019-05-03T08:53:19Z</time>
      </trkpt>
      <trkpt lat="44.34254" lon="5.14616">
        <ele>482</ele>
        <time>2019-05-03T08:53:25Z</time>
      </trkpt>
      <trkpt lat="44.34267" lon="5.14628">
        <ele>484</ele>
        <time>2019-05-03T08:53:32Z</time>
      </trkpt>
      <trkpt lat="44.3428" lon="5.14631">
        <ele>484</ele>
        <time>2019-05-03T08:53:39Z</time>
      </trkpt>
      <trkpt lat="44.34297" lon="5.14638">
        <ele>485</ele>
        <time>2019-05-03T08:53:49Z</time>
      </trkpt>
      <trkpt lat="44.34304" lon="5.14646">
        <ele>486</ele>
        <time>2019-05-03T08:53:53Z</time>
      </trkpt>
      <trkpt lat="44.34316" lon="5.14664">
        <ele>486</ele>
        <time>2019-05-03T08:54:02Z</time>
      </trkpt>
      <trkpt lat="44.34321" lon="5.14676">
        <ele>487</ele>
        <time>2019-05-03T08:54:07Z</time>
      </trkpt>
      <trkpt lat="44.3434" lon="5.14702">
        <ele>489</ele>
        <time>2019-05-03T08:54:21Z</time>
      </trkpt>
      <trkpt lat="44.34343" lon="5.14717">
        <ele>491</ele>
        <time>2019-05-03T08:54:26Z</time>
      </trkpt>
      <trkpt lat="44.34344" lon="5.14733">
        <ele>492</ele>
        <time>2019-05-03T08:54:30Z</time>
      </trkpt>
      <trkpt lat="44.34359" lon="5.1475">
        <ele>491</ele>
        <time>2019-05-03T08:54:36Z</time>
      </trkpt>
      <trkpt lat="44.34368" lon="5.14759">
        <ele>492</ele>
        <time>2019-05-03T08:54:40Z</time>
      </trkpt>
      <trkpt lat="44.34376" lon="5.14769">
        <ele>494</ele>
        <time>2019-05-03T08:54:45Z</time>
      </trkpt>
      <trkpt lat="44.34393" lon="5.14803">
        <ele>499</ele>
        <time>2019-05-03T08:54:59Z</time>
      </trkpt>
      <trkpt lat="44.34401" lon="5.14813">
        <ele>500</ele>
        <time>2019-05-03T08:55:04Z</time>
      </trkpt>
      <trkpt lat="44.34407" lon="5.14823">
        <ele>501</ele>
        <time>2019-05-03T08:55:09Z</time>
      </trkpt>
      <trkpt lat="44.34418" lon="5.14843">
        <ele>504</ele>
        <time>2019-05-03T08:55:19Z</time>
      </trkpt>
      <trkpt lat="44.34426" lon="5.14852">
        <ele>504</ele>
        <time>2019-05-03T08:55:25Z</time>
      </trkpt>
      <trkpt lat="44.34452" lon="5.14886">
        <ele>508</ele>
        <time>2019-05-03T08:55:42Z</time>
      </trkpt>
      <trkpt lat="44.34472" lon="5.14905">
        <ele>509</ele>
        <time>2019-05-03T08:55:55Z</time>
      </trkpt>
      <trkpt lat="44.34481" lon="5.14914">
        <ele>508</ele>
        <time>2019-05-03T08:56:00Z</time>
      </trkpt>
      <trkpt lat="44.34508" lon="5.14934">
        <ele>511</ele>
        <time>2019-05-03T08:56:12Z</time>
      </trkpt>
      <trkpt lat="44.34518" lon="5.1494">
        <ele>512</ele>
        <time>2019-05-03T08:56:18Z</time>
      </trkpt>
      <trkpt lat="44.34531" lon="5.14947">
        <ele>513</ele>
        <time>2019-05-03T08:56:27Z</time>
      </trkpt>
      <trkpt lat="44.3454" lon="5.14955">
        <ele>513</ele>
        <time>2019-05-03T08:56:33Z</time>
      </trkpt>
      <trkpt lat="44.34548" lon="5.14962">
        <ele>515</ele>
        <time>2019-05-03T08:56:38Z</time>
      </trkpt>
      <trkpt lat="44.34568" lon="5.15039">
        <ele>525</ele>
        <time>2019-05-03T08:57:09Z</time>
      </trkpt>
      <trkpt lat="44.34569" lon="5.15052">
        <ele>525</ele>
        <time>2019-05-03T08:57:14Z</time>
      </trkpt>
      <trkpt lat="44.34566" lon="5.15064">
        <ele>526</ele>
        <time>2019-05-03T08:57:19Z</time>
      </trkpt>
      <trkpt lat="44.34558" lon="5.15085">
        <ele>529</ele>
        <time>2019-05-03T08:57:28Z</time>
      </trkpt>
      <trkpt lat="44.34554" lon="5.15104">
        <ele>532</ele>
        <time>2019-05-03T08:57:36Z</time>
      </trkpt>
      <trkpt lat="44.34546" lon="5.15114">
        <ele>532</ele>
        <time>2019-05-03T08:57:41Z</time>
      </trkpt>
      <trkpt lat="44.3454" lon="5.15125">
        <ele>533</ele>
        <time>2019-05-03T08:57:47Z</time>
      </trkpt>
      <trkpt lat="44.34533" lon="5.15136">
        <ele>533</ele>
        <time>2019-05-03T08:57:53Z</time>
      </trkpt>
      <trkpt lat="44.34532" lon="5.15149">
        <ele>532</ele>
        <time>2019-05-03T08:57:58Z</time>
      </trkpt>
      <trkpt lat="44.34534" lon="5.15164">
        <ele>533</ele>
        <time>2019-05-03T08:58:02Z</time>
      </trkpt>
      <trkpt lat="44.34539" lon="5.15176">
        <ele>533</ele>
        <time>2019-05-03T08:58:06Z</time>
      </trkpt>
      <trkpt lat="44.34548" lon="5.15189">
        <ele>534</ele>
        <time>2019-05-03T08:58:13Z</time>
      </trkpt>
      <trkpt lat="44.34559" lon="5.15211">
        <ele>534</ele>
        <time>2019-05-03T08:58:22Z</time>
      </trkpt>
      <trkpt lat="44.34572" lon="5.15239">
        <ele>535</ele>
        <time>2019-05-03T08:58:35Z</time>
      </trkpt>
      <trkpt lat="44.34587" lon="5.15268">
        <ele>540</ele>
        <time>2019-05-03T08:58:47Z</time>
      </trkpt>
      <trkpt lat="44.34589" lon="5.15287">
        <ele>541</ele>
        <time>2019-05-03T08:58:54Z</time>
      </trkpt>
      <trkpt lat="44.3459" lon="5.15302">
        <ele>543</ele>
        <time>2019-05-03T08:58:59Z</time>
      </trkpt>
      <trkpt lat="44.34598" lon="5.15323">
        <ele>545</ele>
        <time>2019-05-03T08:59:07Z</time>
      </trkpt>
      <trkpt lat="44.34615" lon="5.15346">
        <ele>549</ele>
        <time>2019-05-03T08:59:18Z</time>
      </trkpt>
      <trkpt lat="44.34619" lon="5.15369">
        <ele>552</ele>
        <time>2019-05-03T08:59:26Z</time>
      </trkpt>
      <trkpt lat="44.34627" lon="5.15385">
        <ele>553</ele>
        <time>2019-05-03T08:59:33Z</time>
      </trkpt>
      <trkpt lat="44.34635" lon="5.15392">
        <ele>554</ele>
        <time>2019-05-03T08:59:38Z</time>
      </trkpt>
      <trkpt lat="44.34676" lon="5.15445">
        <ele>559</ele>
        <time>2019-05-03T09:00:06Z</time>
      </trkpt>
      <trkpt lat="44.34689" lon="5.15458">
        <ele>562</ele>
        <time>2019-05-03T09:00:14Z</time>
      </trkpt>
      <trkpt lat="44.34696" lon="5.15467">
        <ele>562</ele>
        <time>2019-05-03T09:00:20Z</time>
      </trkpt>
      <trkpt lat="44.34704" lon="5.15473">
        <ele>564</ele>
        <time>2019-05-03T09:00:26Z</time>
      </trkpt>
      <trkpt lat="44.34711" lon="5.15483">
        <ele>565</ele>
        <time>2019-05-03T09:00:32Z</time>
      </trkpt>
      <trkpt lat="44.34722" lon="5.15489">
        <ele>565</ele>
        <time>2019-05-03T09:00:38Z</time>
      </trkpt>
      <trkpt lat="44.34745" lon="5.15515">
        <ele>570</ele>
        <time>2019-05-03T09:00:53Z</time>
      </trkpt>
      <trkpt lat="44.34765" lon="5.15549">
        <ele>572</ele>
        <time>2019-05-03T09:01:08Z</time>
      </trkpt>
      <trkpt lat="44.34777" lon="5.15578">
        <ele>577</ele>
        <time>2019-05-03T09:01:20Z</time>
      </trkpt>
      <trkpt lat="44.34774" lon="5.15592">
        <ele>578</ele>
        <time>2019-05-03T09:01:25Z</time>
      </trkpt>
      <trkpt lat="44.34763" lon="5.15614">
        <ele>580</ele>
        <time>2019-05-03T09:01:38Z</time>
      </trkpt>
      <trkpt lat="44.34754" lon="5.15619">
        <ele>581</ele>
        <time>2019-05-03T09:01:43Z</time>
      </trkpt>
      <trkpt lat="44.34734" lon="5.15637">
        <ele>582</ele>
        <time>2019-05-03T09:01:59Z</time>
      </trkpt>
      <trkpt lat="44.34726" lon="5.15643">
        <ele>583</ele>
        <time>2019-05-03T09:02:05Z</time>
      </trkpt>
      <trkpt lat="44.34718" lon="5.15651">
        <ele>583</ele>
        <time>2019-05-03T09:02:11Z</time>
      </trkpt>
      <trkpt lat="44.34693" lon="5.15675">
        <ele>587</ele>
        <time>2019-05-03T09:02:30Z</time>
      </trkpt>
      <trkpt lat="44.34677" lon="5.15689">
        <ele>588</ele>
        <time>2019-05-03T09:02:42Z</time>
      </trkpt>
      <trkpt lat="44.34669" lon="5.15696">
        <ele>590</ele>
        <time>2019-05-03T09:02:49Z</time>
      </trkpt>
      <trkpt lat="44.34622" lon="5.1574">
        <ele>597</ele>
        <time>2019-05-03T09:03:23Z</time>
      </trkpt>
      <trkpt lat="44.34614" lon="5.15748">
        <ele>598</ele>
        <time>2019-05-03T09:03:28Z</time>
      </trkpt>
      <trkpt lat="44.34603" lon="5.15762">
        <ele>599</ele>
        <time>2019-05-03T09:03:38Z</time>
      </trkpt>
      <trkpt lat="44.34596" lon="5.15772">
        <ele>602</ele>
        <time>2019-05-03T09:03:44Z</time>
      </trkpt>
      <trkpt lat="44.34588" lon="5.15778">
        <ele>605</ele>
        <time>2019-05-03T09:03:51Z</time>
      </trkpt>
      <trkpt lat="44.34579" lon="5.15792">
        <ele>607</ele>
        <time>2019-05-03T09:03:58Z</time>
      </trkpt>
      <trkpt lat="44.34527" lon="5.15845">
        <ele>620</ele>
        <time>2019-05-03T09:04:34Z</time>
      </trkpt>
      <trkpt lat="44.34517" lon="5.15849">
        <ele>622</ele>
        <time>2019-05-03T09:04:42Z</time>
      </trkpt>
      <trkpt lat="44.34509" lon="5.15861">
        <ele>623</ele>
        <time>2019-05-03T09:04:50Z</time>
      </trkpt>
      <trkpt lat="44.34515" lon="5.15872">
        <ele>624</ele>
        <time>2019-05-03T09:04:55Z</time>
      </trkpt>
      <trkpt lat="44.34526" lon="5.15877">
        <ele>624</ele>
        <time>2019-05-03T09:05:01Z</time>
      </trkpt>
      <trkpt lat="44.34534" lon="5.15883">
        <ele>624</ele>
        <time>2019-05-03T09:05:06Z</time>
      </trkpt>
      <trkpt lat="44.34578" lon="5.15935">
        <ele>630</ele>
        <time>2019-05-03T09:05:39Z</time>
      </trkpt>
      <trkpt lat="44.34608" lon="5.1597">
        <ele>635</ele>
        <time>2019-05-03T09:06:02Z</time>
      </trkpt>
      <trkpt lat="44.34616" lon="5.15977">
        <ele>634</ele>
        <time>2019-05-03T09:06:08Z</time>
      </trkpt>
      <trkpt lat="44.34642" lon="5.15996">
        <ele>638</ele>
        <time>2019-05-03T09:06:28Z</time>
      </trkpt>
      <trkpt lat="44.34667" lon="5.16016">
        <ele>639</ele>
        <time>2019-05-03T09:06:44Z</time>
      </trkpt>
      <trkpt lat="44.34676" lon="5.16022">
        <ele>640</ele>
        <time>2019-05-03T09:06:51Z</time>
      </trkpt>
      <trkpt lat="44.3469" lon="5.1604">
        <ele>642</ele>
        <time>2019-05-03T09:07:04Z</time>
      </trkpt>
      <trkpt lat="44.34694" lon="5.16054">
        <ele>646</ele>
        <time>2019-05-03T09:07:11Z</time>
      </trkpt>
      <trkpt lat="44.34695" lon="5.16108">
        <ele>653</ele>
        <time>2019-05-03T09:07:34Z</time>
      </trkpt>
      <trkpt lat="44.34708" lon="5.16129">
        <ele>657</ele>
        <time>2019-05-03T09:07:48Z</time>
      </trkpt>
      <trkpt lat="44.34709" lon="5.16143">
        <ele>657</ele>
        <time>2019-05-03T09:07:56Z</time>
      </trkpt>
      <trkpt lat="44.34707" lon="5.16157">
        <ele>658</ele>
        <time>2019-05-03T09:08:02Z</time>
      </trkpt>
      <trkpt lat="44.34703" lon="5.1617">
        <ele>659</ele>
        <time>2019-05-03T09:08:08Z</time>
      </trkpt>
      <trkpt lat="44.34698" lon="5.16182">
        <ele>659</ele>
        <time>2019-05-03T09:08:13Z</time>
      </trkpt>
      <trkpt lat="44.34697" lon="5.16197">
        <ele>659</ele>
        <time>2019-05-03T09:08:19Z</time>
      </trkpt>
      <trkpt lat="44.34714" lon="5.16207">
        <ele>659</ele>
        <time>2019-05-03T09:08:29Z</time>
      </trkpt>
      <trkpt lat="44.34751" lon="5.16211">
        <ele>660</ele>
        <time>2019-05-03T09:08:46Z</time>
      </trkpt>
      <trkpt lat="44.34775" lon="5.16206">
        <ele>661</ele>
        <time>2019-05-03T09:08:59Z</time>
      </trkpt>
      <trkpt lat="44.34785" lon="5.16202">
        <ele>662</ele>
        <time>2019-05-03T09:09:05Z</time>
      </trkpt>
      <trkpt lat="44.34795" lon="5.16205">
        <ele>663</ele>
        <time>2019-05-03T09:09:10Z</time>
      </trkpt>
      <trkpt lat="44.34804" lon="5.16198">
        <ele>663</ele>
        <time>2019-05-03T09:09:16Z</time>
      </trkpt>
      <trkpt lat="44.34814" lon="5.16191">
        <ele>664</ele>
        <time>2019-05-03T09:09:23Z</time>
      </trkpt>
      <trkpt lat="44.34818" lon="5.16205">
        <ele>666</ele>
        <time>2019-05-03T09:09:29Z</time>
      </trkpt>
      <trkpt lat="44.34812" lon="5.16216">
        <ele>668</ele>
        <time>2019-05-03T09:09:33Z</time>
      </trkpt>
      <trkpt lat="44.34802" lon="5.16225">
        <ele>673</ele>
        <time>2019-05-03T09:09:39Z</time>
      </trkpt>
      <trkpt lat="44.34794" lon="5.16235">
        <ele>674</ele>
        <time>2019-05-03T09:09:45Z</time>
      </trkpt>
      <trkpt lat="44.34787" lon="5.16245">
        <ele>676</ele>
        <time>2019-05-03T09:09:52Z</time>
      </trkpt>
      <trkpt lat="44.34737" lon="5.16285">
        <ele>684</ele>
        <time>2019-05-03T09:10:25Z</time>
      </trkpt>
      <trkpt lat="44.34727" lon="5.16295">
        <ele>685</ele>
        <time>2019-05-03T09:10:31Z</time>
      </trkpt>
      <trkpt lat="44.34719" lon="5.16302">
        <ele>686</ele>
        <time>2019-05-03T09:10:36Z</time>
      </trkpt>
      <trkpt lat="44.34713" lon="5.16314">
        <ele>685</ele>
        <time>2019-05-03T09:10:42Z</time>
      </trkpt>
      <trkpt lat="44.34706" lon="5.16324">
        <ele>686</ele>
        <time>2019-05-03T09:10:47Z</time>
      </trkpt>
      <trkpt lat="44.34695" lon="5.1633">
        <ele>687</ele>
        <time>2019-05-03T09:10:54Z</time>
      </trkpt>
      <trkpt lat="44.34686" lon="5.16338">
        <ele>688</ele>
        <time>2019-05-03T09:11:00Z</time>
      </trkpt>
      <trkpt lat="44.34676" lon="5.16341">
        <ele>690</ele>
        <time>2019-05-03T09:11:07Z</time>
      </trkpt>
      <trkpt lat="44.34667" lon="5.16366">
        <ele>690</ele>
        <time>2019-05-03T09:11:19Z</time>
      </trkpt>
      <trkpt lat="44.34671" lon="5.16379">
        <ele>693</ele>
        <time>2019-05-03T09:11:32Z</time>
      </trkpt>
      <trkpt lat="44.34683" lon="5.1637">
        <ele>695</ele>
        <time>2019-05-03T09:11:46Z</time>
      </trkpt>
      <trkpt lat="44.34675" lon="5.16379">
        <ele>701</ele>
        <time>2019-05-03T09:25:48Z</time>
      </trkpt>
      <trkpt lat="44.34663" lon="5.16389">
        <ele>707</ele>
        <time>2019-05-03T09:27:07Z</time>
      </trkpt>
      <trkpt lat="44.34652" lon="5.16398">
        <ele>707</ele>
        <time>2019-05-03T09:27:11Z</time>
      </trkpt>
      <trkpt lat="44.34645" lon="5.16408">
        <ele>706</ele>
        <time>2019-05-03T09:27:13Z</time>
      </trkpt>
      <trkpt lat="44.34637" lon="5.16423">
        <ele>706</ele>
        <time>2019-05-03T09:27:15Z</time>
      </trkpt>
      <trkpt lat="44.34627" lon="5.16426">
        <ele>708</ele>
        <time>2019-05-03T09:27:17Z</time>
      </trkpt>
      <trkpt lat="44.34614" lon="5.1643">
        <ele>706</ele>
        <time>2019-05-03T09:27:19Z</time>
      </trkpt>
      <trkpt lat="44.34599" lon="5.16433">
        <ele>706</ele>
        <time>2019-05-03T09:27:21Z</time>
      </trkpt>
      <trkpt lat="44.34571" lon="5.16439">
        <ele>703</ele>
        <time>2019-05-03T09:27:25Z</time>
      </trkpt>
      <trkpt lat="44.34557" lon="5.16446">
        <ele>703</ele>
        <time>2019-05-03T09:27:27Z</time>
      </trkpt>
      <trkpt lat="44.34542" lon="5.16443">
        <ele>701</ele>
        <time>2019-05-03T09:27:29Z</time>
      </trkpt>
      <trkpt lat="44.34525" lon="5.16445">
        <ele>701</ele>
        <time>2019-05-03T09:27:31Z</time>
      </trkpt>
      <trkpt lat="44.34484" lon="5.16433">
        <ele>695</ele>
        <time>2019-05-03T09:27:37Z</time>
      </trkpt>
      <trkpt lat="44.34468" lon="5.16437">
        <ele>696</ele>
        <time>2019-05-03T09:27:39Z</time>
      </trkpt>
      <trkpt lat="44.34444" lon="5.16435">
        <ele>693</ele>
        <time>2019-05-03T09:27:43Z</time>
      </trkpt>
      <trkpt lat="44.34433" lon="5.16435">
        <ele>694</ele>
        <time>2019-05-03T09:27:45Z</time>
      </trkpt>
      <trkpt lat="44.34407" lon="5.16429">
        <ele>692</ele>
        <time>2019-05-03T09:27:49Z</time>
      </trkpt>
      <trkpt lat="44.34377" lon="5.16427">
        <ele>691</ele>
        <time>2019-05-03T09:27:53Z</time>
      </trkpt>
      <trkpt lat="44.34312" lon="5.16424">
        <ele>686</ele>
        <time>2019-05-03T09:28:01Z</time>
      </trkpt>
      <trkpt lat="44.34288" lon="5.16421">
        <ele>686</ele>
        <time>2019-05-03T09:28:04Z</time>
      </trkpt>
      <trkpt lat="44.34266" lon="5.16405">
        <ele>686</ele>
        <time>2019-05-03T09:28:08Z</time>
      </trkpt>
      <trkpt lat="44.34255" lon="5.1637">
        <ele>670</ele>
        <time>2019-05-03T09:28:12Z</time>
      </trkpt>
      <trkpt lat="44.34246" lon="5.16372">
        <ele>668</ele>
        <time>2019-05-03T09:28:16Z</time>
      </trkpt>
      <trkpt lat="44.3425" lon="5.16386">
        <ele>664</ele>
        <time>2019-05-03T09:28:20Z</time>
      </trkpt>
      <trkpt lat="44.34261" lon="5.16394">
        <ele>664</ele>
        <time>2019-05-03T09:28:24Z</time>
      </trkpt>
      <trkpt lat="44.34269" lon="5.16408">
        <ele>662</ele>
        <time>2019-05-03T09:28:26Z</time>
      </trkpt>
      <trkpt lat="44.34289" lon="5.16433">
        <ele>662</ele>
        <time>2019-05-03T09:28:30Z</time>
      </trkpt>
      <trkpt lat="44.34298" lon="5.16445">
        <ele>659</ele>
        <time>2019-05-03T09:28:32Z</time>
      </trkpt>
      <trkpt lat="44.34309" lon="5.1645">
        <ele>659</ele>
        <time>2019-05-03T09:28:34Z</time>
      </trkpt>
      <trkpt lat="44.34319" lon="5.16463">
        <ele>662</ele>
        <time>2019-05-03T09:28:36Z</time>
      </trkpt>
      <trkpt lat="44.34335" lon="5.16485">
        <ele>661</ele>
        <time>2019-05-03T09:28:40Z</time>
      </trkpt>
      <trkpt lat="44.34354" lon="5.16513">
        <ele>658</ele>
        <time>2019-05-03T09:28:44Z</time>
      </trkpt>
      <trkpt lat="44.34386" lon="5.16518">
        <ele>650</ele>
        <time>2019-05-03T09:28:48Z</time>
      </trkpt>
      <trkpt lat="44.34393" lon="5.16526">
        <ele>652</ele>
        <time>2019-05-03T09:28:49Z</time>
      </trkpt>
      <trkpt lat="44.3446" lon="5.16591">
        <ele>642</ele>
        <time>2019-05-03T09:28:59Z</time>
      </trkpt>
      <trkpt lat="44.34489" lon="5.16619">
        <ele>642</ele>
        <time>2019-05-03T09:29:03Z</time>
      </trkpt>
      <trkpt lat="44.34503" lon="5.16634">
        <ele>640</ele>
        <time>2019-05-03T09:29:05Z</time>
      </trkpt>
      <trkpt lat="44.34529" lon="5.16642">
        <ele>633</ele>
        <time>2019-05-03T09:29:08Z</time>
      </trkpt>
      <trkpt lat="44.34552" lon="5.16665">
        <ele>632</ele>
        <time>2019-05-03T09:29:13Z</time>
      </trkpt>
      <trkpt lat="44.34545" lon="5.16684">
        <ele>633</ele>
        <time>2019-05-03T09:29:18Z</time>
      </trkpt>
      <trkpt lat="44.34535" lon="5.16687">
        <ele>632</ele>
        <time>2019-05-03T09:29:20Z</time>
      </trkpt>
      <trkpt lat="44.3449" lon="5.16676">
        <ele>626</ele>
        <time>2019-05-03T09:29:26Z</time>
      </trkpt>
      <trkpt lat="44.34475" lon="5.16677">
        <ele>626</ele>
        <time>2019-05-03T09:29:28Z</time>
      </trkpt>
      <trkpt lat="44.34448" lon="5.16664">
        <ele>622</ele>
        <time>2019-05-03T09:29:32Z</time>
      </trkpt>
      <trkpt lat="44.3442" lon="5.16653">
        <ele>622</ele>
        <time>2019-05-03T09:29:36Z</time>
      </trkpt>
      <trkpt lat="44.34291" lon="5.16654">
        <ele>616</ele>
        <time>2019-05-03T09:29:52Z</time>
      </trkpt>
      <trkpt lat="44.34265" lon="5.16616">
        <ele>610</ele>
        <time>2019-05-03T09:29:56Z</time>
      </trkpt>
      <trkpt lat="44.34232" lon="5.16603">
        <ele>607</ele>
        <time>2019-05-03T09:30:00Z</time>
      </trkpt>
      <trkpt lat="44.34179" lon="5.16556">
        <ele>592</ele>
        <time>2019-05-03T09:30:08Z</time>
      </trkpt>
      <trkpt lat="44.34146" lon="5.16547">
        <ele>593</ele>
        <time>2019-05-03T09:30:12Z</time>
      </trkpt>
      <trkpt lat="44.34115" lon="5.16562">
        <ele>591</ele>
        <time>2019-05-03T09:30:16Z</time>
      </trkpt>
      <trkpt lat="44.34094" lon="5.16542">
        <ele>582</ele>
        <time>2019-05-03T09:30:20Z</time>
      </trkpt>
      <trkpt lat="44.34071" lon="5.16503">
        <ele>575</ele>
        <time>2019-05-03T09:30:25Z</time>
      </trkpt>
      <trkpt lat="44.34062" lon="5.16473">
        <ele>576</ele>
        <time>2019-05-03T09:30:29Z</time>
      </trkpt>
      <trkpt lat="44.34054" lon="5.16465">
        <ele>577</ele>
        <time>2019-05-03T09:30:31Z</time>
      </trkpt>
      <trkpt lat="44.3404" lon="5.16459">
        <ele>576</ele>
        <time>2019-05-03T09:30:33Z</time>
      </trkpt>
      <trkpt lat="44.33998" lon="5.16457">
        <ele>574</ele>
        <time>2019-05-03T09:30:40Z</time>
      </trkpt>
      <trkpt lat="44.33987" lon="5.16471">
        <ele>574</ele>
        <time>2019-05-03T09:30:43Z</time>
      </trkpt>
      <trkpt lat="44.33985" lon="5.16488">
        <ele>573</ele>
        <time>2019-05-03T09:30:46Z</time>
      </trkpt>
      <trkpt lat="44.33995" lon="5.16499">
        <ele>573</ele>
        <time>2019-05-03T09:30:49Z</time>
      </trkpt>
      <trkpt lat="44.34012" lon="5.16496">
        <ele>573</ele>
        <time>2019-05-03T09:30:51Z</time>
      </trkpt>
      <trkpt lat="44.34021" lon="5.16506">
        <ele>570</ele>
        <time>2019-05-03T09:30:53Z</time>
      </trkpt>
      <trkpt lat="44.34028" lon="5.16523">
        <ele>571</ele>
        <time>2019-05-03T09:30:55Z</time>
      </trkpt>
      <trkpt lat="44.34031" lon="5.16537">
        <ele>563</ele>
        <time>2019-05-03T09:30:58Z</time>
      </trkpt>
      <trkpt lat="44.34034" lon="5.1655">
        <ele>562</ele>
        <time>2019-05-03T09:31:00Z</time>
      </trkpt>
      <trkpt lat="44.34043" lon="5.1658">
        <ele>552</ele>
        <time>2019-05-03T09:31:04Z</time>
      </trkpt>
      <trkpt lat="44.34065" lon="5.16609">
        <ele>545</ele>
        <time>2019-05-03T09:31:12Z</time>
      </trkpt>
      <trkpt lat="44.34071" lon="5.16622">
        <ele>545</ele>
        <time>2019-05-03T09:31:14Z</time>
      </trkpt>
      <trkpt lat="44.34085" lon="5.16655">
        <ele>538</ele>
        <time>2019-05-03T09:31:19Z</time>
      </trkpt>
      <trkpt lat="44.34093" lon="5.16666">
        <ele>539</ele>
        <time>2019-05-03T09:31:22Z</time>
      </trkpt>
      <trkpt lat="44.34099" lon="5.16677">
        <ele>537</ele>
        <time>2019-05-03T09:31:25Z</time>
      </trkpt>
      <trkpt lat="44.34112" lon="5.16682">
        <ele>533</ele>
        <time>2019-05-03T09:31:29Z</time>
      </trkpt>
      <trkpt lat="44.34121" lon="5.16706">
        <ele>533</ele>
        <time>2019-05-03T09:31:32Z</time>
      </trkpt>
      <trkpt lat="44.34118" lon="5.16724">
        <ele>532</ele>
        <time>2019-05-03T09:31:34Z</time>
      </trkpt>
      <trkpt lat="44.34116" lon="5.16736">
        <ele>527</ele>
        <time>2019-05-03T09:31:36Z</time>
      </trkpt>
      <trkpt lat="44.34113" lon="5.16774">
        <ele>524</ele>
        <time>2019-05-03T09:31:40Z</time>
      </trkpt>
      <trkpt lat="44.34109" lon="5.16804">
        <ele>523</ele>
        <time>2019-05-03T09:31:44Z</time>
      </trkpt>
      <trkpt lat="44.3411" lon="5.16819">
        <ele>525</ele>
        <time>2019-05-03T09:31:46Z</time>
      </trkpt>
      <trkpt lat="44.34115" lon="5.16833">
        <ele>526</ele>
        <time>2019-05-03T09:31:49Z</time>
      </trkpt>
      <trkpt lat="44.34123" lon="5.16864">
        <ele>525</ele>
        <time>2019-05-03T09:31:53Z</time>
      </trkpt>
      <trkpt lat="44.34138" lon="5.16912">
        <ele>518</ele>
        <time>2019-05-03T09:31:59Z</time>
      </trkpt>
      <trkpt lat="44.34138" lon="5.16927">
        <ele>519</ele>
        <time>2019-05-03T09:32:01Z</time>
      </trkpt>
      <trkpt lat="44.34137" lon="5.16945">
        <ele>518</ele>
        <time>2019-05-03T09:32:03Z</time>
      </trkpt>
      <trkpt lat="44.34128" lon="5.16956">
        <ele>516</ele>
        <time>2019-05-03T09:32:05Z</time>
      </trkpt>
      <trkpt lat="44.34113" lon="5.16986">
        <ele>514</ele>
        <time>2019-05-03T09:32:09Z</time>
      </trkpt>
      <trkpt lat="44.34114" lon="5.17008">
        <ele>510</ele>
        <time>2019-05-03T09:32:11Z</time>
      </trkpt>
      <trkpt lat="44.34106" lon="5.17061">
        <ele>502</ele>
        <time>2019-05-03T09:32:17Z</time>
      </trkpt>
      <trkpt lat="44.34104" lon="5.17078">
        <ele>502</ele>
        <time>2019-05-03T09:32:19Z</time>
      </trkpt>
      <trkpt lat="44.34107" lon="5.1709">
        <ele>499</ele>
        <time>2019-05-03T09:32:22Z</time>
      </trkpt>
      <trkpt lat="44.34147" lon="5.17105">
        <ele>494</ele>
        <time>2019-05-03T09:32:28Z</time>
      </trkpt>
      <trkpt lat="44.34161" lon="5.17104">
        <ele>494</ele>
        <time>2019-05-03T09:32:30Z</time>
      </trkpt>
      <trkpt lat="44.34174" lon="5.17109">
        <ele>493</ele>
        <time>2019-05-03T09:32:32Z</time>
      </trkpt>
      <trkpt lat="44.34179" lon="5.17122">
        <ele>490</ele>
        <time>2019-05-03T09:32:36Z</time>
      </trkpt>
      <trkpt lat="44.34163" lon="5.17121">
        <ele>490</ele>
        <time>2019-05-03T09:32:39Z</time>
      </trkpt>
      <trkpt lat="44.34146" lon="5.1713">
        <ele>491</ele>
        <time>2019-05-03T09:32:41Z</time>
      </trkpt>
      <trkpt lat="44.34124" lon="5.17132">
        <ele>486</ele>
        <time>2019-05-03T09:32:44Z</time>
      </trkpt>
      <trkpt lat="44.34101" lon="5.17147">
        <ele>485</ele>
        <time>2019-05-03T09:32:47Z</time>
      </trkpt>
      <trkpt lat="44.34086" lon="5.17153">
        <ele>485</ele>
        <time>2019-05-03T09:32:49Z</time>
      </trkpt>
      <trkpt lat="44.34063" lon="5.17164">
        <ele>487</ele>
        <time>2019-05-03T09:32:53Z</time>
      </trkpt>
      <trkpt lat="44.3406" lon="5.17163">
        <ele>475</ele>
        <time>2019-05-03T09:33:38Z</time>
      </trkpt>
      <trkpt lat="44.34044" lon="5.1717">
        <ele>470</ele>
        <time>2019-05-03T09:34:35Z</time>
      </trkpt>
      <trkpt lat="44.34033" lon="5.17174">
        <ele>469</ele>
        <time>2019-05-03T09:34:37Z</time>
      </trkpt>
      <trkpt lat="44.3402" lon="5.17189">
        <ele>466</ele>
        <time>2019-05-03T09:34:39Z</time>
      </trkpt>
      <trkpt lat="44.34011" lon="5.17204">
        <ele>463</ele>
        <time>2019-05-03T09:34:41Z</time>
      </trkpt>
      <trkpt lat="44.34006" lon="5.17219">
        <ele>463</ele>
        <time>2019-05-03T09:34:43Z</time>
      </trkpt>
      <trkpt lat="44.34002" lon="5.1724">
        <ele>464</ele>
        <time>2019-05-03T09:34:49Z</time>
      </trkpt>
      <trkpt lat="44.34004" lon="5.17256">
        <ele>462</ele>
        <time>2019-05-03T09:34:58Z</time>
      </trkpt>
      <trkpt lat="44.34021" lon="5.17292">
        <ele>456</ele>
        <time>2019-05-03T09:35:13Z</time>
      </trkpt>
      <trkpt lat="44.34027" lon="5.17302">
        <ele>456</ele>
        <time>2019-05-03T09:35:17Z</time>
      </trkpt>
      <trkpt lat="44.34037" lon="5.1731">
        <ele>452</ele>
        <time>2019-05-03T09:35:22Z</time>
      </trkpt>
      <trkpt lat="44.34041" lon="5.17329">
        <ele>451</ele>
        <time>2019-05-03T09:35:26Z</time>
      </trkpt>
      <trkpt lat="44.34041" lon="5.1735">
        <ele>452</ele>
        <time>2019-05-03T09:35:28Z</time>
      </trkpt>
      <trkpt lat="44.34041" lon="5.17369">
        <ele>451</ele>
        <time>2019-05-03T09:35:30Z</time>
      </trkpt>
      <trkpt lat="44.34038" lon="5.17388">
        <ele>452</ele>
        <time>2019-05-03T09:35:32Z</time>
      </trkpt>
      <trkpt lat="44.34026" lon="5.17398">
        <ele>454</ele>
        <time>2019-05-03T09:35:34Z</time>
      </trkpt>
      <trkpt lat="44.34019" lon="5.17418">
        <ele>453</ele>
        <time>2019-05-03T09:35:36Z</time>
      </trkpt>
      <trkpt lat="44.34014" lon="5.17444">
        <ele>450</ele>
        <time>2019-05-03T09:35:38Z</time>
      </trkpt>
      <trkpt lat="44.34012" lon="5.17462">
        <ele>449</ele>
        <time>2019-05-03T09:35:40Z</time>
      </trkpt>
      <trkpt lat="44.34015" lon="5.17475">
        <ele>448</ele>
        <time>2019-05-03T09:35:41Z</time>
      </trkpt>
      <trkpt lat="44.34045" lon="5.17517">
        <ele>441</ele>
        <time>2019-05-03T09:35:46Z</time>
      </trkpt>
      <trkpt lat="44.34059" lon="5.1755">
        <ele>442</ele>
        <time>2019-05-03T09:35:49Z</time>
      </trkpt>
      <trkpt lat="44.34061" lon="5.17573">
        <ele>441</ele>
        <time>2019-05-03T09:35:51Z</time>
      </trkpt>
      <trkpt lat="44.34059" lon="5.176">
        <ele>441</ele>
        <time>2019-05-03T09:35:53Z</time>
      </trkpt>
      <trkpt lat="44.34061" lon="5.17614">
        <ele>438</ele>
        <time>2019-05-03T09:35:54Z</time>
      </trkpt>
      <trkpt lat="44.34054" lon="5.17644">
        <ele>435</ele>
        <time>2019-05-03T09:35:56Z</time>
      </trkpt>
      <trkpt lat="44.34052" lon="5.17657">
        <ele>435</ele>
        <time>2019-05-03T09:35:57Z</time>
      </trkpt>
      <trkpt lat="44.34048" lon="5.17673">
        <ele>435</ele>
        <time>2019-05-03T09:35:59Z</time>
      </trkpt>
      <trkpt lat="44.34034" lon="5.17684">
        <ele>434</ele>
        <time>2019-05-03T09:36:01Z</time>
      </trkpt>
      <trkpt lat="44.34021" lon="5.17683">
        <ele>434</ele>
        <time>2019-05-03T09:36:03Z</time>
      </trkpt>
      <trkpt lat="44.3401" lon="5.17686">
        <ele>434</ele>
        <time>2019-05-03T09:36:05Z</time>
      </trkpt>
      <trkpt lat="44.34" lon="5.17688">
        <ele>435</ele>
        <time>2019-05-03T09:36:07Z</time>
      </trkpt>
      <trkpt lat="44.33991" lon="5.17688">
        <ele>436</ele>
        <time>2019-05-03T09:36:09Z</time>
      </trkpt>
      <trkpt lat="44.33979" lon="5.17683">
        <ele>436</ele>
        <time>2019-05-03T09:36:12Z</time>
      </trkpt>
      <trkpt lat="44.33966" lon="5.17683">
        <ele>437</ele>
        <time>2019-05-03T09:36:15Z</time>
      </trkpt>
      <trkpt lat="44.33956" lon="5.17682">
        <ele>435</ele>
        <time>2019-05-03T09:36:18Z</time>
      </trkpt>
      <trkpt lat="44.33944" lon="5.17684">
        <ele>437</ele>
        <time>2019-05-03T09:36:21Z</time>
      </trkpt>
      <trkpt lat="44.3394" lon="5.17699">
        <ele>437</ele>
        <time>2019-05-03T09:36:25Z</time>
      </trkpt>
      <trkpt lat="44.3395" lon="5.17708">
        <ele>439</ele>
        <time>2019-05-03T09:36:28Z</time>
      </trkpt>
      <trkpt lat="44.33961" lon="5.17708">
        <ele>439</ele>
        <time>2019-05-03T09:36:32Z</time>
      </trkpt>
      <trkpt lat="44.3397" lon="5.17715">
        <ele>438</ele>
        <time>2019-05-03T09:36:34Z</time>
      </trkpt>
      <trkpt lat="44.3398" lon="5.17719">
        <ele>439</ele>
        <time>2019-05-03T09:36:37Z</time>
      </trkpt>
      <trkpt lat="44.33978" lon="5.17719">
        <ele>434</ele>
        <time>2019-05-03T09:36:53Z</time>
      </trkpt>
      <trkpt lat="44.33962" lon="5.1772">
        <ele>432</ele>
        <time>2019-05-03T09:37:02Z</time>
      </trkpt>
      <trkpt lat="44.33939" lon="5.17725">
        <ele>441</ele>
        <time>2019-05-03T09:37:40Z</time>
      </trkpt>
      <trkpt lat="44.3393" lon="5.17729">
        <ele>441</ele>
        <time>2019-05-03T09:37:43Z</time>
      </trkpt>
      <trkpt lat="44.3392" lon="5.1773">
        <ele>442</ele>
        <time>2019-05-03T09:37:46Z</time>
      </trkpt>
      <trkpt lat="44.33901" lon="5.17726">
        <ele>441</ele>
        <time>2019-05-03T09:37:52Z</time>
      </trkpt>
      <trkpt lat="44.33893" lon="5.17722">
        <ele>443</ele>
        <time>2019-05-03T09:37:55Z</time>
      </trkpt>
      <trkpt lat="44.33883" lon="5.17717">
        <ele>443</ele>
        <time>2019-05-03T09:37:58Z</time>
      </trkpt>
      <trkpt lat="44.33864" lon="5.17701">
        <ele>441</ele>
        <time>2019-05-03T09:38:06Z</time>
      </trkpt>
      <trkpt lat="44.33854" lon="5.17696">
        <ele>443</ele>
        <time>2019-05-03T09:38:10Z</time>
      </trkpt>
      <trkpt lat="44.33845" lon="5.17691">
        <ele>443</ele>
        <time>2019-05-03T09:38:14Z</time>
      </trkpt>
      <trkpt lat="44.33836" lon="5.1769">
        <ele>443</ele>
        <time>2019-05-03T09:38:17Z</time>
      </trkpt>
      <trkpt lat="44.33827" lon="5.17689">
        <ele>444</ele>
        <time>2019-05-03T09:38:20Z</time>
      </trkpt>
      <trkpt lat="44.33816" lon="5.17685">
        <ele>444</ele>
        <time>2019-05-03T09:38:24Z</time>
      </trkpt>
      <trkpt lat="44.33806" lon="5.17679">
        <ele>443</ele>
        <time>2019-05-03T09:38:28Z</time>
      </trkpt>
      <trkpt lat="44.33795" lon="5.17676">
        <ele>443</ele>
        <time>2019-05-03T09:38:32Z</time>
      </trkpt>
      <trkpt lat="44.33773" lon="5.17672">
        <ele>446</ele>
        <time>2019-05-03T09:38:39Z</time>
      </trkpt>
      <trkpt lat="44.33763" lon="5.17673">
        <ele>445</ele>
        <time>2019-05-03T09:38:42Z</time>
      </trkpt>
      <trkpt lat="44.33744" lon="5.17675">
        <ele>446</ele>
        <time>2019-05-03T09:38:48Z</time>
      </trkpt>
      <trkpt lat="44.33725" lon="5.17678">
        <ele>446</ele>
        <time>2019-05-03T09:38:54Z</time>
      </trkpt>
      <trkpt lat="44.33715" lon="5.17677">
        <ele>445</ele>
        <time>2019-05-03T09:38:57Z</time>
      </trkpt>
      <trkpt lat="44.33706" lon="5.17679">
        <ele>446</ele>
        <time>2019-05-03T09:39:00Z</time>
      </trkpt>
      <trkpt lat="44.33694" lon="5.17683">
        <ele>446</ele>
        <time>2019-05-03T09:39:04Z</time>
      </trkpt>
      <trkpt lat="44.33683" lon="5.17688">
        <ele>448</ele>
        <time>2019-05-03T09:39:08Z</time>
      </trkpt>
      <trkpt lat="44.33664" lon="5.17695">
        <ele>449</ele>
        <time>2019-05-03T09:39:15Z</time>
      </trkpt>
      <trkpt lat="44.33655" lon="5.17698">
        <ele>448</ele>
        <time>2019-05-03T09:39:18Z</time>
      </trkpt>
      <trkpt lat="44.33645" lon="5.17702">
        <ele>450</ele>
        <time>2019-05-03T09:39:21Z</time>
      </trkpt>
      <trkpt lat="44.33628" lon="5.17709">
        <ele>452</ele>
        <time>2019-05-03T09:39:27Z</time>
      </trkpt>
      <trkpt lat="44.33618" lon="5.17713">
        <ele>451</ele>
        <time>2019-05-03T09:39:30Z</time>
      </trkpt>
      <trkpt lat="44.33608" lon="5.17716">
        <ele>451</ele>
        <time>2019-05-03T09:39:33Z</time>
      </trkpt>
      <trkpt lat="44.336" lon="5.17721">
        <ele>451</ele>
        <time>2019-05-03T09:39:36Z</time>
      </trkpt>
      <trkpt lat="44.33593" lon="5.17728">
        <ele>452</ele>
        <time>2019-05-03T09:39:39Z</time>
      </trkpt>
      <trkpt lat="44.33583" lon="5.17734">
        <ele>455</ele>
        <time>2019-05-03T09:39:43Z</time>
      </trkpt>
      <trkpt lat="44.33572" lon="5.17738">
        <ele>455</ele>
        <time>2019-05-03T09:39:47Z</time>
      </trkpt>
      <trkpt lat="44.33562" lon="5.17743">
        <ele>454</ele>
        <time>2019-05-03T09:39:50Z</time>
      </trkpt>
      <trkpt lat="44.33552" lon="5.17748">
        <ele>456</ele>
        <time>2019-05-03T09:39:54Z</time>
      </trkpt>
      <trkpt lat="44.33541" lon="5.1775">
        <ele>456</ele>
        <time>2019-05-03T09:39:58Z</time>
      </trkpt>
      <trkpt lat="44.3353" lon="5.17749">
        <ele>456</ele>
        <time>2019-05-03T09:40:02Z</time>
      </trkpt>
      <trkpt lat="44.33522" lon="5.17742">
        <ele>456</ele>
        <time>2019-05-03T09:40:05Z</time>
      </trkpt>
      <trkpt lat="44.33514" lon="5.17733">
        <ele>458</ele>
        <time>2019-05-03T09:40:10Z</time>
      </trkpt>
      <trkpt lat="44.33507" lon="5.17721">
        <ele>458</ele>
        <time>2019-05-03T09:40:13Z</time>
      </trkpt>
      <trkpt lat="44.33492" lon="5.17702">
        <ele>460</ele>
        <time>2019-05-03T09:40:17Z</time>
      </trkpt>
      <trkpt lat="44.33482" lon="5.17693">
        <ele>462</ele>
        <time>2019-05-03T09:40:20Z</time>
      </trkpt>
      <trkpt lat="44.33463" lon="5.17687">
        <ele>462</ele>
        <time>2019-05-03T09:40:26Z</time>
      </trkpt>
      <trkpt lat="44.3344" lon="5.17688">
        <ele>464</ele>
        <time>2019-05-03T09:40:34Z</time>
      </trkpt>
      <trkpt lat="44.33431" lon="5.1769">
        <ele>463</ele>
        <time>2019-05-03T09:40:37Z</time>
      </trkpt>
      <trkpt lat="44.33422" lon="5.17692">
        <ele>467</ele>
        <time>2019-05-03T09:40:40Z</time>
      </trkpt>
      <trkpt lat="44.3341" lon="5.17696">
        <ele>468</ele>
        <time>2019-05-03T09:40:44Z</time>
      </trkpt>
      <trkpt lat="44.33401" lon="5.177">
        <ele>468</ele>
        <time>2019-05-03T09:40:47Z</time>
      </trkpt>
      <trkpt lat="44.33382" lon="5.17706">
        <ele>464</ele>
        <time>2019-05-03T09:40:53Z</time>
      </trkpt>
      <trkpt lat="44.33371" lon="5.17704">
        <ele>463</ele>
        <time>2019-05-03T09:40:56Z</time>
      </trkpt>
      <trkpt lat="44.3336" lon="5.177">
        <ele>467</ele>
        <time>2019-05-03T09:40:59Z</time>
      </trkpt>
      <trkpt lat="44.33351" lon="5.17693">
        <ele>470</ele>
        <time>2019-05-03T09:41:02Z</time>
      </trkpt>
      <trkpt lat="44.33343" lon="5.17686">
        <ele>470</ele>
        <time>2019-05-03T09:41:05Z</time>
      </trkpt>
      <trkpt lat="44.33335" lon="5.17679">
        <ele>472</ele>
        <time>2019-05-03T09:41:08Z</time>
      </trkpt>
      <trkpt lat="44.33323" lon="5.17676">
        <ele>473</ele>
        <time>2019-05-03T09:41:12Z</time>
      </trkpt>
      <trkpt lat="44.33313" lon="5.17677">
        <ele>473</ele>
        <time>2019-05-03T09:41:15Z</time>
      </trkpt>
      <trkpt lat="44.33304" lon="5.17678">
        <ele>471</ele>
        <time>2019-05-03T09:41:18Z</time>
      </trkpt>
      <trkpt lat="44.33293" lon="5.17679">
        <ele>472</ele>
        <time>2019-05-03T09:41:21Z</time>
      </trkpt>
      <trkpt lat="44.33283" lon="5.17679">
        <ele>472</ele>
        <time>2019-05-03T09:41:24Z</time>
      </trkpt>
      <trkpt lat="44.33274" lon="5.17682">
        <ele>471</ele>
        <time>2019-05-03T09:41:27Z</time>
      </trkpt>
      <trkpt lat="44.33263" lon="5.17685">
        <ele>472</ele>
        <time>2019-05-03T09:41:31Z</time>
      </trkpt>
      <trkpt lat="44.33254" lon="5.17687">
        <ele>472</ele>
        <time>2019-05-03T09:41:34Z</time>
      </trkpt>
      <trkpt lat="44.33223" lon="5.17693">
        <ele>474</ele>
        <time>2019-05-03T09:41:44Z</time>
      </trkpt>
      <trkpt lat="44.33214" lon="5.17694">
        <ele>471</ele>
        <time>2019-05-03T09:41:47Z</time>
      </trkpt>
      <trkpt lat="44.33195" lon="5.17696">
        <ele>472</ele>
        <time>2019-05-03T09:41:53Z</time>
      </trkpt>
      <trkpt lat="44.33176" lon="5.17699">
        <ele>475</ele>
        <time>2019-05-03T09:41:59Z</time>
      </trkpt>
      <trkpt lat="44.33167" lon="5.177">
        <ele>475</ele>
        <time>2019-05-03T09:42:02Z</time>
      </trkpt>
      <trkpt lat="44.33158" lon="5.17697">
        <ele>476</ele>
        <time>2019-05-03T09:42:05Z</time>
      </trkpt>
      <trkpt lat="44.33147" lon="5.17694">
        <ele>477</ele>
        <time>2019-05-03T09:42:09Z</time>
      </trkpt>
      <trkpt lat="44.33136" lon="5.17688">
        <ele>478</ele>
        <time>2019-05-03T09:42:13Z</time>
      </trkpt>
      <trkpt lat="44.33131" lon="5.17678">
        <ele>478</ele>
        <time>2019-05-03T09:42:16Z</time>
      </trkpt>
      <trkpt lat="44.33132" lon="5.17664">
        <ele>479</ele>
        <time>2019-05-03T09:42:19Z</time>
      </trkpt>
      <trkpt lat="44.33135" lon="5.17647">
        <ele>478</ele>
        <time>2019-05-03T09:42:23Z</time>
      </trkpt>
      <trkpt lat="44.33144" lon="5.17624">
        <ele>480</ele>
        <time>2019-05-03T09:42:29Z</time>
      </trkpt>
      <trkpt lat="44.33159" lon="5.17599">
        <ele>480</ele>
        <time>2019-05-03T09:42:37Z</time>
      </trkpt>
      <trkpt lat="44.33162" lon="5.17584">
        <ele>482</ele>
        <time>2019-05-03T09:42:41Z</time>
      </trkpt>
      <trkpt lat="44.33159" lon="5.17569">
        <ele>488</ele>
        <time>2019-05-03T09:42:45Z</time>
      </trkpt>
      <trkpt lat="44.33154" lon="5.17556">
        <ele>487</ele>
        <time>2019-05-03T09:42:49Z</time>
      </trkpt>
      <trkpt lat="44.33151" lon="5.17542">
        <ele>488</ele>
        <time>2019-05-03T09:42:53Z</time>
      </trkpt>
      <trkpt lat="44.3315" lon="5.17527">
        <ele>490</ele>
        <time>2019-05-03T09:42:57Z</time>
      </trkpt>
      <trkpt lat="44.33144" lon="5.17498">
        <ele>491</ele>
        <time>2019-05-03T09:43:05Z</time>
      </trkpt>
      <trkpt lat="44.3314" lon="5.17482">
        <ele>490</ele>
        <time>2019-05-03T09:43:09Z</time>
      </trkpt>
      <trkpt lat="44.33136" lon="5.17466">
        <ele>491</ele>
        <time>2019-05-03T09:43:13Z</time>
      </trkpt>
      <trkpt lat="44.33132" lon="5.17439">
        <ele>490</ele>
        <time>2019-05-03T09:43:19Z</time>
      </trkpt>
      <trkpt lat="44.33132" lon="5.17424">
        <ele>490</ele>
        <time>2019-05-03T09:43:21Z</time>
      </trkpt>
      <trkpt lat="44.33125" lon="5.1741">
        <ele>489</ele>
        <time>2019-05-03T09:43:23Z</time>
      </trkpt>
      <trkpt lat="44.3312" lon="5.17394">
        <ele>489</ele>
        <time>2019-05-03T09:43:25Z</time>
      </trkpt>
      <trkpt lat="44.33118" lon="5.17382">
        <ele>490</ele>
        <time>2019-05-03T09:43:27Z</time>
      </trkpt>
      <trkpt lat="44.3311" lon="5.17368">
        <ele>487</ele>
        <time>2019-05-03T09:43:31Z</time>
      </trkpt>
      <trkpt lat="44.33103" lon="5.17357">
        <ele>489</ele>
        <time>2019-05-03T09:43:34Z</time>
      </trkpt>
      <trkpt lat="44.33095" lon="5.17348">
        <ele>488</ele>
        <time>2019-05-03T09:43:37Z</time>
      </trkpt>
      <trkpt lat="44.33086" lon="5.17343">
        <ele>487</ele>
        <time>2019-05-03T09:43:40Z</time>
      </trkpt>
      <trkpt lat="44.33076" lon="5.17337">
        <ele>488</ele>
        <time>2019-05-03T09:43:43Z</time>
      </trkpt>
      <trkpt lat="44.33069" lon="5.17327">
        <ele>491</ele>
        <time>2019-05-03T09:43:46Z</time>
      </trkpt>
      <trkpt lat="44.33065" lon="5.17314">
        <ele>494</ele>
        <time>2019-05-03T09:43:49Z</time>
      </trkpt>
      <trkpt lat="44.33062" lon="5.17301">
        <ele>493</ele>
        <time>2019-05-03T09:43:52Z</time>
      </trkpt>
      <trkpt lat="44.33059" lon="5.17285">
        <ele>492</ele>
        <time>2019-05-03T09:43:55Z</time>
      </trkpt>
      <trkpt lat="44.33056" lon="5.17269">
        <ele>493</ele>
        <time>2019-05-03T09:43:58Z</time>
      </trkpt>
      <trkpt lat="44.3305" lon="5.17253">
        <ele>492</ele>
        <time>2019-05-03T09:44:01Z</time>
      </trkpt>
      <trkpt lat="44.33036" lon="5.17227">
        <ele>494</ele>
        <time>2019-05-03T09:44:07Z</time>
      </trkpt>
      <trkpt lat="44.33025" lon="5.17218">
        <ele>495</ele>
        <time>2019-05-03T09:44:10Z</time>
      </trkpt>
      <trkpt lat="44.33013" lon="5.1721">
        <ele>492</ele>
        <time>2019-05-03T09:44:13Z</time>
      </trkpt>
      <trkpt lat="44.33001" lon="5.17205">
        <ele>493</ele>
        <time>2019-05-03T09:44:16Z</time>
      </trkpt>
      <trkpt lat="44.32991" lon="5.17202">
        <ele>491</ele>
        <time>2019-05-03T09:44:18Z</time>
      </trkpt>
      <trkpt lat="44.3297" lon="5.1719">
        <ele>495</ele>
        <time>2019-05-03T09:44:24Z</time>
      </trkpt>
      <trkpt lat="44.32961" lon="5.17184">
        <ele>499</ele>
        <time>2019-05-03T09:44:27Z</time>
      </trkpt>
      <trkpt lat="44.32951" lon="5.17179">
        <ele>500</ele>
        <time>2019-05-03T09:44:30Z</time>
      </trkpt>
      <trkpt lat="44.32941" lon="5.17172">
        <ele>498</ele>
        <time>2019-05-03T09:44:33Z</time>
      </trkpt>
      <trkpt lat="44.32931" lon="5.17163">
        <ele>496</ele>
        <time>2019-05-03T09:44:36Z</time>
      </trkpt>
      <trkpt lat="44.32927" lon="5.17148">
        <ele>497</ele>
        <time>2019-05-03T09:44:39Z</time>
      </trkpt>
      <trkpt lat="44.32935" lon="5.17131">
        <ele>500</ele>
        <time>2019-05-03T09:44:42Z</time>
      </trkpt>
      <trkpt lat="44.32944" lon="5.17124">
        <ele>499</ele>
        <time>2019-05-03T09:44:44Z</time>
      </trkpt>
      <trkpt lat="44.32954" lon="5.17116">
        <ele>499</ele>
        <time>2019-05-03T09:44:47Z</time>
      </trkpt>
      <trkpt lat="44.32963" lon="5.17104">
        <ele>499</ele>
        <time>2019-05-03T09:44:50Z</time>
      </trkpt>
      <trkpt lat="44.3297" lon="5.17093">
        <ele>500</ele>
        <time>2019-05-03T09:44:53Z</time>
      </trkpt>
      <trkpt lat="44.32984" lon="5.17055">
        <ele>500</ele>
        <time>2019-05-03T09:45:03Z</time>
      </trkpt>
      <trkpt lat="44.3299" lon="5.1704">
        <ele>498</ele>
        <time>2019-05-03T09:45:07Z</time>
      </trkpt>
      <trkpt lat="44.33003" lon="5.17019">
        <ele>499</ele>
        <time>2019-05-03T09:45:14Z</time>
      </trkpt>
      <trkpt lat="44.33009" lon="5.17007">
        <ele>499</ele>
        <time>2019-05-03T09:45:18Z</time>
      </trkpt>
      <trkpt lat="44.33016" lon="5.16995">
        <ele>499</ele>
        <time>2019-05-03T09:45:22Z</time>
      </trkpt>
      <trkpt lat="44.33027" lon="5.16973">
        <ele>497</ele>
        <time>2019-05-03T09:45:28Z</time>
      </trkpt>
      <trkpt lat="44.33031" lon="5.16959">
        <ele>499</ele>
        <time>2019-05-03T09:45:32Z</time>
      </trkpt>
      <trkpt lat="44.33031" lon="5.16943">
        <ele>502</ele>
        <time>2019-05-03T09:45:36Z</time>
      </trkpt>
      <trkpt lat="44.33029" lon="5.1691">
        <ele>505</ele>
        <time>2019-05-03T09:45:44Z</time>
      </trkpt>
      <trkpt lat="44.33028" lon="5.16882">
        <ele>505</ele>
        <time>2019-05-03T09:45:52Z</time>
      </trkpt>
      <trkpt lat="44.33028" lon="5.16866">
        <ele>506</ele>
        <time>2019-05-03T09:45:56Z</time>
      </trkpt>
      <trkpt lat="44.33032" lon="5.16836">
        <ele>509</ele>
        <time>2019-05-03T09:46:04Z</time>
      </trkpt>
      <trkpt lat="44.33028" lon="5.16823">
        <ele>511</ele>
        <time>2019-05-03T09:46:14Z</time>
      </trkpt>
      <trkpt lat="44.33003" lon="5.16846">
        <ele>519</ele>
        <time>2019-05-03T09:46:32Z</time>
      </trkpt>
      <trkpt lat="44.32984" lon="5.16854">
        <ele>519</ele>
        <time>2019-05-03T09:46:46Z</time>
      </trkpt>
      <trkpt lat="44.32977" lon="5.16864">
        <ele>519</ele>
        <time>2019-05-03T09:46:52Z</time>
      </trkpt>
      <trkpt lat="44.32971" lon="5.16875">
        <ele>519</ele>
        <time>2019-05-03T09:46:58Z</time>
      </trkpt>
      <trkpt lat="44.32961" lon="5.16879">
        <ele>519</ele>
        <time>2019-05-03T09:47:04Z</time>
      </trkpt>
      <trkpt lat="44.32952" lon="5.16881">
        <ele>520</ele>
        <time>2019-05-03T09:47:10Z</time>
      </trkpt>
      <trkpt lat="44.32943" lon="5.16884">
        <ele>519</ele>
        <time>2019-05-03T09:47:16Z</time>
      </trkpt>
      <trkpt lat="44.32934" lon="5.16887">
        <ele>522</ele>
        <time>2019-05-03T09:47:22Z</time>
      </trkpt>
      <trkpt lat="44.32926" lon="5.16897">
        <ele>523</ele>
        <time>2019-05-03T09:47:31Z</time>
      </trkpt>
      <trkpt lat="44.32916" lon="5.16907">
        <ele>525</ele>
        <time>2019-05-03T09:47:41Z</time>
      </trkpt>
      <trkpt lat="44.32906" lon="5.16909">
        <ele>525</ele>
        <time>2019-05-03T09:47:48Z</time>
      </trkpt>
      <trkpt lat="44.32897" lon="5.16913">
        <ele>524</ele>
        <time>2019-05-03T09:47:55Z</time>
      </trkpt>
      <trkpt lat="44.32887" lon="5.16915">
        <ele>525</ele>
        <time>2019-05-03T09:48:02Z</time>
      </trkpt>
      <trkpt lat="44.32878" lon="5.16919">
        <ele>526</ele>
        <time>2019-05-03T09:48:07Z</time>
      </trkpt>
      <trkpt lat="44.32859" lon="5.16941">
        <ele>530</ele>
        <time>2019-05-03T09:48:18Z</time>
      </trkpt>
      <trkpt lat="44.32838" lon="5.16955">
        <ele>531</ele>
        <time>2019-05-03T09:48:28Z</time>
      </trkpt>
      <trkpt lat="44.3283" lon="5.16962">
        <ele>532</ele>
        <time>2019-05-03T09:48:32Z</time>
      </trkpt>
      <trkpt lat="44.32822" lon="5.1697">
        <ele>534</ele>
        <time>2019-05-03T09:48:37Z</time>
      </trkpt>
      <trkpt lat="44.32813" lon="5.16972">
        <ele>535</ele>
        <time>2019-05-03T09:48:42Z</time>
      </trkpt>
      <trkpt lat="44.32804" lon="5.16963">
        <ele>535</ele>
        <time>2019-05-03T09:48:47Z</time>
      </trkpt>
      <trkpt lat="44.32798" lon="5.16953">
        <ele>536</ele>
        <time>2019-05-03T09:48:51Z</time>
      </trkpt>
      <trkpt lat="44.32786" lon="5.16927">
        <ele>539</ele>
        <time>2019-05-03T09:49:00Z</time>
      </trkpt>
      <trkpt lat="44.3278" lon="5.16917">
        <ele>540</ele>
        <time>2019-05-03T09:49:05Z</time>
      </trkpt>
      <trkpt lat="44.32771" lon="5.1691">
        <ele>542</ele>
        <time>2019-05-03T09:49:10Z</time>
      </trkpt>
      <trkpt lat="44.3276" lon="5.16908">
        <ele>541</ele>
        <time>2019-05-03T09:49:15Z</time>
      </trkpt>
      <trkpt lat="44.3275" lon="5.16908">
        <ele>542</ele>
        <time>2019-05-03T09:49:20Z</time>
      </trkpt>
      <trkpt lat="44.32731" lon="5.16914">
        <ele>540</ele>
        <time>2019-05-03T09:49:30Z</time>
      </trkpt>
      <trkpt lat="44.32722" lon="5.16918">
        <ele>541</ele>
        <time>2019-05-03T09:49:36Z</time>
      </trkpt>
      <trkpt lat="44.32713" lon="5.16926">
        <ele>542</ele>
        <time>2019-05-03T09:49:42Z</time>
      </trkpt>
      <trkpt lat="44.32704" lon="5.16934">
        <ele>541</ele>
        <time>2019-05-03T09:49:48Z</time>
      </trkpt>
      <trkpt lat="44.3268" lon="5.16935">
        <ele>544</ele>
        <time>2019-05-03T09:50:01Z</time>
      </trkpt>
      <trkpt lat="44.3267" lon="5.16935">
        <ele>545</ele>
        <time>2019-05-03T09:50:07Z</time>
      </trkpt>
      <trkpt lat="44.32646" lon="5.16945">
        <ele>545</ele>
        <time>2019-05-03T09:50:23Z</time>
      </trkpt>
      <trkpt lat="44.32638" lon="5.16952">
        <ele>546</ele>
        <time>2019-05-03T09:50:30Z</time>
      </trkpt>
      <trkpt lat="44.32636" lon="5.16977">
        <ele>553</ele>
        <time>2019-05-03T09:50:46Z</time>
      </trkpt>
      <trkpt lat="44.32638" lon="5.1699">
        <ele>554</ele>
        <time>2019-05-03T09:50:54Z</time>
      </trkpt>
      <trkpt lat="44.32645" lon="5.17">
        <ele>556</ele>
        <time>2019-05-03T09:51:00Z</time>
      </trkpt>
      <trkpt lat="44.32639" lon="5.17015">
        <ele>557</ele>
        <time>2019-05-03T09:51:06Z</time>
      </trkpt>
      <trkpt lat="44.32621" lon="5.17031">
        <ele>557</ele>
        <time>2019-05-03T09:51:14Z</time>
      </trkpt>
      <trkpt lat="44.32614" lon="5.17041">
        <ele>557</ele>
        <time>2019-05-03T09:51:18Z</time>
      </trkpt>
      <trkpt lat="44.32594" lon="5.17046">
        <ele>555</ele>
        <time>2019-05-03T09:51:27Z</time>
      </trkpt>
      <trkpt lat="44.32584" lon="5.17041">
        <ele>557</ele>
        <time>2019-05-03T09:51:32Z</time>
      </trkpt>
      <trkpt lat="44.32574" lon="5.17039">
        <ele>557</ele>
        <time>2019-05-03T09:51:37Z</time>
      </trkpt>
      <trkpt lat="44.32565" lon="5.17049">
        <ele>559</ele>
        <time>2019-05-03T09:51:42Z</time>
      </trkpt>
      <trkpt lat="44.3256" lon="5.17062">
        <ele>561</ele>
        <time>2019-05-03T09:51:46Z</time>
      </trkpt>
      <trkpt lat="44.32554" lon="5.17071">
        <ele>562</ele>
        <time>2019-05-03T09:51:50Z</time>
      </trkpt>
      <trkpt lat="44.32549" lon="5.17084">
        <ele>562</ele>
        <time>2019-05-03T09:51:55Z</time>
      </trkpt>
      <trkpt lat="44.32541" lon="5.17093">
        <ele>563</ele>
        <time>2019-05-03T09:52:00Z</time>
      </trkpt>
      <trkpt lat="44.3253" lon="5.17095">
        <ele>565</ele>
        <time>2019-05-03T09:52:05Z</time>
      </trkpt>
      <trkpt lat="44.32523" lon="5.17107">
        <ele>566</ele>
        <time>2019-05-03T09:52:11Z</time>
      </trkpt>
      <trkpt lat="44.32534" lon="5.17131">
        <ele>566</ele>
        <time>2019-05-03T09:52:20Z</time>
      </trkpt>
      <trkpt lat="44.32536" lon="5.17146">
        <ele>567</ele>
        <time>2019-05-03T09:52:27Z</time>
      </trkpt>
      <trkpt lat="44.32526" lon="5.17171">
        <ele>571</ele>
        <time>2019-05-03T09:52:38Z</time>
      </trkpt>
      <trkpt lat="44.3252" lon="5.17181">
        <ele>570</ele>
        <time>2019-05-03T09:52:43Z</time>
      </trkpt>
      <trkpt lat="44.32512" lon="5.17225">
        <ele>574</ele>
        <time>2019-05-03T09:53:01Z</time>
      </trkpt>
      <trkpt lat="44.32511" lon="5.17238">
        <ele>573</ele>
        <time>2019-05-03T09:53:08Z</time>
      </trkpt>
      <trkpt lat="44.32513" lon="5.17265">
        <ele>577</ele>
        <time>2019-05-03T09:53:20Z</time>
      </trkpt>
      <trkpt lat="44.32516" lon="5.17278">
        <ele>577</ele>
        <time>2019-05-03T09:53:26Z</time>
      </trkpt>
      <trkpt lat="44.32518" lon="5.17291">
        <ele>578</ele>
        <time>2019-05-03T09:53:32Z</time>
      </trkpt>
      <trkpt lat="44.32531" lon="5.17313">
        <ele>583</ele>
        <time>2019-05-03T09:53:45Z</time>
      </trkpt>
      <trkpt lat="44.32537" lon="5.17333">
        <ele>587</ele>
        <time>2019-05-03T09:53:55Z</time>
      </trkpt>
      <trkpt lat="44.32544" lon="5.17342">
        <ele>588</ele>
        <time>2019-05-03T09:54:02Z</time>
      </trkpt>
      <trkpt lat="44.32556" lon="5.17363">
        <ele>588</ele>
        <time>2019-05-03T09:54:14Z</time>
      </trkpt>
      <trkpt lat="44.32565" lon="5.17369">
        <ele>589</ele>
        <time>2019-05-03T09:54:20Z</time>
      </trkpt>
      <trkpt lat="44.32571" lon="5.1738">
        <ele>590</ele>
        <time>2019-05-03T09:54:26Z</time>
      </trkpt>
      <trkpt lat="44.32579" lon="5.17408">
        <ele>594</ele>
        <time>2019-05-03T09:54:36Z</time>
      </trkpt>
      <trkpt lat="44.32585" lon="5.17419">
        <ele>595</ele>
        <time>2019-05-03T09:54:40Z</time>
      </trkpt>
      <trkpt lat="44.32586" lon="5.17437">
        <ele>596</ele>
        <time>2019-05-03T09:54:47Z</time>
      </trkpt>
      <trkpt lat="44.32586" lon="5.1745">
        <ele>599</ele>
        <time>2019-05-03T09:54:52Z</time>
      </trkpt>
      <trkpt lat="44.32588" lon="5.17477">
        <ele>600</ele>
        <time>2019-05-03T09:55:04Z</time>
      </trkpt>
      <trkpt lat="44.32593" lon="5.17503">
        <ele>604</ele>
        <time>2019-05-03T09:55:14Z</time>
      </trkpt>
      <trkpt lat="44.32599" lon="5.17513">
        <ele>605</ele>
        <time>2019-05-03T09:55:19Z</time>
      </trkpt>
      <trkpt lat="44.32605" lon="5.17524">
        <ele>606</ele>
        <time>2019-05-03T09:55:25Z</time>
      </trkpt>
      <trkpt lat="44.3261" lon="5.17535">
        <ele>607</ele>
        <time>2019-05-03T09:55:31Z</time>
      </trkpt>
      <trkpt lat="44.32641" lon="5.17553">
        <ele>610</ele>
        <time>2019-05-03T09:55:48Z</time>
      </trkpt>
      <trkpt lat="44.32651" lon="5.17562">
        <ele>614</ele>
        <time>2019-05-03T09:55:54Z</time>
      </trkpt>
      <trkpt lat="44.32657" lon="5.17573">
        <ele>612</ele>
        <time>2019-05-03T09:55:59Z</time>
      </trkpt>
      <trkpt lat="44.32661" lon="5.17606">
        <ele>615</ele>
        <time>2019-05-03T09:56:11Z</time>
      </trkpt>
      <trkpt lat="44.32666" lon="5.17624">
        <ele>615</ele>
        <time>2019-05-03T09:56:19Z</time>
      </trkpt>
      <trkpt lat="44.32683" lon="5.17648">
        <ele>618</ele>
        <time>2019-05-03T09:56:31Z</time>
      </trkpt>
      <trkpt lat="44.32685" lon="5.17663">
        <ele>620</ele>
        <time>2019-05-03T09:56:37Z</time>
      </trkpt>
      <trkpt lat="44.32683" lon="5.17677">
        <ele>620</ele>
        <time>2019-05-03T09:56:42Z</time>
      </trkpt>
      <trkpt lat="44.32674" lon="5.17702">
        <ele>623</ele>
        <time>2019-05-03T09:56:52Z</time>
      </trkpt>
      <trkpt lat="44.32679" lon="5.17724">
        <ele>622</ele>
        <time>2019-05-03T09:57:03Z</time>
      </trkpt>
      <trkpt lat="44.32684" lon="5.17737">
        <ele>624</ele>
        <time>2019-05-03T09:57:09Z</time>
      </trkpt>
      <trkpt lat="44.32686" lon="5.17786">
        <ele>625</ele>
        <time>2019-05-03T09:57:31Z</time>
      </trkpt>
      <trkpt lat="44.32691" lon="5.17796">
        <ele>627</ele>
        <time>2019-05-03T09:57:37Z</time>
      </trkpt>
      <trkpt lat="44.32694" lon="5.17809">
        <ele>626</ele>
        <time>2019-05-03T09:57:44Z</time>
      </trkpt>
      <trkpt lat="44.32694" lon="5.17835">
        <ele>629</ele>
        <time>2019-05-03T09:57:56Z</time>
      </trkpt>
      <trkpt lat="44.32689" lon="5.17848">
        <ele>629</ele>
        <time>2019-05-03T09:58:03Z</time>
      </trkpt>
      <trkpt lat="44.32684" lon="5.1786">
        <ele>629</ele>
        <time>2019-05-03T09:58:09Z</time>
      </trkpt>
      <trkpt lat="44.32678" lon="5.17871">
        <ele>628</ele>
        <time>2019-05-03T09:58:15Z</time>
      </trkpt>
      <trkpt lat="44.32674" lon="5.17884">
        <ele>627</ele>
        <time>2019-05-03T09:58:21Z</time>
      </trkpt>
      <trkpt lat="44.32675" lon="5.17898">
        <ele>629</ele>
        <time>2019-05-03T09:58:27Z</time>
      </trkpt>
      <trkpt lat="44.32679" lon="5.17912">
        <ele>631</ele>
        <time>2019-05-03T09:58:32Z</time>
      </trkpt>
      <trkpt lat="44.32694" lon="5.17938">
        <ele>633</ele>
        <time>2019-05-03T09:58:44Z</time>
      </trkpt>
      <trkpt lat="44.32696" lon="5.17951">
        <ele>634</ele>
        <time>2019-05-03T09:58:49Z</time>
      </trkpt>
      <trkpt lat="44.32691" lon="5.17971">
        <ele>636</ele>
        <time>2019-05-03T09:58:56Z</time>
      </trkpt>
      <trkpt lat="44.32691" lon="5.17983">
        <ele>636</ele>
        <time>2019-05-03T09:59:01Z</time>
      </trkpt>
      <trkpt lat="44.32687" lon="5.17997">
        <ele>635</ele>
        <time>2019-05-03T09:59:06Z</time>
      </trkpt>
      <trkpt lat="44.32688" lon="5.1801">
        <ele>634</ele>
        <time>2019-05-03T09:59:11Z</time>
      </trkpt>
      <trkpt lat="44.32709" lon="5.18054">
        <ele>638</ele>
        <time>2019-05-03T09:59:33Z</time>
      </trkpt>
      <trkpt lat="44.32715" lon="5.18065">
        <ele>638</ele>
        <time>2019-05-03T09:59:39Z</time>
      </trkpt>
      <trkpt lat="44.32722" lon="5.18075">
        <ele>639</ele>
        <time>2019-05-03T09:59:45Z</time>
      </trkpt>
      <trkpt lat="44.32728" lon="5.18115">
        <ele>643</ele>
        <time>2019-05-03T10:00:01Z</time>
      </trkpt>
      <trkpt lat="44.32735" lon="5.18135">
        <ele>649</ele>
        <time>2019-05-03T10:00:10Z</time>
      </trkpt>
      <trkpt lat="44.32732" lon="5.18152">
        <ele>651</ele>
        <time>2019-05-03T10:00:15Z</time>
      </trkpt>
      <trkpt lat="44.32723" lon="5.18161">
        <ele>652</ele>
        <time>2019-05-03T10:00:18Z</time>
      </trkpt>
      <trkpt lat="44.32715" lon="5.18166">
        <ele>652</ele>
        <time>2019-05-03T10:00:21Z</time>
      </trkpt>
      <trkpt lat="44.32707" lon="5.18174">
        <ele>652</ele>
        <time>2019-05-03T10:00:24Z</time>
      </trkpt>
      <trkpt lat="44.3271" lon="5.18187">
        <ele>652</ele>
        <time>2019-05-03T10:00:28Z</time>
      </trkpt>
      <trkpt lat="44.32717" lon="5.18196">
        <ele>653</ele>
        <time>2019-05-03T10:00:33Z</time>
      </trkpt>
      <trkpt lat="44.32726" lon="5.18202">
        <ele>653</ele>
        <time>2019-05-03T10:00:38Z</time>
      </trkpt>
      <trkpt lat="44.32738" lon="5.18209">
        <ele>654</ele>
        <time>2019-05-03T10:00:45Z</time>
      </trkpt>
      <trkpt lat="44.32753" lon="5.18233">
        <ele>654</ele>
        <time>2019-05-03T10:00:57Z</time>
      </trkpt>
      <trkpt lat="44.32758" lon="5.18244">
        <ele>654</ele>
        <time>2019-05-03T10:01:02Z</time>
      </trkpt>
      <trkpt lat="44.32758" lon="5.18257">
        <ele>655</ele>
        <time>2019-05-03T10:01:09Z</time>
      </trkpt>
      <trkpt lat="44.32752" lon="5.18269">
        <ele>657</ele>
        <time>2019-05-03T10:01:16Z</time>
      </trkpt>
      <trkpt lat="44.32748" lon="5.18296">
        <ele>662</ele>
        <time>2019-05-03T10:01:29Z</time>
      </trkpt>
      <trkpt lat="44.32747" lon="5.18309">
        <ele>663</ele>
        <time>2019-05-03T10:01:36Z</time>
      </trkpt>
      <trkpt lat="44.3274" lon="5.18346">
        <ele>667</ele>
        <time>2019-05-03T10:01:55Z</time>
      </trkpt>
      <trkpt lat="44.3274" lon="5.1836">
        <ele>669</ele>
        <time>2019-05-03T10:02:04Z</time>
      </trkpt>
      <trkpt lat="44.32742" lon="5.18375">
        <ele>670</ele>
        <time>2019-05-03T10:02:15Z</time>
      </trkpt>
      <trkpt lat="44.32742" lon="5.18404">
        <ele>674</ele>
        <time>2019-05-03T10:02:28Z</time>
      </trkpt>
      <trkpt lat="44.32745" lon="5.18417">
        <ele>678</ele>
        <time>2019-05-03T10:02:37Z</time>
      </trkpt>
      <trkpt lat="44.32757" lon="5.18439">
        <ele>680</ele>
        <time>2019-05-03T10:02:50Z</time>
      </trkpt>
      <trkpt lat="44.32757" lon="5.18452">
        <ele>681</ele>
        <time>2019-05-03T10:02:57Z</time>
      </trkpt>
      <trkpt lat="44.32759" lon="5.18465">
        <ele>681</ele>
        <time>2019-05-03T10:03:03Z</time>
      </trkpt>
      <trkpt lat="44.32771" lon="5.18485">
        <ele>681</ele>
        <time>2019-05-03T10:03:15Z</time>
      </trkpt>
      <trkpt lat="44.32769" lon="5.18504">
        <ele>681</ele>
        <time>2019-05-03T10:03:19Z</time>
      </trkpt>
      <trkpt lat="44.32767" lon="5.18519">
        <ele>680</ele>
        <time>2019-05-03T10:03:21Z</time>
      </trkpt>
      <trkpt lat="44.32765" lon="5.18548">
        <ele>680</ele>
        <time>2019-05-03T10:03:25Z</time>
      </trkpt>
      <trkpt lat="44.32765" lon="5.18571">
        <ele>682</ele>
        <time>2019-05-03T10:03:35Z</time>
      </trkpt>
      <trkpt lat="44.32766" lon="5.18585">
        <ele>685</ele>
        <time>2019-05-03T10:03:42Z</time>
      </trkpt>
      <trkpt lat="44.32768" lon="5.18597">
        <ele>688</ele>
        <time>2019-05-03T10:03:47Z</time>
      </trkpt>
      <trkpt lat="44.32766" lon="5.1861">
        <ele>690</ele>
        <time>2019-05-03T10:03:53Z</time>
      </trkpt>
      <trkpt lat="44.3277" lon="5.18621">
        <ele>692</ele>
        <time>2019-05-03T10:04:00Z</time>
      </trkpt>
      <trkpt lat="44.32784" lon="5.18643">
        <ele>697</ele>
        <time>2019-05-03T10:04:18Z</time>
      </trkpt>
      <trkpt lat="44.32787" lon="5.18656">
        <ele>699</ele>
        <time>2019-05-03T10:04:26Z</time>
      </trkpt>
      <trkpt lat="44.32789" lon="5.18669">
        <ele>700</ele>
        <time>2019-05-03T10:04:33Z</time>
      </trkpt>
      <trkpt lat="44.32784" lon="5.18708">
        <ele>702</ele>
        <time>2019-05-03T10:04:56Z</time>
      </trkpt>
      <trkpt lat="44.32785" lon="5.18721">
        <ele>702</ele>
        <time>2019-05-03T10:05:02Z</time>
      </trkpt>
      <trkpt lat="44.32802" lon="5.18736">
        <ele>704</ele>
        <time>2019-05-03T10:05:14Z</time>
      </trkpt>
      <trkpt lat="44.32806" lon="5.18748">
        <ele>704</ele>
        <time>2019-05-03T10:05:21Z</time>
      </trkpt>
      <trkpt lat="44.32809" lon="5.1876">
        <ele>703</ele>
        <time>2019-05-03T10:05:40Z</time>
      </trkpt>
      <trkpt lat="44.32808" lon="5.18779">
        <ele>705</ele>
        <time>2019-05-03T10:06:04Z</time>
      </trkpt>
      <trkpt lat="44.32826" lon="5.18798">
        <ele>707</ele>
        <time>2019-05-03T10:06:32Z</time>
      </trkpt>
      <trkpt lat="44.32837" lon="5.18816">
        <ele>712</ele>
        <time>2019-05-03T10:06:54Z</time>
      </trkpt>
      <trkpt lat="44.32837" lon="5.18828">
        <ele>711</ele>
        <time>2019-05-03T10:07:04Z</time>
      </trkpt>
      <trkpt lat="44.32838" lon="5.18845">
        <ele>711</ele>
        <time>2019-05-03T10:07:20Z</time>
      </trkpt>
      <trkpt lat="44.32845" lon="5.18841">
        <ele>720</ele>
        <time>2019-05-03T10:08:17Z</time>
      </trkpt>
      <trkpt lat="44.32843" lon="5.18842">
        <ele>717</ele>
        <time>2019-05-03T10:08:36Z</time>
      </trkpt>
      <trkpt lat="44.32837" lon="5.18852">
        <ele>726</ele>
        <time>2019-05-03T10:09:20Z</time>
      </trkpt>
      <trkpt lat="44.32839" lon="5.18849">
        <ele>718</ele>
        <time>2019-05-03T10:12:42Z</time>
      </trkpt>
      <trkpt lat="44.32828" lon="5.18846">
        <ele>719</ele>
        <time>2019-05-03T10:13:54Z</time>
      </trkpt>
      <trkpt lat="44.32835" lon="5.18841">
        <ele>727</ele>
        <time>2019-05-03T10:17:09Z</time>
      </trkpt>
      <trkpt lat="44.32838" lon="5.18845">
        <ele>727</ele>
        <time>2019-05-03T10:17:42Z</time>
      </trkpt>
      <trkpt lat="44.32828" lon="5.18854">
        <ele>718</ele>
        <time>2019-05-03T10:19:28Z</time>
      </trkpt>
      <trkpt lat="44.32838" lon="5.18857">
        <ele>721</ele>
        <time>2019-05-03T10:20:34Z</time>
      </trkpt>
      <trkpt lat="44.32837" lon="5.18856">
        <ele>731</ele>
        <time>2019-05-03T10:23:06Z</time>
      </trkpt>
      <trkpt lat="44.32837" lon="5.18834">
        <ele>728</ele>
        <time>2019-05-03T10:27:18Z</time>
      </trkpt>
      <trkpt lat="44.32846" lon="5.18839">
        <ele>728</ele>
        <time>2019-05-03T10:28:09Z</time>
      </trkpt>
      <trkpt lat="44.32847" lon="5.18853">
        <ele>730</ele>
        <time>2019-05-03T10:28:15Z</time>
      </trkpt>
      <trkpt lat="44.32853" lon="5.18864">
        <ele>730</ele>
        <time>2019-05-03T10:28:20Z</time>
      </trkpt>
      <trkpt lat="44.32858" lon="5.18887">
        <ele>731</ele>
        <time>2019-05-03T10:28:31Z</time>
      </trkpt>
      <trkpt lat="44.32858" lon="5.18901">
        <ele>733</ele>
        <time>2019-05-03T10:28:37Z</time>
      </trkpt>
      <trkpt lat="44.32863" lon="5.18915">
        <ele>734</ele>
        <time>2019-05-03T10:28:45Z</time>
      </trkpt>
      <trkpt lat="44.3287" lon="5.18924">
        <ele>735</ele>
        <time>2019-05-03T10:28:49Z</time>
      </trkpt>
      <trkpt lat="44.32878" lon="5.18929">
        <ele>734</ele>
        <time>2019-05-03T10:28:52Z</time>
      </trkpt>
      <trkpt lat="44.32887" lon="5.18941">
        <ele>735</ele>
        <time>2019-05-03T10:29:00Z</time>
      </trkpt>
      <trkpt lat="44.32889" lon="5.18955">
        <ele>736</ele>
        <time>2019-05-03T10:29:13Z</time>
      </trkpt>
      <trkpt lat="44.32893" lon="5.18967">
        <ele>735</ele>
        <time>2019-05-03T10:29:20Z</time>
      </trkpt>
      <trkpt lat="44.32902" lon="5.18974">
        <ele>738</ele>
        <time>2019-05-03T10:29:27Z</time>
      </trkpt>
      <trkpt lat="44.32911" lon="5.18974">
        <ele>737</ele>
        <time>2019-05-03T10:29:33Z</time>
      </trkpt>
      <trkpt lat="44.32919" lon="5.1898">
        <ele>738</ele>
        <time>2019-05-03T10:29:41Z</time>
      </trkpt>
      <trkpt lat="44.32926" lon="5.1899">
        <ele>741</ele>
        <time>2019-05-03T10:29:48Z</time>
      </trkpt>
      <trkpt lat="44.32936" lon="5.18994">
        <ele>743</ele>
        <time>2019-05-03T10:29:55Z</time>
      </trkpt>
      <trkpt lat="44.32945" lon="5.1899">
        <ele>741</ele>
        <time>2019-05-03T10:30:04Z</time>
      </trkpt>
      <trkpt lat="44.32954" lon="5.18994">
        <ele>741</ele>
        <time>2019-05-03T10:30:12Z</time>
      </trkpt>
      <trkpt lat="44.32966" lon="5.18995">
        <ele>740</ele>
        <time>2019-05-03T10:30:17Z</time>
      </trkpt>
      <trkpt lat="44.32978" lon="5.18995">
        <ele>741</ele>
        <time>2019-05-03T10:30:26Z</time>
      </trkpt>
      <trkpt lat="44.32986" lon="5.18985">
        <ele>737</ele>
        <time>2019-05-03T10:30:31Z</time>
      </trkpt>
      <trkpt lat="44.32995" lon="5.18976">
        <ele>738</ele>
        <time>2019-05-03T10:30:37Z</time>
      </trkpt>
      <trkpt lat="44.33014" lon="5.18968">
        <ele>739</ele>
        <time>2019-05-03T10:30:51Z</time>
      </trkpt>
      <trkpt lat="44.33016" lon="5.18982">
        <ele>746</ele>
        <time>2019-05-03T10:31:33Z</time>
      </trkpt>
      <trkpt lat="44.33006" lon="5.18989">
        <ele>747</ele>
        <time>2019-05-03T10:31:42Z</time>
      </trkpt>
      <trkpt lat="44.32985" lon="5.18999">
        <ele>746</ele>
        <time>2019-05-03T10:31:51Z</time>
      </trkpt>
      <trkpt lat="44.32977" lon="5.19006">
        <ele>745</ele>
        <time>2019-05-03T10:31:55Z</time>
      </trkpt>
      <trkpt lat="44.32952" lon="5.19025">
        <ele>748</ele>
        <time>2019-05-03T10:32:06Z</time>
      </trkpt>
      <trkpt lat="44.32942" lon="5.19028">
        <ele>749</ele>
        <time>2019-05-03T10:32:11Z</time>
      </trkpt>
      <trkpt lat="44.32928" lon="5.19035">
        <ele>746</ele>
        <time>2019-05-03T10:32:20Z</time>
      </trkpt>
      <trkpt lat="44.32911" lon="5.19032">
        <ele>744</ele>
        <time>2019-05-03T10:32:31Z</time>
      </trkpt>
      <trkpt lat="44.32901" lon="5.19033">
        <ele>744</ele>
        <time>2019-05-03T10:32:38Z</time>
      </trkpt>
      <trkpt lat="44.32887" lon="5.19035">
        <ele>747</ele>
        <time>2019-05-03T10:32:46Z</time>
      </trkpt>
      <trkpt lat="44.32884" lon="5.19046">
        <ele>746</ele>
        <time>2019-05-03T10:33:29Z</time>
      </trkpt>
      <trkpt lat="44.32891" lon="5.19059">
        <ele>747</ele>
        <time>2019-05-03T10:33:54Z</time>
      </trkpt>
      <trkpt lat="44.32897" lon="5.19072">
        <ele>748</ele>
        <time>2019-05-03T10:34:04Z</time>
      </trkpt>
      <trkpt lat="44.32905" lon="5.19079">
        <ele>747</ele>
        <time>2019-05-03T10:34:07Z</time>
      </trkpt>
      <trkpt lat="44.32916" lon="5.19087">
        <ele>746</ele>
        <time>2019-05-03T10:34:10Z</time>
      </trkpt>
      <trkpt lat="44.32926" lon="5.19094">
        <ele>745</ele>
        <time>2019-05-03T10:34:13Z</time>
      </trkpt>
      <trkpt lat="44.32949" lon="5.19103">
        <ele>747</ele>
        <time>2019-05-03T10:34:19Z</time>
      </trkpt>
      <trkpt lat="44.32958" lon="5.19109">
        <ele>748</ele>
        <time>2019-05-03T10:34:23Z</time>
      </trkpt>
      <trkpt lat="44.32964" lon="5.19123">
        <ele>747</ele>
        <time>2019-05-03T10:34:27Z</time>
      </trkpt>
      <trkpt lat="44.32962" lon="5.1914">
        <ele>744</ele>
        <time>2019-05-03T10:34:33Z</time>
      </trkpt>
      <trkpt lat="44.32951" lon="5.19142">
        <ele>743</ele>
        <time>2019-05-03T10:34:38Z</time>
      </trkpt>
      <trkpt lat="44.32944" lon="5.19134">
        <ele>741</ele>
        <time>2019-05-03T10:34:41Z</time>
      </trkpt>
      <trkpt lat="44.32925" lon="5.19124">
        <ele>739</ele>
        <time>2019-05-03T10:34:48Z</time>
      </trkpt>
      <trkpt lat="44.32902" lon="5.19129">
        <ele>737</ele>
        <time>2019-05-03T10:34:55Z</time>
      </trkpt>
      <trkpt lat="44.32904" lon="5.19142">
        <ele>734</ele>
        <time>2019-05-03T10:35:06Z</time>
      </trkpt>
      <trkpt lat="44.3292" lon="5.19159">
        <ele>733</ele>
        <time>2019-05-03T10:35:16Z</time>
      </trkpt>
      <trkpt lat="44.32931" lon="5.19187">
        <ele>732</ele>
        <time>2019-05-03T10:35:26Z</time>
      </trkpt>
      <trkpt lat="44.32937" lon="5.19196">
        <ele>732</ele>
        <time>2019-05-03T10:35:29Z</time>
      </trkpt>
      <trkpt lat="44.32946" lon="5.192">
        <ele>732</ele>
        <time>2019-05-03T10:35:32Z</time>
      </trkpt>
      <trkpt lat="44.32957" lon="5.192">
        <ele>732</ele>
        <time>2019-05-03T10:35:35Z</time>
      </trkpt>
      <trkpt lat="44.32967" lon="5.19208">
        <ele>732</ele>
        <time>2019-05-03T10:35:38Z</time>
      </trkpt>
      <trkpt lat="44.32974" lon="5.19218">
        <ele>732</ele>
        <time>2019-05-03T10:35:42Z</time>
      </trkpt>
      <trkpt lat="44.32977" lon="5.19231">
        <ele>732</ele>
        <time>2019-05-03T10:35:46Z</time>
      </trkpt>
      <trkpt lat="44.32975" lon="5.19245">
        <ele>731</ele>
        <time>2019-05-03T10:35:50Z</time>
      </trkpt>
      <trkpt lat="44.32976" lon="5.19261">
        <ele>730</ele>
        <time>2019-05-03T10:35:54Z</time>
      </trkpt>
      <trkpt lat="44.32979" lon="5.19277">
        <ele>730</ele>
        <time>2019-05-03T10:35:57Z</time>
      </trkpt>
      <trkpt lat="44.32984" lon="5.19287">
        <ele>729</ele>
        <time>2019-05-03T10:35:59Z</time>
      </trkpt>
      <trkpt lat="44.33008" lon="5.19312">
        <ele>729</ele>
        <time>2019-05-03T10:36:05Z</time>
      </trkpt>
      <trkpt lat="44.33023" lon="5.19347">
        <ele>728</ele>
        <time>2019-05-03T10:36:15Z</time>
      </trkpt>
      <trkpt lat="44.3303" lon="5.19366">
        <ele>724</ele>
        <time>2019-05-03T10:36:29Z</time>
      </trkpt>
      <trkpt lat="44.33037" lon="5.19379">
        <ele>725</ele>
        <time>2019-05-03T10:36:35Z</time>
      </trkpt>
      <trkpt lat="44.33057" lon="5.19401">
        <ele>724</ele>
        <time>2019-05-03T10:36:41Z</time>
      </trkpt>
      <trkpt lat="44.33077" lon="5.19414">
        <ele>722</ele>
        <time>2019-05-03T10:36:45Z</time>
      </trkpt>
      <trkpt lat="44.33088" lon="5.19418">
        <ele>722</ele>
        <time>2019-05-03T10:36:48Z</time>
      </trkpt>
      <trkpt lat="44.33097" lon="5.19427">
        <ele>721</ele>
        <time>2019-05-03T10:36:51Z</time>
      </trkpt>
      <trkpt lat="44.33108" lon="5.19454">
        <ele>716</ele>
        <time>2019-05-03T10:36:58Z</time>
      </trkpt>
      <trkpt lat="44.33114" lon="5.1948">
        <ele>710</ele>
        <time>2019-05-03T10:37:05Z</time>
      </trkpt>
      <trkpt lat="44.33124" lon="5.19496">
        <ele>703</ele>
        <time>2019-05-03T10:37:25Z</time>
      </trkpt>
      <trkpt lat="44.33147" lon="5.19515">
        <ele>697</ele>
        <time>2019-05-03T10:37:37Z</time>
      </trkpt>
      <trkpt lat="44.33157" lon="5.19518">
        <ele>697</ele>
        <time>2019-05-03T10:37:41Z</time>
      </trkpt>
      <trkpt lat="44.3317" lon="5.19514">
        <ele>696</ele>
        <time>2019-05-03T10:38:07Z</time>
      </trkpt>
      <trkpt lat="44.33177" lon="5.19506">
        <ele>699</ele>
        <time>2019-05-03T10:38:53Z</time>
      </trkpt>
      <trkpt lat="44.33185" lon="5.19514">
        <ele>695</ele>
        <time>2019-05-03T10:39:17Z</time>
      </trkpt>
      <trkpt lat="44.33196" lon="5.19521">
        <ele>694</ele>
        <time>2019-05-03T10:39:27Z</time>
      </trkpt>
      <trkpt lat="44.33206" lon="5.19521">
        <ele>697</ele>
        <time>2019-05-03T10:39:34Z</time>
      </trkpt>
      <trkpt lat="44.33219" lon="5.19523">
        <ele>699</ele>
        <time>2019-05-03T10:39:57Z</time>
      </trkpt>
      <trkpt lat="44.33232" lon="5.19531">
        <ele>698</ele>
        <time>2019-05-03T10:40:12Z</time>
      </trkpt>
      <trkpt lat="44.33239" lon="5.1954">
        <ele>698</ele>
        <time>2019-05-03T10:40:21Z</time>
      </trkpt>
      <trkpt lat="44.33246" lon="5.19552">
        <ele>700</ele>
        <time>2019-05-03T10:40:38Z</time>
      </trkpt>
      <trkpt lat="44.33252" lon="5.19561">
        <ele>696</ele>
        <time>2019-05-03T10:41:36Z</time>
      </trkpt>
      <trkpt lat="44.33255" lon="5.19574">
        <ele>697</ele>
        <time>2019-05-03T10:41:51Z</time>
      </trkpt>
      <trkpt lat="44.3327" lon="5.19597">
        <ele>696</ele>
        <time>2019-05-03T10:41:59Z</time>
      </trkpt>
      <trkpt lat="44.33278" lon="5.19609">
        <ele>697</ele>
        <time>2019-05-03T10:42:03Z</time>
      </trkpt>
      <trkpt lat="44.33285" lon="5.19616">
        <ele>696</ele>
        <time>2019-05-03T10:42:06Z</time>
      </trkpt>
      <trkpt lat="44.33292" lon="5.19626">
        <ele>698</ele>
        <time>2019-05-03T10:42:10Z</time>
      </trkpt>
      <trkpt lat="44.33298" lon="5.19635">
        <ele>697</ele>
        <time>2019-05-03T10:42:15Z</time>
      </trkpt>
      <trkpt lat="44.33293" lon="5.19655">
        <ele>697</ele>
        <time>2019-05-03T10:42:57Z</time>
      </trkpt>
      <trkpt lat="44.33304" lon="5.19681">
        <ele>696</ele>
        <time>2019-05-03T10:43:01Z</time>
      </trkpt>
      <trkpt lat="44.33375" lon="5.19804">
        <ele>697</ele>
        <time>2019-05-03T10:43:14Z</time>
      </trkpt>
      <trkpt lat="44.33375" lon="5.19824">
        <ele>696</ele>
        <time>2019-05-03T10:43:17Z</time>
      </trkpt>
      <trkpt lat="44.33387" lon="5.19852">
        <ele>698</ele>
        <time>2019-05-03T10:43:22Z</time>
      </trkpt>
      <trkpt lat="44.33384" lon="5.19867">
        <ele>698</ele>
        <time>2019-05-03T10:43:24Z</time>
      </trkpt>
      <trkpt lat="44.3339" lon="5.19886">
        <ele>697</ele>
        <time>2019-05-03T10:43:27Z</time>
      </trkpt>
      <trkpt lat="44.33402" lon="5.19908">
        <ele>695</ele>
        <time>2019-05-03T10:43:32Z</time>
      </trkpt>
      <trkpt lat="44.33401" lon="5.1992">
        <ele>694</ele>
        <time>2019-05-03T10:43:34Z</time>
      </trkpt>
      <trkpt lat="44.33409" lon="5.19927">
        <ele>694</ele>
        <time>2019-05-03T10:43:36Z</time>
      </trkpt>
      <trkpt lat="44.33417" lon="5.19934">
        <ele>694</ele>
        <time>2019-05-03T10:43:39Z</time>
      </trkpt>
      <trkpt lat="44.33426" lon="5.19945">
        <ele>694</ele>
        <time>2019-05-03T10:43:45Z</time>
      </trkpt>
      <trkpt lat="44.3343" lon="5.19958">
        <ele>695</ele>
        <time>2019-05-03T10:43:48Z</time>
      </trkpt>
      <trkpt lat="44.3343" lon="5.19974">
        <ele>695</ele>
        <time>2019-05-03T10:43:51Z</time>
      </trkpt>
      <trkpt lat="44.3343" lon="5.19986">
        <ele>695</ele>
        <time>2019-05-03T10:44:06Z</time>
      </trkpt>
      <trkpt lat="44.3343" lon="5.20001">
        <ele>694</ele>
        <time>2019-05-03T10:44:36Z</time>
      </trkpt>
      <trkpt lat="44.33436" lon="5.20028">
        <ele>695</ele>
        <time>2019-05-03T10:44:42Z</time>
      </trkpt>
      <trkpt lat="44.33447" lon="5.20123">
        <ele>686</ele>
        <time>2019-05-03T10:44:53Z</time>
      </trkpt>
      <trkpt lat="44.33449" lon="5.20144">
        <ele>685</ele>
        <time>2019-05-03T10:44:55Z</time>
      </trkpt>
      <trkpt lat="44.33478" lon="5.20186">
        <ele>685</ele>
        <time>2019-05-03T10:45:00Z</time>
      </trkpt>
      <trkpt lat="44.33484" lon="5.20206">
        <ele>683</ele>
        <time>2019-05-03T10:45:02Z</time>
      </trkpt>
      <trkpt lat="44.3348" lon="5.20248">
        <ele>682</ele>
        <time>2019-05-03T10:45:07Z</time>
      </trkpt>
      <trkpt lat="44.33488" lon="5.20263">
        <ele>683</ele>
        <time>2019-05-03T10:45:09Z</time>
      </trkpt>
      <trkpt lat="44.33484" lon="5.20276">
        <ele>683</ele>
        <time>2019-05-03T10:45:12Z</time>
      </trkpt>
      <trkpt lat="44.3347" lon="5.20284">
        <ele>683</ele>
        <time>2019-05-03T10:45:15Z</time>
      </trkpt>
      <trkpt lat="44.33448" lon="5.20304">
        <ele>683</ele>
        <time>2019-05-03T10:45:19Z</time>
      </trkpt>
      <trkpt lat="44.33437" lon="5.20308">
        <ele>680</ele>
        <time>2019-05-03T10:45:21Z</time>
      </trkpt>
      <trkpt lat="44.33426" lon="5.20306">
        <ele>674</ele>
        <time>2019-05-03T10:45:23Z</time>
      </trkpt>
      <trkpt lat="44.3341" lon="5.20301">
        <ele>676</ele>
        <time>2019-05-03T10:45:25Z</time>
      </trkpt>
      <trkpt lat="44.33402" lon="5.20294">
        <ele>675</ele>
        <time>2019-05-03T10:45:27Z</time>
      </trkpt>
      <trkpt lat="44.33389" lon="5.20294">
        <ele>676</ele>
        <time>2019-05-03T10:45:29Z</time>
      </trkpt>
      <trkpt lat="44.33379" lon="5.20287">
        <ele>674</ele>
        <time>2019-05-03T10:45:31Z</time>
      </trkpt>
      <trkpt lat="44.33356" lon="5.20275">
        <ele>674</ele>
        <time>2019-05-03T10:45:35Z</time>
      </trkpt>
      <trkpt lat="44.3333" lon="5.20273">
        <ele>673</ele>
        <time>2019-05-03T10:45:39Z</time>
      </trkpt>
      <trkpt lat="44.3332" lon="5.20275">
        <ele>674</ele>
        <time>2019-05-03T10:45:41Z</time>
      </trkpt>
      <trkpt lat="44.33307" lon="5.2027">
        <ele>673</ele>
        <time>2019-05-03T10:45:43Z</time>
      </trkpt>
      <trkpt lat="44.33295" lon="5.20267">
        <ele>674</ele>
        <time>2019-05-03T10:45:44Z</time>
      </trkpt>
      <trkpt lat="44.33283" lon="5.20262">
        <ele>674</ele>
        <time>2019-05-03T10:45:46Z</time>
      </trkpt>
      <trkpt lat="44.33271" lon="5.20256">
        <ele>672</ele>
        <time>2019-05-03T10:45:48Z</time>
      </trkpt>
      <trkpt lat="44.3326" lon="5.20249">
        <ele>672</ele>
        <time>2019-05-03T10:45:50Z</time>
      </trkpt>
      <trkpt lat="44.33247" lon="5.20243">
        <ele>670</ele>
        <time>2019-05-03T10:45:53Z</time>
      </trkpt>
      <trkpt lat="44.33231" lon="5.20221">
        <ele>676</ele>
        <time>2019-05-03T10:46:01Z</time>
      </trkpt>
      <trkpt lat="44.33209" lon="5.20211">
        <ele>671</ele>
        <time>2019-05-03T10:46:12Z</time>
      </trkpt>
      <trkpt lat="44.33198" lon="5.20216">
        <ele>671</ele>
        <time>2019-05-03T10:46:17Z</time>
      </trkpt>
      <trkpt lat="44.33186" lon="5.20218">
        <ele>670</ele>
        <time>2019-05-03T10:46:23Z</time>
      </trkpt>
      <trkpt lat="44.33166" lon="5.20216">
        <ele>678</ele>
        <time>2019-05-03T10:46:39Z</time>
      </trkpt>
      <trkpt lat="44.33158" lon="5.20215">
        <ele>677</ele>
        <time>2019-05-03T10:46:44Z</time>
      </trkpt>
      <trkpt lat="44.33147" lon="5.20216">
        <ele>678</ele>
        <time>2019-05-03T10:46:50Z</time>
      </trkpt>
      <trkpt lat="44.33128" lon="5.20212">
        <ele>668</ele>
        <time>2019-05-03T10:47:00Z</time>
      </trkpt>
      <trkpt lat="44.3312" lon="5.20206">
        <ele>668</ele>
        <time>2019-05-03T10:47:04Z</time>
      </trkpt>
      <trkpt lat="44.33112" lon="5.20198">
        <ele>669</ele>
        <time>2019-05-03T10:47:09Z</time>
      </trkpt>
      <trkpt lat="44.33095" lon="5.20181">
        <ele>679</ele>
        <time>2019-05-03T10:47:20Z</time>
      </trkpt>
      <trkpt lat="44.33079" lon="5.20181">
        <ele>684</ele>
        <time>2019-05-03T10:47:30Z</time>
      </trkpt>
      <trkpt lat="44.33073" lon="5.20193">
        <ele>684</ele>
        <time>2019-05-03T10:47:36Z</time>
      </trkpt>
      <trkpt lat="44.33073" lon="5.20208">
        <ele>685</ele>
        <time>2019-05-03T10:47:40Z</time>
      </trkpt>
      <trkpt lat="44.33075" lon="5.20221">
        <ele>685</ele>
        <time>2019-05-03T10:47:44Z</time>
      </trkpt>
      <trkpt lat="44.33076" lon="5.20236">
        <ele>686</ele>
        <time>2019-05-03T10:47:48Z</time>
      </trkpt>
      <trkpt lat="44.33077" lon="5.20248">
        <ele>684</ele>
        <time>2019-05-03T10:47:52Z</time>
      </trkpt>
      <trkpt lat="44.33079" lon="5.20265">
        <ele>686</ele>
        <time>2019-05-03T10:47:56Z</time>
      </trkpt>
      <trkpt lat="44.33072" lon="5.20276">
        <ele>686</ele>
        <time>2019-05-03T10:48:03Z</time>
      </trkpt>
      <trkpt lat="44.33067" lon="5.20289">
        <ele>684</ele>
        <time>2019-05-03T10:48:08Z</time>
      </trkpt>
      <trkpt lat="44.33061" lon="5.20305">
        <ele>686</ele>
        <time>2019-05-03T10:48:15Z</time>
      </trkpt>
      <trkpt lat="44.33062" lon="5.20317">
        <ele>688</ele>
        <time>2019-05-03T10:48:20Z</time>
      </trkpt>
      <trkpt lat="44.33065" lon="5.2033">
        <ele>689</ele>
        <time>2019-05-03T10:48:26Z</time>
      </trkpt>
      <trkpt lat="44.33059" lon="5.20342">
        <ele>687</ele>
        <time>2019-05-03T10:48:32Z</time>
      </trkpt>
      <trkpt lat="44.3306" lon="5.20356">
        <ele>703</ele>
        <time>2019-05-03T10:49:27Z</time>
      </trkpt>
      <trkpt lat="44.33078" lon="5.20347">
        <ele>700</ele>
        <time>2019-05-03T10:49:53Z</time>
      </trkpt>
      <trkpt lat="44.33068" lon="5.20332">
        <ele>698</ele>
        <time>2019-05-03T10:50:08Z</time>
      </trkpt>
      <trkpt lat="44.33075" lon="5.20322">
        <ele>699</ele>
        <time>2019-05-03T10:50:12Z</time>
      </trkpt>
      <trkpt lat="44.33083" lon="5.20315">
        <ele>698</ele>
        <time>2019-05-03T10:50:19Z</time>
      </trkpt>
      <trkpt lat="44.33091" lon="5.20307">
        <ele>697</ele>
        <time>2019-05-03T10:50:26Z</time>
      </trkpt>
      <trkpt lat="44.33098" lon="5.20296">
        <ele>698</ele>
        <time>2019-05-03T10:50:33Z</time>
      </trkpt>
      <trkpt lat="44.33105" lon="5.20272">
        <ele>702</ele>
        <time>2019-05-03T10:50:45Z</time>
      </trkpt>
      <trkpt lat="44.33113" lon="5.20263">
        <ele>702</ele>
        <time>2019-05-03T10:50:52Z</time>
      </trkpt>
      <trkpt lat="44.33122" lon="5.20263">
        <ele>701</ele>
        <time>2019-05-03T10:51:00Z</time>
      </trkpt>
      <trkpt lat="44.33145" lon="5.20288">
        <ele>705</ele>
        <time>2019-05-03T10:51:20Z</time>
      </trkpt>
      <trkpt lat="44.33153" lon="5.20292">
        <ele>705</ele>
        <time>2019-05-03T10:51:25Z</time>
      </trkpt>
      <trkpt lat="44.33164" lon="5.20301">
        <ele>704</ele>
        <time>2019-05-03T10:51:35Z</time>
      </trkpt>
      <trkpt lat="44.33158" lon="5.20291">
        <ele>703</ele>
        <time>2019-05-03T10:52:01Z</time>
      </trkpt>
      <trkpt lat="44.33148" lon="5.20283">
        <ele>703</ele>
        <time>2019-05-03T10:52:04Z</time>
      </trkpt>
      <trkpt lat="44.3314" lon="5.20274">
        <ele>704</ele>
        <time>2019-05-03T10:52:07Z</time>
      </trkpt>
      <trkpt lat="44.33122" lon="5.20259">
        <ele>702</ele>
        <time>2019-05-03T10:52:13Z</time>
      </trkpt>
      <trkpt lat="44.33112" lon="5.20266">
        <ele>702</ele>
        <time>2019-05-03T10:52:45Z</time>
      </trkpt>
      <trkpt lat="44.33106" lon="5.20255">
        <ele>700</ele>
        <time>2019-05-03T10:53:17Z</time>
      </trkpt>
      <trkpt lat="44.33102" lon="5.20268">
        <ele>709</ele>
        <time>2019-05-03T11:53:39Z</time>
      </trkpt>
      <trkpt lat="44.33097" lon="5.20284">
        <ele>708</ele>
        <time>2019-05-03T11:53:44Z</time>
      </trkpt>
      <trkpt lat="44.33093" lon="5.20299">
        <ele>708</ele>
        <time>2019-05-03T11:53:47Z</time>
      </trkpt>
      <trkpt lat="44.33085" lon="5.2031">
        <ele>707</ele>
        <time>2019-05-03T11:53:50Z</time>
      </trkpt>
      <trkpt lat="44.33077" lon="5.20316">
        <ele>706</ele>
        <time>2019-05-03T11:53:53Z</time>
      </trkpt>
      <trkpt lat="44.3307" lon="5.20323">
        <ele>706</ele>
        <time>2019-05-03T11:54:02Z</time>
      </trkpt>
      <trkpt lat="44.33062" lon="5.20329">
        <ele>706</ele>
        <time>2019-05-03T11:54:11Z</time>
      </trkpt>
      <trkpt lat="44.33067" lon="5.20345">
        <ele>707</ele>
        <time>2019-05-03T11:54:24Z</time>
      </trkpt>
      <trkpt lat="44.33065" lon="5.20371">
        <ele>706</ele>
        <time>2019-05-03T11:54:35Z</time>
      </trkpt>
      <trkpt lat="44.33065" lon="5.204">
        <ele>707</ele>
        <time>2019-05-03T11:54:44Z</time>
      </trkpt>
      <trkpt lat="44.3307" lon="5.20414">
        <ele>707</ele>
        <time>2019-05-03T11:54:48Z</time>
      </trkpt>
      <trkpt lat="44.33077" lon="5.20458">
        <ele>707</ele>
        <time>2019-05-03T11:54:59Z</time>
      </trkpt>
      <trkpt lat="44.3308" lon="5.20469">
        <ele>708</ele>
        <time>2019-05-03T11:55:02Z</time>
      </trkpt>
      <trkpt lat="44.33079" lon="5.20499">
        <ele>707</ele>
        <time>2019-05-03T11:55:07Z</time>
      </trkpt>
      <trkpt lat="44.33078" lon="5.20511">
        <ele>706</ele>
        <time>2019-05-03T11:55:09Z</time>
      </trkpt>
      <trkpt lat="44.33079" lon="5.2054">
        <ele>706</ele>
        <time>2019-05-03T11:55:14Z</time>
      </trkpt>
      <trkpt lat="44.33081" lon="5.20554">
        <ele>705</ele>
        <time>2019-05-03T11:55:17Z</time>
      </trkpt>
      <trkpt lat="44.33085" lon="5.2057">
        <ele>705</ele>
        <time>2019-05-03T11:55:20Z</time>
      </trkpt>
      <trkpt lat="44.33088" lon="5.20587">
        <ele>705</ele>
        <time>2019-05-03T11:55:23Z</time>
      </trkpt>
      <trkpt lat="44.33088" lon="5.20619">
        <ele>704</ele>
        <time>2019-05-03T11:55:28Z</time>
      </trkpt>
      <trkpt lat="44.33091" lon="5.20636">
        <ele>703</ele>
        <time>2019-05-03T11:55:31Z</time>
      </trkpt>
      <trkpt lat="44.33098" lon="5.20663">
        <ele>702</ele>
        <time>2019-05-03T11:55:37Z</time>
      </trkpt>
      <trkpt lat="44.33099" lon="5.20695">
        <ele>701</ele>
        <time>2019-05-03T11:55:44Z</time>
      </trkpt>
      <trkpt lat="44.33089" lon="5.20715">
        <ele>700</ele>
        <time>2019-05-03T11:55:46Z</time>
      </trkpt>
      <trkpt lat="44.33077" lon="5.20725">
        <ele>699</ele>
        <time>2019-05-03T11:55:47Z</time>
      </trkpt>
      <trkpt lat="44.33072" lon="5.20741">
        <ele>699</ele>
        <time>2019-05-03T11:55:49Z</time>
      </trkpt>
      <trkpt lat="44.33053" lon="5.20767">
        <ele>701</ele>
        <time>2019-05-03T11:55:53Z</time>
      </trkpt>
      <trkpt lat="44.33041" lon="5.20779">
        <ele>701</ele>
        <time>2019-05-03T11:55:55Z</time>
      </trkpt>
      <trkpt lat="44.33019" lon="5.20797">
        <ele>699</ele>
        <time>2019-05-03T11:55:58Z</time>
      </trkpt>
      <trkpt lat="44.32987" lon="5.2082">
        <ele>698</ele>
        <time>2019-05-03T11:56:02Z</time>
      </trkpt>
      <trkpt lat="44.32978" lon="5.20821">
        <ele>697</ele>
        <time>2019-05-03T11:56:03Z</time>
      </trkpt>
      <trkpt lat="44.32919" lon="5.20836">
        <ele>695</ele>
        <time>2019-05-03T11:56:11Z</time>
      </trkpt>
      <trkpt lat="44.32905" lon="5.20846">
        <ele>692</ele>
        <time>2019-05-03T11:56:14Z</time>
      </trkpt>
      <trkpt lat="44.32891" lon="5.20853">
        <ele>697</ele>
        <time>2019-05-03T11:56:16Z</time>
      </trkpt>
      <trkpt lat="44.32881" lon="5.20857">
        <ele>697</ele>
        <time>2019-05-03T11:56:18Z</time>
      </trkpt>
      <trkpt lat="44.32872" lon="5.20878">
        <ele>697</ele>
        <time>2019-05-03T11:56:20Z</time>
      </trkpt>
      <trkpt lat="44.32861" lon="5.20882">
        <ele>697</ele>
        <time>2019-05-03T11:56:24Z</time>
      </trkpt>
      <trkpt lat="44.32832" lon="5.20893">
        <ele>698</ele>
        <time>2019-05-03T11:56:32Z</time>
      </trkpt>
      <trkpt lat="44.328" lon="5.20905">
        <ele>698</ele>
        <time>2019-05-03T11:56:41Z</time>
      </trkpt>
      <trkpt lat="44.32778" lon="5.20914">
        <ele>696</ele>
        <time>2019-05-03T11:56:47Z</time>
      </trkpt>
      <trkpt lat="44.32743" lon="5.20929">
        <ele>697</ele>
        <time>2019-05-03T11:56:54Z</time>
      </trkpt>
      <trkpt lat="44.32734" lon="5.20935">
        <ele>699</ele>
        <time>2019-05-03T11:56:56Z</time>
      </trkpt>
      <trkpt lat="44.32723" lon="5.20947">
        <ele>699</ele>
        <time>2019-05-03T11:57:00Z</time>
      </trkpt>
      <trkpt lat="44.32701" lon="5.20973">
        <ele>699</ele>
        <time>2019-05-03T11:57:04Z</time>
      </trkpt>
      <trkpt lat="44.32682" lon="5.20997">
        <ele>696</ele>
        <time>2019-05-03T11:57:08Z</time>
      </trkpt>
      <trkpt lat="44.32674" lon="5.21006">
        <ele>696</ele>
        <time>2019-05-03T11:57:09Z</time>
      </trkpt>
      <trkpt lat="44.32659" lon="5.2102">
        <ele>694</ele>
        <time>2019-05-03T11:57:11Z</time>
      </trkpt>
      <trkpt lat="44.3263" lon="5.21041">
        <ele>694</ele>
        <time>2019-05-03T11:57:15Z</time>
      </trkpt>
      <trkpt lat="44.3262" lon="5.21048">
        <ele>693</ele>
        <time>2019-05-03T11:57:16Z</time>
      </trkpt>
      <trkpt lat="44.32594" lon="5.21069">
        <ele>692</ele>
        <time>2019-05-03T11:57:20Z</time>
      </trkpt>
      <trkpt lat="44.32544" lon="5.21127">
        <ele>687</ele>
        <time>2019-05-03T11:57:28Z</time>
      </trkpt>
      <trkpt lat="44.32488" lon="5.2118">
        <ele>690</ele>
        <time>2019-05-03T11:57:40Z</time>
      </trkpt>
      <trkpt lat="44.32472" lon="5.212">
        <ele>688</ele>
        <time>2019-05-03T11:57:44Z</time>
      </trkpt>
      <trkpt lat="44.32464" lon="5.21212">
        <ele>689</ele>
        <time>2019-05-03T11:57:46Z</time>
      </trkpt>
      <trkpt lat="44.32457" lon="5.21224">
        <ele>688</ele>
        <time>2019-05-03T11:57:48Z</time>
      </trkpt>
      <trkpt lat="44.32444" lon="5.21253">
        <ele>687</ele>
        <time>2019-05-03T11:57:52Z</time>
      </trkpt>
      <trkpt lat="44.32438" lon="5.21267">
        <ele>686</ele>
        <time>2019-05-03T11:57:54Z</time>
      </trkpt>
      <trkpt lat="44.32435" lon="5.21282">
        <ele>682</ele>
        <time>2019-05-03T11:57:56Z</time>
      </trkpt>
      <trkpt lat="44.32433" lon="5.21297">
        <ele>682</ele>
        <time>2019-05-03T11:57:58Z</time>
      </trkpt>
      <trkpt lat="44.32432" lon="5.2132">
        <ele>683</ele>
        <time>2019-05-03T11:58:01Z</time>
      </trkpt>
      <trkpt lat="44.32434" lon="5.2134">
        <ele>684</ele>
        <time>2019-05-03T11:58:05Z</time>
      </trkpt>
      <trkpt lat="44.32444" lon="5.21361">
        <ele>688</ele>
        <time>2019-05-03T11:58:12Z</time>
      </trkpt>
      <trkpt lat="44.32462" lon="5.21379">
        <ele>692</ele>
        <time>2019-05-03T11:58:19Z</time>
      </trkpt>
      <trkpt lat="44.3247" lon="5.21385">
        <ele>692</ele>
        <time>2019-05-03T11:58:23Z</time>
      </trkpt>
      <trkpt lat="44.3248" lon="5.21392">
        <ele>693</ele>
        <time>2019-05-03T11:58:27Z</time>
      </trkpt>
      <trkpt lat="44.32492" lon="5.21402">
        <ele>696</ele>
        <time>2019-05-03T11:58:36Z</time>
      </trkpt>
      <trkpt lat="44.32502" lon="5.2141">
        <ele>696</ele>
        <time>2019-05-03T11:58:43Z</time>
      </trkpt>
      <trkpt lat="44.32509" lon="5.21417">
        <ele>696</ele>
        <time>2019-05-03T11:58:48Z</time>
      </trkpt>
      <trkpt lat="44.3255" lon="5.21461">
        <ele>700</ele>
        <time>2019-05-03T11:59:20Z</time>
      </trkpt>
      <trkpt lat="44.32585" lon="5.21503">
        <ele>706</ele>
        <time>2019-05-03T11:59:48Z</time>
      </trkpt>
      <trkpt lat="44.32613" lon="5.21531">
        <ele>716</ele>
        <time>2019-05-03T12:00:08Z</time>
      </trkpt>
      <trkpt lat="44.32622" lon="5.21538">
        <ele>716</ele>
        <time>2019-05-03T12:00:16Z</time>
      </trkpt>
      <trkpt lat="44.32635" lon="5.21557">
        <ele>714</ele>
        <time>2019-05-03T12:00:31Z</time>
      </trkpt>
      <trkpt lat="44.3264" lon="5.21573">
        <ele>713</ele>
        <time>2019-05-03T12:00:36Z</time>
      </trkpt>
      <trkpt lat="44.32643" lon="5.21594">
        <ele>713</ele>
        <time>2019-05-03T12:00:49Z</time>
      </trkpt>
      <trkpt lat="44.32645" lon="5.21613">
        <ele>714</ele>
        <time>2019-05-03T12:00:55Z</time>
      </trkpt>
      <trkpt lat="44.32653" lon="5.21638">
        <ele>714</ele>
        <time>2019-05-03T12:01:04Z</time>
      </trkpt>
      <trkpt lat="44.32657" lon="5.21653">
        <ele>714</ele>
        <time>2019-05-03T12:01:10Z</time>
      </trkpt>
      <trkpt lat="44.32658" lon="5.21673">
        <ele>715</ele>
        <time>2019-05-03T12:01:20Z</time>
      </trkpt>
      <trkpt lat="44.32649" lon="5.21715">
        <ele>718</ele>
        <time>2019-05-03T12:01:33Z</time>
      </trkpt>
      <trkpt lat="44.32646" lon="5.21728">
        <ele>718</ele>
        <time>2019-05-03T12:01:37Z</time>
      </trkpt>
      <trkpt lat="44.32641" lon="5.21742">
        <ele>718</ele>
        <time>2019-05-03T12:01:42Z</time>
      </trkpt>
      <trkpt lat="44.3263" lon="5.21781">
        <ele>723</ele>
        <time>2019-05-03T12:01:57Z</time>
      </trkpt>
      <trkpt lat="44.3263" lon="5.21777">
        <ele>726</ele>
        <time>2019-05-03T12:02:11Z</time>
      </trkpt>
      <trkpt lat="44.32636" lon="5.21768">
        <ele>724</ele>
        <time>2019-05-03T12:02:33Z</time>
      </trkpt>
      <trkpt lat="44.32641" lon="5.21789">
        <ele>725</ele>
        <time>2019-05-03T12:04:10Z</time>
      </trkpt>
      <trkpt lat="44.32652" lon="5.21792">
        <ele>727</ele>
        <time>2019-05-03T12:04:14Z</time>
      </trkpt>
      <trkpt lat="44.32682" lon="5.21771">
        <ele>728</ele>
        <time>2019-05-03T12:04:20Z</time>
      </trkpt>
      <trkpt lat="44.32711" lon="5.21745">
        <ele>724</ele>
        <time>2019-05-03T12:04:26Z</time>
      </trkpt>
      <trkpt lat="44.32731" lon="5.21738">
        <ele>723</ele>
        <time>2019-05-03T12:04:29Z</time>
      </trkpt>
      <trkpt lat="44.32747" lon="5.21735">
        <ele>721</ele>
        <time>2019-05-03T12:04:30Z</time>
      </trkpt>
      <trkpt lat="44.32767" lon="5.21731">
        <ele>721</ele>
        <time>2019-05-03T12:04:32Z</time>
      </trkpt>
      <trkpt lat="44.32775" lon="5.21728">
        <ele>720</ele>
        <time>2019-05-03T12:04:34Z</time>
      </trkpt>
      <trkpt lat="44.3279" lon="5.21692">
        <ele>720</ele>
        <time>2019-05-03T12:04:37Z</time>
      </trkpt>
      <trkpt lat="44.328" lon="5.21657">
        <ele>718</ele>
        <time>2019-05-03T12:04:41Z</time>
      </trkpt>
      <trkpt lat="44.32819" lon="5.2163">
        <ele>714</ele>
        <time>2019-05-03T12:04:44Z</time>
      </trkpt>
      <trkpt lat="44.32837" lon="5.21614">
        <ele>712</ele>
        <time>2019-05-03T12:04:46Z</time>
      </trkpt>
      <trkpt lat="44.32853" lon="5.21604">
        <ele>712</ele>
        <time>2019-05-03T12:04:48Z</time>
      </trkpt>
      <trkpt lat="44.32871" lon="5.21596">
        <ele>711</ele>
        <time>2019-05-03T12:04:50Z</time>
      </trkpt>
      <trkpt lat="44.32883" lon="5.21592">
        <ele>711</ele>
        <time>2019-05-03T12:04:51Z</time>
      </trkpt>
      <trkpt lat="44.32915" lon="5.21583">
        <ele>707</ele>
        <time>2019-05-03T12:04:54Z</time>
      </trkpt>
      <trkpt lat="44.32924" lon="5.21582">
        <ele>707</ele>
        <time>2019-05-03T12:04:55Z</time>
      </trkpt>
      <trkpt lat="44.32954" lon="5.21579">
        <ele>701</ele>
        <time>2019-05-03T12:04:58Z</time>
      </trkpt>
      <trkpt lat="44.32983" lon="5.21576">
        <ele>701</ele>
        <time>2019-05-03T12:05:01Z</time>
      </trkpt>
      <trkpt lat="44.32996" lon="5.21575">
        <ele>700</ele>
        <time>2019-05-03T12:05:02Z</time>
      </trkpt>
      <trkpt lat="44.33035" lon="5.21566">
        <ele>698</ele>
        <time>2019-05-03T12:05:07Z</time>
      </trkpt>
      <trkpt lat="44.33122" lon="5.21517">
        <ele>692</ele>
        <time>2019-05-03T12:05:20Z</time>
      </trkpt>
      <trkpt lat="44.33168" lon="5.21472">
        <ele>689</ele>
        <time>2019-05-03T12:05:28Z</time>
      </trkpt>
      <trkpt lat="44.33221" lon="5.21421">
        <ele>681</ele>
        <time>2019-05-03T12:05:35Z</time>
      </trkpt>
      <trkpt lat="44.33335" lon="5.21344">
        <ele>669</ele>
        <time>2019-05-03T12:05:52Z</time>
      </trkpt>
      <trkpt lat="44.33343" lon="5.21341">
        <ele>668</ele>
        <time>2019-05-03T12:05:54Z</time>
      </trkpt>
      <trkpt lat="44.33372" lon="5.21344">
        <ele>666</ele>
        <time>2019-05-03T12:05:58Z</time>
      </trkpt>
      <trkpt lat="44.33383" lon="5.21347">
        <ele>666</ele>
        <time>2019-05-03T12:06:00Z</time>
      </trkpt>
      <trkpt lat="44.33394" lon="5.2135">
        <ele>667</ele>
        <time>2019-05-03T12:06:02Z</time>
      </trkpt>
      <trkpt lat="44.33421" lon="5.21359">
        <ele>667</ele>
        <time>2019-05-03T12:06:06Z</time>
      </trkpt>
      <trkpt lat="44.33447" lon="5.21368">
        <ele>665</ele>
        <time>2019-05-03T12:06:10Z</time>
      </trkpt>
      <trkpt lat="44.3346" lon="5.21371">
        <ele>665</ele>
        <time>2019-05-03T12:06:12Z</time>
      </trkpt>
      <trkpt lat="44.33473" lon="5.21375">
        <ele>664</ele>
        <time>2019-05-03T12:06:14Z</time>
      </trkpt>
      <trkpt lat="44.33483" lon="5.21381">
        <ele>662</ele>
        <time>2019-05-03T12:06:16Z</time>
      </trkpt>
      <trkpt lat="44.33482" lon="5.21426">
        <ele>658</ele>
        <time>2019-05-03T12:06:19Z</time>
      </trkpt>
      <trkpt lat="44.33483" lon="5.21456">
        <ele>658</ele>
        <time>2019-05-03T12:06:22Z</time>
      </trkpt>
      <trkpt lat="44.33488" lon="5.21473">
        <ele>658</ele>
        <time>2019-05-03T12:06:24Z</time>
      </trkpt>
      <trkpt lat="44.33497" lon="5.21482">
        <ele>659</ele>
        <time>2019-05-03T12:06:27Z</time>
      </trkpt>
      <trkpt lat="44.33528" lon="5.21483">
        <ele>657</ele>
        <time>2019-05-03T12:06:31Z</time>
      </trkpt>
      <trkpt lat="44.33543" lon="5.2148">
        <ele>657</ele>
        <time>2019-05-03T12:06:32Z</time>
      </trkpt>
      <trkpt lat="44.3357" lon="5.21472">
        <ele>649</ele>
        <time>2019-05-03T12:06:36Z</time>
      </trkpt>
      <trkpt lat="44.3364" lon="5.21433">
        <ele>645</ele>
        <time>2019-05-03T12:06:44Z</time>
      </trkpt>
      <trkpt lat="44.33679" lon="5.21402">
        <ele>642</ele>
        <time>2019-05-03T12:06:49Z</time>
      </trkpt>
      <trkpt lat="44.33694" lon="5.21393">
        <ele>643</ele>
        <time>2019-05-03T12:06:51Z</time>
      </trkpt>
      <trkpt lat="44.33707" lon="5.21393">
        <ele>642</ele>
        <time>2019-05-03T12:06:53Z</time>
      </trkpt>
      <trkpt lat="44.33739" lon="5.2139">
        <ele>643</ele>
        <time>2019-05-03T12:06:57Z</time>
      </trkpt>
      <trkpt lat="44.33748" lon="5.21384">
        <ele>642</ele>
        <time>2019-05-03T12:06:58Z</time>
      </trkpt>
      <trkpt lat="44.33759" lon="5.21374">
        <ele>641</ele>
        <time>2019-05-03T12:07:00Z</time>
      </trkpt>
      <trkpt lat="44.33773" lon="5.2136">
        <ele>641</ele>
        <time>2019-05-03T12:07:02Z</time>
      </trkpt>
      <trkpt lat="44.33781" lon="5.21351">
        <ele>641</ele>
        <time>2019-05-03T12:07:03Z</time>
      </trkpt>
      <trkpt lat="44.33818" lon="5.21335">
        <ele>639</ele>
        <time>2019-05-03T12:07:07Z</time>
      </trkpt>
      <trkpt lat="44.33904" lon="5.21322">
        <ele>634</ele>
        <time>2019-05-03T12:07:13Z</time>
      </trkpt>
      <trkpt lat="44.33915" lon="5.21319">
        <ele>632</ele>
        <time>2019-05-03T12:07:15Z</time>
      </trkpt>
      <trkpt lat="44.33946" lon="5.21314">
        <ele>630</ele>
        <time>2019-05-03T12:07:18Z</time>
      </trkpt>
      <trkpt lat="44.33977" lon="5.21321">
        <ele>627</ele>
        <time>2019-05-03T12:07:22Z</time>
      </trkpt>
      <trkpt lat="44.33985" lon="5.21327">
        <ele>623</ele>
        <time>2019-05-03T12:07:26Z</time>
      </trkpt>
      <trkpt lat="44.33993" lon="5.21327">
        <ele>619</ele>
        <time>2019-05-03T12:07:45Z</time>
      </trkpt>
      <trkpt lat="44.33999" lon="5.21314">
        <ele>622</ele>
        <time>2019-05-03T12:08:58Z</time>
      </trkpt>
      <trkpt lat="44.33995" lon="5.21324">
        <ele>616</ele>
        <time>2019-05-03T12:09:51Z</time>
      </trkpt>
      <trkpt lat="44.34" lon="5.21335">
        <ele>617</ele>
        <time>2019-05-03T12:11:51Z</time>
      </trkpt>
      <trkpt lat="44.34007" lon="5.21372">
        <ele>616</ele>
        <time>2019-05-03T12:11:56Z</time>
      </trkpt>
      <trkpt lat="44.33993" lon="5.21418">
        <ele>614</ele>
        <time>2019-05-03T12:12:00Z</time>
      </trkpt>
      <trkpt lat="44.33992" lon="5.2144">
        <ele>614</ele>
        <time>2019-05-03T12:12:02Z</time>
      </trkpt>
      <trkpt lat="44.33993" lon="5.21509">
        <ele>612</ele>
        <time>2019-05-03T12:12:08Z</time>
      </trkpt>
      <trkpt lat="44.33995" lon="5.2153">
        <ele>611</ele>
        <time>2019-05-03T12:12:10Z</time>
      </trkpt>
      <trkpt lat="44.33998" lon="5.21544">
        <ele>611</ele>
        <time>2019-05-03T12:12:11Z</time>
      </trkpt>
      <trkpt lat="44.33997" lon="5.21567">
        <ele>610</ele>
        <time>2019-05-03T12:12:13Z</time>
      </trkpt>
      <trkpt lat="44.33994" lon="5.21584">
        <ele>609</ele>
        <time>2019-05-03T12:12:15Z</time>
      </trkpt>
      <trkpt lat="44.33991" lon="5.21609">
        <ele>609</ele>
        <time>2019-05-03T12:12:17Z</time>
      </trkpt>
      <trkpt lat="44.33993" lon="5.2162">
        <ele>608</ele>
        <time>2019-05-03T12:12:19Z</time>
      </trkpt>
      <trkpt lat="44.33996" lon="5.21642">
        <ele>608</ele>
        <time>2019-05-03T12:12:22Z</time>
      </trkpt>
      <trkpt lat="44.33991" lon="5.21666">
        <ele>605</ele>
        <time>2019-05-03T12:12:25Z</time>
      </trkpt>
      <trkpt lat="44.3397" lon="5.217">
        <ele>608</ele>
        <time>2019-05-03T12:12:30Z</time>
      </trkpt>
      <trkpt lat="44.33953" lon="5.21732">
        <ele>606</ele>
        <time>2019-05-03T12:12:34Z</time>
      </trkpt>
      <trkpt lat="44.33945" lon="5.21756">
        <ele>606</ele>
        <time>2019-05-03T12:12:36Z</time>
      </trkpt>
      <trkpt lat="44.33937" lon="5.21772">
        <ele>606</ele>
        <time>2019-05-03T12:12:38Z</time>
      </trkpt>
      <trkpt lat="44.33929" lon="5.21786">
        <ele>604</ele>
        <time>2019-05-03T12:12:40Z</time>
      </trkpt>
      <trkpt lat="44.33925" lon="5.21803">
        <ele>604</ele>
        <time>2019-05-03T12:12:42Z</time>
      </trkpt>
      <trkpt lat="44.33925" lon="5.21825">
        <ele>604</ele>
        <time>2019-05-03T12:12:44Z</time>
      </trkpt>
      <trkpt lat="44.33925" lon="5.21842">
        <ele>603</ele>
        <time>2019-05-03T12:12:45Z</time>
      </trkpt>
      <trkpt lat="44.33929" lon="5.21855">
        <ele>602</ele>
        <time>2019-05-03T12:12:48Z</time>
      </trkpt>
      <trkpt lat="44.33932" lon="5.21876">
        <ele>602</ele>
        <time>2019-05-03T12:12:50Z</time>
      </trkpt>
      <trkpt lat="44.33926" lon="5.21925">
        <ele>598</ele>
        <time>2019-05-03T12:12:58Z</time>
      </trkpt>
      <trkpt lat="44.33924" lon="5.21943">
        <ele>598</ele>
        <time>2019-05-03T12:13:01Z</time>
      </trkpt>
      <trkpt lat="44.33924" lon="5.21957">
        <ele>598</ele>
        <time>2019-05-03T12:13:02Z</time>
      </trkpt>
      <trkpt lat="44.33954" lon="5.21973">
        <ele>599</ele>
        <time>2019-05-03T12:13:04Z</time>
      </trkpt>
      <trkpt lat="44.33971" lon="5.21975">
        <ele>598</ele>
        <time>2019-05-03T12:13:07Z</time>
      </trkpt>
      <trkpt lat="44.33984" lon="5.21986">
        <ele>592</ele>
        <time>2019-05-03T12:13:13Z</time>
      </trkpt>
      <trkpt lat="44.3398" lon="5.22004">
        <ele>590</ele>
        <time>2019-05-03T12:13:19Z</time>
      </trkpt>
      <trkpt lat="44.33971" lon="5.22032">
        <ele>590</ele>
        <time>2019-05-03T12:13:22Z</time>
      </trkpt>
      <trkpt lat="44.33993" lon="5.22029">
        <ele>591</ele>
        <time>2019-05-03T12:13:24Z</time>
      </trkpt>
      <trkpt lat="44.34004" lon="5.22019">
        <ele>590</ele>
        <time>2019-05-03T12:13:26Z</time>
      </trkpt>
      <trkpt lat="44.34015" lon="5.22008">
        <ele>589</ele>
        <time>2019-05-03T12:13:29Z</time>
      </trkpt>
      <trkpt lat="44.34026" lon="5.21997">
        <ele>588</ele>
        <time>2019-05-03T12:13:31Z</time>
      </trkpt>
      <trkpt lat="44.34039" lon="5.21992">
        <ele>588</ele>
        <time>2019-05-03T12:13:34Z</time>
      </trkpt>
      <trkpt lat="44.34057" lon="5.2199">
        <ele>594</ele>
        <time>2019-05-03T12:14:16Z</time>
      </trkpt>
      <trkpt lat="44.34067" lon="5.2199">
        <ele>595</ele>
        <time>2019-05-03T12:14:21Z</time>
      </trkpt>
      <trkpt lat="44.34088" lon="5.21992">
        <ele>594</ele>
        <time>2019-05-03T12:14:26Z</time>
      </trkpt>
      <trkpt lat="44.34109" lon="5.21993">
        <ele>593</ele>
        <time>2019-05-03T12:14:30Z</time>
      </trkpt>
      <trkpt lat="44.34137" lon="5.21983">
        <ele>590</ele>
        <time>2019-05-03T12:14:36Z</time>
      </trkpt>
      <trkpt lat="44.34163" lon="5.2199">
        <ele>591</ele>
        <time>2019-05-03T12:14:42Z</time>
      </trkpt>
      <trkpt lat="44.34172" lon="5.21992">
        <ele>592</ele>
        <time>2019-05-03T12:14:45Z</time>
      </trkpt>
      <trkpt lat="44.34185" lon="5.21992">
        <ele>594</ele>
        <time>2019-05-03T12:14:49Z</time>
      </trkpt>
      <trkpt lat="44.34195" lon="5.21982">
        <ele>595</ele>
        <time>2019-05-03T12:14:52Z</time>
      </trkpt>
      <trkpt lat="44.34197" lon="5.21968">
        <ele>595</ele>
        <time>2019-05-03T12:14:54Z</time>
      </trkpt>
      <trkpt lat="44.34206" lon="5.21941">
        <ele>594</ele>
        <time>2019-05-03T12:14:58Z</time>
      </trkpt>
      <trkpt lat="44.34211" lon="5.21929">
        <ele>593</ele>
        <time>2019-05-03T12:15:00Z</time>
      </trkpt>
      <trkpt lat="44.34217" lon="5.2192">
        <ele>591</ele>
        <time>2019-05-03T12:15:03Z</time>
      </trkpt>
      <trkpt lat="44.34238" lon="5.21917">
        <ele>590</ele>
        <time>2019-05-03T12:15:07Z</time>
      </trkpt>
      <trkpt lat="44.34268" lon="5.21922">
        <ele>593</ele>
        <time>2019-05-03T12:15:13Z</time>
      </trkpt>
      <trkpt lat="44.34278" lon="5.2192">
        <ele>592</ele>
        <time>2019-05-03T12:15:15Z</time>
      </trkpt>
      <trkpt lat="44.34288" lon="5.21913">
        <ele>593</ele>
        <time>2019-05-03T12:15:17Z</time>
      </trkpt>
      <trkpt lat="44.34297" lon="5.21904">
        <ele>592</ele>
        <time>2019-05-03T12:15:20Z</time>
      </trkpt>
      <trkpt lat="44.34334" lon="5.21877">
        <ele>595</ele>
        <time>2019-05-03T12:15:32Z</time>
      </trkpt>
      <trkpt lat="44.34367" lon="5.21866">
        <ele>596</ele>
        <time>2019-05-03T12:15:42Z</time>
      </trkpt>
      <trkpt lat="44.34379" lon="5.2187">
        <ele>596</ele>
        <time>2019-05-03T12:15:47Z</time>
      </trkpt>
      <trkpt lat="44.34391" lon="5.21878">
        <ele>597</ele>
        <time>2019-05-03T12:15:51Z</time>
      </trkpt>
      <trkpt lat="44.34403" lon="5.21876">
        <ele>599</ele>
        <time>2019-05-03T12:15:54Z</time>
      </trkpt>
      <trkpt lat="44.34414" lon="5.21866">
        <ele>600</ele>
        <time>2019-05-03T12:15:56Z</time>
      </trkpt>
      <trkpt lat="44.34431" lon="5.21854">
        <ele>598</ele>
        <time>2019-05-03T12:16:00Z</time>
      </trkpt>
      <trkpt lat="44.34444" lon="5.21855">
        <ele>596</ele>
        <time>2019-05-03T12:16:03Z</time>
      </trkpt>
      <trkpt lat="44.34452" lon="5.21862">
        <ele>596</ele>
        <time>2019-05-03T12:16:05Z</time>
      </trkpt>
      <trkpt lat="44.34469" lon="5.2188">
        <ele>594</ele>
        <time>2019-05-03T12:16:09Z</time>
      </trkpt>
      <trkpt lat="44.34475" lon="5.21891">
        <ele>594</ele>
        <time>2019-05-03T12:16:11Z</time>
      </trkpt>
      <trkpt lat="44.34478" lon="5.21911">
        <ele>593</ele>
        <time>2019-05-03T12:16:13Z</time>
      </trkpt>
      <trkpt lat="44.34492" lon="5.21928">
        <ele>593</ele>
        <time>2019-05-03T12:16:16Z</time>
      </trkpt>
      <trkpt lat="44.34503" lon="5.21932">
        <ele>591</ele>
        <time>2019-05-03T12:16:17Z</time>
      </trkpt>
      <trkpt lat="44.34515" lon="5.21938">
        <ele>588</ele>
        <time>2019-05-03T12:16:19Z</time>
      </trkpt>
      <trkpt lat="44.34529" lon="5.21945">
        <ele>588</ele>
        <time>2019-05-03T12:16:21Z</time>
      </trkpt>
      <trkpt lat="44.34541" lon="5.21949">
        <ele>587</ele>
        <time>2019-05-03T12:16:23Z</time>
      </trkpt>
      <trkpt lat="44.34567" lon="5.21943">
        <ele>587</ele>
        <time>2019-05-03T12:16:25Z</time>
      </trkpt>
      <trkpt lat="44.34592" lon="5.21935">
        <ele>582</ele>
        <time>2019-05-03T12:16:29Z</time>
      </trkpt>
      <trkpt lat="44.34606" lon="5.21945">
        <ele>582</ele>
        <time>2019-05-03T12:16:31Z</time>
      </trkpt>
      <trkpt lat="44.34617" lon="5.21957">
        <ele>581</ele>
        <time>2019-05-03T12:16:33Z</time>
      </trkpt>
      <trkpt lat="44.34646" lon="5.21957">
        <ele>577</ele>
        <time>2019-05-03T12:16:36Z</time>
      </trkpt>
      <trkpt lat="44.34673" lon="5.21948">
        <ele>572</ele>
        <time>2019-05-03T12:16:39Z</time>
      </trkpt>
      <trkpt lat="44.3469" lon="5.21943">
        <ele>571</ele>
        <time>2019-05-03T12:16:41Z</time>
      </trkpt>
      <trkpt lat="44.3471" lon="5.2193">
        <ele>572</ele>
        <time>2019-05-03T12:16:44Z</time>
      </trkpt>
      <trkpt lat="44.34725" lon="5.21923">
        <ele>571</ele>
        <time>2019-05-03T12:16:46Z</time>
      </trkpt>
      <trkpt lat="44.34736" lon="5.21925">
        <ele>570</ele>
        <time>2019-05-03T12:16:48Z</time>
      </trkpt>
      <trkpt lat="44.34746" lon="5.21934">
        <ele>570</ele>
        <time>2019-05-03T12:16:50Z</time>
      </trkpt>
      <trkpt lat="44.34774" lon="5.21976">
        <ele>565</ele>
        <time>2019-05-03T12:16:56Z</time>
      </trkpt>
      <trkpt lat="44.34812" lon="5.22023">
        <ele>566</ele>
        <time>2019-05-03T12:17:04Z</time>
      </trkpt>
      <trkpt lat="44.34822" lon="5.22029">
        <ele>566</ele>
        <time>2019-05-03T12:17:06Z</time>
      </trkpt>
      <trkpt lat="44.34831" lon="5.22031">
        <ele>569</ele>
        <time>2019-05-03T12:17:08Z</time>
      </trkpt>
      <trkpt lat="44.34841" lon="5.22029">
        <ele>567</ele>
        <time>2019-05-03T12:17:10Z</time>
      </trkpt>
      <trkpt lat="44.34852" lon="5.22028">
        <ele>568</ele>
        <time>2019-05-03T12:17:12Z</time>
      </trkpt>
      <trkpt lat="44.34873" lon="5.22025">
        <ele>568</ele>
        <time>2019-05-03T12:17:16Z</time>
      </trkpt>
      <trkpt lat="44.34863" lon="5.22033">
        <ele>567</ele>
        <time>2019-05-03T12:19:15Z</time>
      </trkpt>
      <trkpt lat="44.34866" lon="5.22047">
        <ele>567</ele>
        <time>2019-05-03T12:19:19Z</time>
      </trkpt>
      <trkpt lat="44.34876" lon="5.22058">
        <ele>565</ele>
        <time>2019-05-03T12:19:21Z</time>
      </trkpt>
      <trkpt lat="44.34911" lon="5.2207">
        <ele>560</ele>
        <time>2019-05-03T12:19:25Z</time>
      </trkpt>
      <trkpt lat="44.34979" lon="5.22134">
        <ele>550</ele>
        <time>2019-05-03T12:19:34Z</time>
      </trkpt>
      <trkpt lat="44.34989" lon="5.22141">
        <ele>550</ele>
        <time>2019-05-03T12:19:35Z</time>
      </trkpt>
      <trkpt lat="44.34996" lon="5.22149">
        <ele>549</ele>
        <time>2019-05-03T12:19:36Z</time>
      </trkpt>
      <trkpt lat="44.35005" lon="5.22166">
        <ele>546</ele>
        <time>2019-05-03T12:19:38Z</time>
      </trkpt>
      <trkpt lat="44.35002" lon="5.22182">
        <ele>544</ele>
        <time>2019-05-03T12:19:40Z</time>
      </trkpt>
      <trkpt lat="44.35003" lon="5.22223">
        <ele>546</ele>
        <time>2019-05-03T12:19:44Z</time>
      </trkpt>
      <trkpt lat="44.35005" lon="5.22254">
        <ele>549</ele>
        <time>2019-05-03T12:19:47Z</time>
      </trkpt>
      <trkpt lat="44.35038" lon="5.22244">
        <ele>550</ele>
        <time>2019-05-03T12:19:51Z</time>
      </trkpt>
      <trkpt lat="44.3505" lon="5.22234">
        <ele>548</ele>
        <time>2019-05-03T12:19:53Z</time>
      </trkpt>
      <trkpt lat="44.3507" lon="5.22217">
        <ele>549</ele>
        <time>2019-05-03T12:19:57Z</time>
      </trkpt>
      <trkpt lat="44.35083" lon="5.2221">
        <ele>549</ele>
        <time>2019-05-03T12:19:59Z</time>
      </trkpt>
      <trkpt lat="44.35106" lon="5.222">
        <ele>547</ele>
        <time>2019-05-03T12:20:03Z</time>
      </trkpt>
      <trkpt lat="44.35126" lon="5.22196">
        <ele>549</ele>
        <time>2019-05-03T12:20:06Z</time>
      </trkpt>
      <trkpt lat="44.35159" lon="5.22199">
        <ele>548</ele>
        <time>2019-05-03T12:20:10Z</time>
      </trkpt>
      <trkpt lat="44.35181" lon="5.22206">
        <ele>546</ele>
        <time>2019-05-03T12:20:15Z</time>
      </trkpt>
      <trkpt lat="44.352" lon="5.22218">
        <ele>542</ele>
        <time>2019-05-03T12:20:20Z</time>
      </trkpt>
      <trkpt lat="44.35205" lon="5.22231">
        <ele>541</ele>
        <time>2019-05-03T12:20:23Z</time>
      </trkpt>
      <trkpt lat="44.35205" lon="5.22248">
        <ele>539</ele>
        <time>2019-05-03T12:20:25Z</time>
      </trkpt>
      <trkpt lat="44.35205" lon="5.22262">
        <ele>540</ele>
        <time>2019-05-03T12:20:26Z</time>
      </trkpt>
      <trkpt lat="44.35221" lon="5.22326">
        <ele>536</ele>
        <time>2019-05-03T12:20:31Z</time>
      </trkpt>
      <trkpt lat="44.35229" lon="5.22353">
        <ele>532</ele>
        <time>2019-05-03T12:20:35Z</time>
      </trkpt>
      <trkpt lat="44.35231" lon="5.22373">
        <ele>532</ele>
        <time>2019-05-03T12:20:37Z</time>
      </trkpt>
      <trkpt lat="44.35233" lon="5.22393">
        <ele>531</ele>
        <time>2019-05-03T12:20:39Z</time>
      </trkpt>
      <trkpt lat="44.35253" lon="5.22428">
        <ele>531</ele>
        <time>2019-05-03T12:20:42Z</time>
      </trkpt>
      <trkpt lat="44.35289" lon="5.22444">
        <ele>528</ele>
        <time>2019-05-03T12:20:46Z</time>
      </trkpt>
      <trkpt lat="44.35306" lon="5.22458">
        <ele>525</ele>
        <time>2019-05-03T12:20:49Z</time>
      </trkpt>
      <trkpt lat="44.35326" lon="5.2247">
        <ele>523</ele>
        <time>2019-05-03T12:20:51Z</time>
      </trkpt>
      <trkpt lat="44.35346" lon="5.22477">
        <ele>519</ele>
        <time>2019-05-03T12:20:54Z</time>
      </trkpt>
      <trkpt lat="44.35386" lon="5.22474">
        <ele>519</ele>
        <time>2019-05-03T12:20:59Z</time>
      </trkpt>
      <trkpt lat="44.35399" lon="5.22479">
        <ele>518</ele>
        <time>2019-05-03T12:21:01Z</time>
      </trkpt>
      <trkpt lat="44.35408" lon="5.22482">
        <ele>518</ele>
        <time>2019-05-03T12:21:03Z</time>
      </trkpt>
      <trkpt lat="44.35421" lon="5.22482">
        <ele>518</ele>
        <time>2019-05-03T12:21:04Z</time>
      </trkpt>
      <trkpt lat="44.35432" lon="5.22476">
        <ele>516</ele>
        <time>2019-05-03T12:21:06Z</time>
      </trkpt>
      <trkpt lat="44.35454" lon="5.22452">
        <ele>514</ele>
        <time>2019-05-03T12:21:09Z</time>
      </trkpt>
      <trkpt lat="44.35481" lon="5.22436">
        <ele>515</ele>
        <time>2019-05-03T12:21:13Z</time>
      </trkpt>
      <trkpt lat="44.355" lon="5.22423">
        <ele>514</ele>
        <time>2019-05-03T12:21:15Z</time>
      </trkpt>
      <trkpt lat="44.35524" lon="5.22411">
        <ele>511</ele>
        <time>2019-05-03T12:21:18Z</time>
      </trkpt>
      <trkpt lat="44.35538" lon="5.22407">
        <ele>510</ele>
        <time>2019-05-03T12:21:20Z</time>
      </trkpt>
      <trkpt lat="44.3555" lon="5.22407">
        <ele>509</ele>
        <time>2019-05-03T12:21:22Z</time>
      </trkpt>
      <trkpt lat="44.35614" lon="5.22449">
        <ele>506</ele>
        <time>2019-05-03T12:21:31Z</time>
      </trkpt>
      <trkpt lat="44.35627" lon="5.22453">
        <ele>504</ele>
        <time>2019-05-03T12:21:33Z</time>
      </trkpt>
      <trkpt lat="44.35641" lon="5.22452">
        <ele>504</ele>
        <time>2019-05-03T12:21:34Z</time>
      </trkpt>
      <trkpt lat="44.35654" lon="5.2245">
        <ele>500</ele>
        <time>2019-05-03T12:21:36Z</time>
      </trkpt>
      <trkpt lat="44.35668" lon="5.22448">
        <ele>499</ele>
        <time>2019-05-03T12:21:38Z</time>
      </trkpt>
      <trkpt lat="44.35709" lon="5.22443">
        <ele>499</ele>
        <time>2019-05-03T12:21:44Z</time>
      </trkpt>
      <trkpt lat="44.35721" lon="5.22442">
        <ele>499</ele>
        <time>2019-05-03T12:21:46Z</time>
      </trkpt>
      <trkpt lat="44.35757" lon="5.22438">
        <ele>500</ele>
        <time>2019-05-03T12:21:54Z</time>
      </trkpt>
      <trkpt lat="44.3577" lon="5.22441">
        <ele>500</ele>
        <time>2019-05-03T12:21:58Z</time>
      </trkpt>
      <trkpt lat="44.35794" lon="5.22456">
        <ele>502</ele>
        <time>2019-05-03T12:22:08Z</time>
      </trkpt>
      <trkpt lat="44.35813" lon="5.22461">
        <ele>501</ele>
        <time>2019-05-03T12:22:27Z</time>
      </trkpt>
      <trkpt lat="44.35808" lon="5.22432">
        <ele>505</ele>
        <time>2019-05-03T12:22:48Z</time>
      </trkpt>
      <trkpt lat="44.35804" lon="5.22436">
        <ele>508</ele>
        <time>2019-05-03T12:24:51Z</time>
      </trkpt>
      <trkpt lat="44.35807" lon="5.22452">
        <ele>502</ele>
        <time>2019-05-03T12:25:46Z</time>
      </trkpt>
      <trkpt lat="44.35801" lon="5.22462">
        <ele>503</ele>
        <time>2019-05-03T12:25:53Z</time>
      </trkpt>
      <trkpt lat="44.35803" lon="5.22475">
        <ele>504</ele>
        <time>2019-05-03T12:25:58Z</time>
      </trkpt>
      <trkpt lat="44.35807" lon="5.22523">
        <ele>500</ele>
        <time>2019-05-03T12:26:08Z</time>
      </trkpt>
      <trkpt lat="44.35804" lon="5.22537">
        <ele>500</ele>
        <time>2019-05-03T12:26:10Z</time>
      </trkpt>
      <trkpt lat="44.358" lon="5.22554">
        <ele>500</ele>
        <time>2019-05-03T12:26:12Z</time>
      </trkpt>
      <trkpt lat="44.35804" lon="5.22573">
        <ele>500</ele>
        <time>2019-05-03T12:26:14Z</time>
      </trkpt>
      <trkpt lat="44.35814" lon="5.22592">
        <ele>499</ele>
        <time>2019-05-03T12:26:17Z</time>
      </trkpt>
      <trkpt lat="44.35827" lon="5.22613">
        <ele>495</ele>
        <time>2019-05-03T12:26:23Z</time>
      </trkpt>
      <trkpt lat="44.35831" lon="5.22626">
        <ele>496</ele>
        <time>2019-05-03T12:26:25Z</time>
      </trkpt>
      <trkpt lat="44.35836" lon="5.22639">
        <ele>495</ele>
        <time>2019-05-03T12:26:27Z</time>
      </trkpt>
      <trkpt lat="44.35879" lon="5.22694">
        <ele>495</ele>
        <time>2019-05-03T12:26:40Z</time>
      </trkpt>
      <trkpt lat="44.35885" lon="5.2271">
        <ele>494</ele>
        <time>2019-05-03T12:26:43Z</time>
      </trkpt>
      <trkpt lat="44.35888" lon="5.22725">
        <ele>495</ele>
        <time>2019-05-03T12:26:46Z</time>
      </trkpt>
      <trkpt lat="44.35895" lon="5.22821">
        <ele>491</ele>
        <time>2019-05-03T12:27:00Z</time>
      </trkpt>
      <trkpt lat="44.35899" lon="5.22872">
        <ele>492</ele>
        <time>2019-05-03T12:27:08Z</time>
      </trkpt>
      <trkpt lat="44.35899" lon="5.22906">
        <ele>490</ele>
        <time>2019-05-03T12:27:13Z</time>
      </trkpt>
      <trkpt lat="44.35896" lon="5.22923">
        <ele>488</ele>
        <time>2019-05-03T12:27:15Z</time>
      </trkpt>
      <trkpt lat="44.35892" lon="5.22935">
        <ele>486</ele>
        <time>2019-05-03T12:27:18Z</time>
      </trkpt>
      <trkpt lat="44.35904" lon="5.2296">
        <ele>487</ele>
        <time>2019-05-03T12:27:19Z</time>
      </trkpt>
      <trkpt lat="44.3593" lon="5.22961">
        <ele>486</ele>
        <time>2019-05-03T12:27:23Z</time>
      </trkpt>
      <trkpt lat="44.35948" lon="5.2295">
        <ele>486</ele>
        <time>2019-05-03T12:27:26Z</time>
      </trkpt>
      <trkpt lat="44.35974" lon="5.22932">
        <ele>489</ele>
        <time>2019-05-03T12:27:35Z</time>
      </trkpt>
      <trkpt lat="44.35993" lon="5.2292">
        <ele>488</ele>
        <time>2019-05-03T12:27:40Z</time>
      </trkpt>
      <trkpt lat="44.36004" lon="5.22917">
        <ele>488</ele>
        <time>2019-05-03T12:27:43Z</time>
      </trkpt>
      <trkpt lat="44.36014" lon="5.22916">
        <ele>487</ele>
        <time>2019-05-03T12:28:15Z</time>
      </trkpt>
      <trkpt lat="44.36046" lon="5.22897">
        <ele>486</ele>
        <time>2019-05-03T12:30:37Z</time>
      </trkpt>
      <trkpt lat="44.36054" lon="5.22906">
        <ele>485</ele>
        <time>2019-05-03T12:30:39Z</time>
      </trkpt>
      <trkpt lat="44.36043" lon="5.22955">
        <ele>484</ele>
        <time>2019-05-03T12:30:43Z</time>
      </trkpt>
      <trkpt lat="44.36051" lon="5.22983">
        <ele>484</ele>
        <time>2019-05-03T12:30:47Z</time>
      </trkpt>
      <trkpt lat="44.36061" lon="5.23027">
        <ele>482</ele>
        <time>2019-05-03T12:30:52Z</time>
      </trkpt>
      <trkpt lat="44.36069" lon="5.23046">
        <ele>481</ele>
        <time>2019-05-03T12:30:54Z</time>
      </trkpt>
      <trkpt lat="44.3609" lon="5.23048">
        <ele>481</ele>
        <time>2019-05-03T12:30:56Z</time>
      </trkpt>
      <trkpt lat="44.36115" lon="5.2303">
        <ele>481</ele>
        <time>2019-05-03T12:30:59Z</time>
      </trkpt>
      <trkpt lat="44.36213" lon="5.23025">
        <ele>472</ele>
        <time>2019-05-03T12:31:10Z</time>
      </trkpt>
      <trkpt lat="44.36232" lon="5.23023">
        <ele>472</ele>
        <time>2019-05-03T12:31:12Z</time>
      </trkpt>
      <trkpt lat="44.36241" lon="5.23018">
        <ele>471</ele>
        <time>2019-05-03T12:31:13Z</time>
      </trkpt>
      <trkpt lat="44.36253" lon="5.23011">
        <ele>471</ele>
        <time>2019-05-03T12:31:14Z</time>
      </trkpt>
      <trkpt lat="44.36261" lon="5.23004">
        <ele>471</ele>
        <time>2019-05-03T12:31:15Z</time>
      </trkpt>
      <trkpt lat="44.3628" lon="5.2299">
        <ele>468</ele>
        <time>2019-05-03T12:31:17Z</time>
      </trkpt>
      <trkpt lat="44.36344" lon="5.22942">
        <ele>467</ele>
        <time>2019-05-03T12:31:26Z</time>
      </trkpt>
      <trkpt lat="44.36365" lon="5.22932">
        <ele>469</ele>
        <time>2019-05-03T12:31:32Z</time>
      </trkpt>
      <trkpt lat="44.36374" lon="5.22929">
        <ele>468</ele>
        <time>2019-05-03T12:31:34Z</time>
      </trkpt>
      <trkpt lat="44.36394" lon="5.22921">
        <ele>470</ele>
        <time>2019-05-03T12:31:40Z</time>
      </trkpt>
      <trkpt lat="44.36414" lon="5.22911">
        <ele>470</ele>
        <time>2019-05-03T12:31:47Z</time>
      </trkpt>
      <trkpt lat="44.36423" lon="5.22906">
        <ele>467</ele>
        <time>2019-05-03T12:31:51Z</time>
      </trkpt>
      <trkpt lat="44.36432" lon="5.22903">
        <ele>467</ele>
        <time>2019-05-03T12:31:54Z</time>
      </trkpt>
      <trkpt lat="44.36471" lon="5.22901">
        <ele>463</ele>
        <time>2019-05-03T12:32:07Z</time>
      </trkpt>
      <trkpt lat="44.3651" lon="5.22914">
        <ele>461</ele>
        <time>2019-05-03T12:32:14Z</time>
      </trkpt>
      <trkpt lat="44.36534" lon="5.22892">
        <ele>461</ele>
        <time>2019-05-03T12:32:16Z</time>
      </trkpt>
      <trkpt lat="44.36567" lon="5.22863">
        <ele>457</ele>
        <time>2019-05-03T12:32:21Z</time>
      </trkpt>
      <trkpt lat="44.36582" lon="5.22853">
        <ele>453</ele>
        <time>2019-05-03T12:32:23Z</time>
      </trkpt>
      <trkpt lat="44.36607" lon="5.22844">
        <ele>452</ele>
        <time>2019-05-03T12:32:26Z</time>
      </trkpt>
      <trkpt lat="44.36654" lon="5.22821">
        <ele>445</ele>
        <time>2019-05-03T12:32:31Z</time>
      </trkpt>
      <trkpt lat="44.3673" lon="5.22755">
        <ele>438</ele>
        <time>2019-05-03T12:32:40Z</time>
      </trkpt>
      <trkpt lat="44.36791" lon="5.22675">
        <ele>435</ele>
        <time>2019-05-03T12:32:49Z</time>
      </trkpt>
      <trkpt lat="44.36808" lon="5.22642">
        <ele>433</ele>
        <time>2019-05-03T12:32:52Z</time>
      </trkpt>
      <trkpt lat="44.36866" lon="5.22567">
        <ele>425</ele>
        <time>2019-05-03T12:33:01Z</time>
      </trkpt>
      <trkpt lat="44.36884" lon="5.22534">
        <ele>425</ele>
        <time>2019-05-03T12:33:04Z</time>
      </trkpt>
      <trkpt lat="44.36897" lon="5.2251">
        <ele>421</ele>
        <time>2019-05-03T12:33:06Z</time>
      </trkpt>
      <trkpt lat="44.36932" lon="5.22444">
        <ele>418</ele>
        <time>2019-05-03T12:33:12Z</time>
      </trkpt>
      <trkpt lat="44.36939" lon="5.22434">
        <ele>418</ele>
        <time>2019-05-03T12:33:13Z</time>
      </trkpt>
      <trkpt lat="44.3704" lon="5.22379">
        <ele>409</ele>
        <time>2019-05-03T12:33:25Z</time>
      </trkpt>
      <trkpt lat="44.37066" lon="5.22375">
        <ele>404</ele>
        <time>2019-05-03T12:33:28Z</time>
      </trkpt>
      <trkpt lat="44.3708" lon="5.22375">
        <ele>406</ele>
        <time>2019-05-03T12:33:30Z</time>
      </trkpt>
      <trkpt lat="44.37136" lon="5.22382">
        <ele>404</ele>
        <time>2019-05-03T12:33:37Z</time>
      </trkpt>
      <trkpt lat="44.3715" lon="5.22388">
        <ele>403</ele>
        <time>2019-05-03T12:33:39Z</time>
      </trkpt>
      <trkpt lat="44.37157" lon="5.22396">
        <ele>402</ele>
        <time>2019-05-03T12:33:40Z</time>
      </trkpt>
      <trkpt lat="44.37168" lon="5.22411">
        <ele>402</ele>
        <time>2019-05-03T12:33:42Z</time>
      </trkpt>
      <trkpt lat="44.37178" lon="5.22422">
        <ele>402</ele>
        <time>2019-05-03T12:33:44Z</time>
      </trkpt>
      <trkpt lat="44.37188" lon="5.22426">
        <ele>401</ele>
        <time>2019-05-03T12:33:45Z</time>
      </trkpt>
      <trkpt lat="44.37203" lon="5.22424">
        <ele>400</ele>
        <time>2019-05-03T12:33:47Z</time>
      </trkpt>
      <trkpt lat="44.37214" lon="5.22415">
        <ele>399</ele>
        <time>2019-05-03T12:33:49Z</time>
      </trkpt>
      <trkpt lat="44.37217" lon="5.224">
        <ele>397</ele>
        <time>2019-05-03T12:33:51Z</time>
      </trkpt>
      <trkpt lat="44.37208" lon="5.22384">
        <ele>394</ele>
        <time>2019-05-03T12:33:54Z</time>
      </trkpt>
      <trkpt lat="44.37199" lon="5.22378">
        <ele>389</ele>
        <time>2019-05-03T12:33:58Z</time>
      </trkpt>
      <trkpt lat="44.37186" lon="5.22356">
        <ele>373</ele>
        <time>2019-05-03T12:34:39Z</time>
      </trkpt>
      <trkpt lat="44.37192" lon="5.22342">
        <ele>372</ele>
        <time>2019-05-03T12:34:41Z</time>
      </trkpt>
      <trkpt lat="44.3718" lon="5.22338">
        <ele>372</ele>
        <time>2019-05-03T12:34:43Z</time>
      </trkpt>
      <trkpt lat="44.37173" lon="5.22321">
        <ele>371</ele>
        <time>2019-05-03T12:34:45Z</time>
      </trkpt>
      <trkpt lat="44.3718" lon="5.2231">
        <ele>371</ele>
        <time>2019-05-03T12:34:46Z</time>
      </trkpt>
      <trkpt lat="44.37174" lon="5.22297">
        <ele>371</ele>
        <time>2019-05-03T12:34:49Z</time>
      </trkpt>
      <trkpt lat="44.37156" lon="5.2228">
        <ele>369</ele>
        <time>2019-05-03T12:34:55Z</time>
      </trkpt>
      <trkpt lat="44.3715" lon="5.22271">
        <ele>368</ele>
        <time>2019-05-03T12:35:00Z</time>
      </trkpt>
      <trkpt lat="44.37161" lon="5.22262">
        <ele>364</ele>
        <time>2019-05-03T12:35:08Z</time>
      </trkpt>
      <trkpt lat="44.37172" lon="5.22263">
        <ele>362</ele>
        <time>2019-05-03T12:35:11Z</time>
      </trkpt>
      <trkpt lat="44.37183" lon="5.22266">
        <ele>361</ele>
        <time>2019-05-03T12:35:13Z</time>
      </trkpt>
      <trkpt lat="44.37194" lon="5.22273">
        <ele>361</ele>
        <time>2019-05-03T12:35:15Z</time>
      </trkpt>
      <trkpt lat="44.37207" lon="5.22278">
        <ele>362</ele>
        <time>2019-05-03T12:35:17Z</time>
      </trkpt>
      <trkpt lat="44.37354" lon="5.22253">
        <ele>355</ele>
        <time>2019-05-03T12:35:37Z</time>
      </trkpt>
      <trkpt lat="44.3737" lon="5.22254">
        <ele>355</ele>
        <time>2019-05-03T12:35:39Z</time>
      </trkpt>
      <trkpt lat="44.37421" lon="5.2226">
        <ele>352</ele>
        <time>2019-05-03T12:35:46Z</time>
      </trkpt>
      <trkpt lat="44.37446" lon="5.22263">
        <ele>352</ele>
        <time>2019-05-03T12:35:50Z</time>
      </trkpt>
      <trkpt lat="44.37461" lon="5.22263">
        <ele>350</ele>
        <time>2019-05-03T12:35:52Z</time>
      </trkpt>
      <trkpt lat="44.37487" lon="5.22251">
        <ele>349</ele>
        <time>2019-05-03T12:35:56Z</time>
      </trkpt>
      <trkpt lat="44.3751" lon="5.22236">
        <ele>350</ele>
        <time>2019-05-03T12:35:59Z</time>
      </trkpt>
      <trkpt lat="44.3752" lon="5.22229">
        <ele>350</ele>
        <time>2019-05-03T12:36:01Z</time>
      </trkpt>
      <trkpt lat="44.37533" lon="5.22219">
        <ele>350</ele>
        <time>2019-05-03T12:36:03Z</time>
      </trkpt>
      <trkpt lat="44.37555" lon="5.22201">
        <ele>351</ele>
        <time>2019-05-03T12:36:08Z</time>
      </trkpt>
      <trkpt lat="44.37576" lon="5.22184">
        <ele>349</ele>
        <time>2019-05-03T12:36:12Z</time>
      </trkpt>
      <trkpt lat="44.37603" lon="5.22162">
        <ele>350</ele>
        <time>2019-05-03T12:36:16Z</time>
      </trkpt>
      <trkpt lat="44.3763" lon="5.22143">
        <ele>349</ele>
        <time>2019-05-03T12:36:21Z</time>
      </trkpt>
      <trkpt lat="44.37639" lon="5.22138">
        <ele>349</ele>
        <time>2019-05-03T12:36:23Z</time>
      </trkpt>
      <trkpt lat="44.37721" lon="5.22102">
        <ele>346</ele>
        <time>2019-05-03T12:36:36Z</time>
      </trkpt>
      <trkpt lat="44.37833" lon="5.22092">
        <ele>343</ele>
        <time>2019-05-03T12:36:54Z</time>
      </trkpt>
      <trkpt lat="44.37866" lon="5.22097">
        <ele>344</ele>
        <time>2019-05-03T12:37:00Z</time>
      </trkpt>
      <trkpt lat="44.37893" lon="5.22102">
        <ele>343</ele>
        <time>2019-05-03T12:37:03Z</time>
      </trkpt>
      <trkpt lat="44.3791" lon="5.221">
        <ele>342</ele>
        <time>2019-05-03T12:37:05Z</time>
      </trkpt>
      <trkpt lat="44.37962" lon="5.22091">
        <ele>338</ele>
        <time>2019-05-03T12:37:11Z</time>
      </trkpt>
      <trkpt lat="44.37999" lon="5.22103">
        <ele>334</ele>
        <time>2019-05-03T12:37:16Z</time>
      </trkpt>
      <trkpt lat="44.38161" lon="5.22155">
        <ele>329</ele>
        <time>2019-05-03T12:37:38Z</time>
      </trkpt>
      <trkpt lat="44.38176" lon="5.2217">
        <ele>327</ele>
        <time>2019-05-03T12:37:49Z</time>
      </trkpt>
      <trkpt lat="44.3818" lon="5.22143">
        <ele>327</ele>
        <time>2019-05-03T12:37:54Z</time>
      </trkpt>
      <trkpt lat="44.38182" lon="5.22139">
        <ele>327</ele>
        <time>2019-05-03T12:38:30Z</time>
      </trkpt>
      <trkpt lat="44.38191" lon="5.22128">
        <ele>326</ele>
        <time>2019-05-03T12:38:34Z</time>
      </trkpt>
      <trkpt lat="44.38197" lon="5.22115">
        <ele>326</ele>
        <time>2019-05-03T12:38:39Z</time>
      </trkpt>
      <trkpt lat="44.38205" lon="5.22088">
        <ele>326</ele>
        <time>2019-05-03T12:38:45Z</time>
      </trkpt>
      <trkpt lat="44.38218" lon="5.22079">
        <ele>326</ele>
        <time>2019-05-03T12:38:48Z</time>
      </trkpt>
      <trkpt lat="44.38241" lon="5.22078">
        <ele>325</ele>
        <time>2019-05-03T12:38:52Z</time>
      </trkpt>
      <trkpt lat="44.38264" lon="5.22083">
        <ele>326</ele>
        <time>2019-05-03T12:38:57Z</time>
      </trkpt>
      <trkpt lat="44.38286" lon="5.22089">
        <ele>326</ele>
        <time>2019-05-03T12:39:01Z</time>
      </trkpt>
      <trkpt lat="44.3833" lon="5.22108">
        <ele>323</ele>
        <time>2019-05-03T12:39:12Z</time>
      </trkpt>
      <trkpt lat="44.38343" lon="5.22109">
        <ele>326</ele>
        <time>2019-05-03T12:39:21Z</time>
      </trkpt>
      <trkpt lat="44.38353" lon="5.22105">
        <ele>325</ele>
        <time>2019-05-03T12:39:25Z</time>
      </trkpt>
      <trkpt lat="44.3836" lon="5.22096">
        <ele>325</ele>
        <time>2019-05-03T12:39:28Z</time>
      </trkpt>
      <trkpt lat="44.38373" lon="5.22069">
        <ele>325</ele>
        <time>2019-05-03T12:39:32Z</time>
      </trkpt>
      <trkpt lat="44.38382" lon="5.22044">
        <ele>324</ele>
        <time>2019-05-03T12:39:36Z</time>
      </trkpt>
      <trkpt lat="44.38422" lon="5.2187">
        <ele>320</ele>
        <time>2019-05-03T12:40:00Z</time>
      </trkpt>
      <trkpt lat="44.38444" lon="5.21835">
        <ele>320</ele>
        <time>2019-05-03T12:40:06Z</time>
      </trkpt>
      <trkpt lat="44.38454" lon="5.21821">
        <ele>321</ele>
        <time>2019-05-03T12:40:08Z</time>
      </trkpt>
      <trkpt lat="44.38549" lon="5.2172">
        <ele>317</ele>
        <time>2019-05-03T12:40:28Z</time>
      </trkpt>
      <trkpt lat="44.38559" lon="5.2171">
        <ele>317</ele>
        <time>2019-05-03T12:40:31Z</time>
      </trkpt>
      <trkpt lat="44.38585" lon="5.21681">
        <ele>317</ele>
        <time>2019-05-03T12:40:39Z</time>
      </trkpt>
      <trkpt lat="44.38592" lon="5.21669">
        <ele>317</ele>
        <time>2019-05-03T12:40:41Z</time>
      </trkpt>
      <trkpt lat="44.38599" lon="5.21655">
        <ele>319</ele>
        <time>2019-05-03T12:40:45Z</time>
      </trkpt>
      <trkpt lat="44.38607" lon="5.21638">
        <ele>320</ele>
        <time>2019-05-03T12:40:48Z</time>
      </trkpt>
      <trkpt lat="44.38619" lon="5.21604">
        <ele>319</ele>
        <time>2019-05-03T12:40:55Z</time>
      </trkpt>
      <trkpt lat="44.38623" lon="5.2159">
        <ele>320</ele>
        <time>2019-05-03T12:40:58Z</time>
      </trkpt>
      <trkpt lat="44.38625" lon="5.21564">
        <ele>320</ele>
        <time>2019-05-03T12:41:02Z</time>
      </trkpt>
      <trkpt lat="44.38625" lon="5.21551">
        <ele>319</ele>
        <time>2019-05-03T12:41:04Z</time>
      </trkpt>
      <trkpt lat="44.38624" lon="5.21534">
        <ele>320</ele>
        <time>2019-05-03T12:41:07Z</time>
      </trkpt>
      <trkpt lat="44.38621" lon="5.21521">
        <ele>320</ele>
        <time>2019-05-03T12:41:09Z</time>
      </trkpt>
      <trkpt lat="44.38615" lon="5.2149">
        <ele>321</ele>
        <time>2019-05-03T12:41:14Z</time>
      </trkpt>
      <trkpt lat="44.38601" lon="5.21439">
        <ele>321</ele>
        <time>2019-05-03T12:41:22Z</time>
      </trkpt>
      <trkpt lat="44.38591" lon="5.21395">
        <ele>318</ele>
        <time>2019-05-03T12:41:28Z</time>
      </trkpt>
      <trkpt lat="44.38581" lon="5.21355">
        <ele>319</ele>
        <time>2019-05-03T12:41:34Z</time>
      </trkpt>
      <trkpt lat="44.38578" lon="5.21341">
        <ele>318</ele>
        <time>2019-05-03T12:41:36Z</time>
      </trkpt>
      <trkpt lat="44.38569" lon="5.21313">
        <ele>318</ele>
        <time>2019-05-03T12:41:40Z</time>
      </trkpt>
      <trkpt lat="44.38563" lon="5.21293">
        <ele>317</ele>
        <time>2019-05-03T12:41:42Z</time>
      </trkpt>
      <trkpt lat="44.38552" lon="5.21272">
        <ele>317</ele>
        <time>2019-05-03T12:41:46Z</time>
      </trkpt>
      <trkpt lat="44.38537" lon="5.21253">
        <ele>317</ele>
        <time>2019-05-03T12:41:50Z</time>
      </trkpt>
      <trkpt lat="44.38461" lon="5.21186">
        <ele>320</ele>
        <time>2019-05-03T12:42:08Z</time>
      </trkpt>
      <trkpt lat="44.38426" lon="5.21156">
        <ele>319</ele>
        <time>2019-05-03T12:42:16Z</time>
      </trkpt>
      <trkpt lat="44.38368" lon="5.21064">
        <ele>316</ele>
        <time>2019-05-03T12:42:31Z</time>
      </trkpt>
      <trkpt lat="44.38354" lon="5.21042">
        <ele>317</ele>
        <time>2019-05-03T12:42:35Z</time>
      </trkpt>
      <trkpt lat="44.38343" lon="5.21027">
        <ele>316</ele>
        <time>2019-05-03T12:42:38Z</time>
      </trkpt>
      <trkpt lat="44.38337" lon="5.21016">
        <ele>317</ele>
        <time>2019-05-03T12:42:40Z</time>
      </trkpt>
      <trkpt lat="44.38296" lon="5.20927">
        <ele>316</ele>
        <time>2019-05-03T12:42:52Z</time>
      </trkpt>
      <trkpt lat="44.3829" lon="5.20905">
        <ele>315</ele>
        <time>2019-05-03T12:42:54Z</time>
      </trkpt>
      <trkpt lat="44.38285" lon="5.20867">
        <ele>315</ele>
        <time>2019-05-03T12:42:58Z</time>
      </trkpt>
      <trkpt lat="44.38281" lon="5.20826">
        <ele>313</ele>
        <time>2019-05-03T12:43:02Z</time>
      </trkpt>
      <trkpt lat="44.38279" lon="5.20807">
        <ele>314</ele>
        <time>2019-05-03T12:43:04Z</time>
      </trkpt>
      <trkpt lat="44.3826" lon="5.20529">
        <ele>313</ele>
        <time>2019-05-03T12:43:35Z</time>
      </trkpt>
      <trkpt lat="44.38256" lon="5.20424">
        <ele>311</ele>
        <time>2019-05-03T12:43:47Z</time>
      </trkpt>
      <trkpt lat="44.38258" lon="5.20409">
        <ele>309</ele>
        <time>2019-05-03T12:43:49Z</time>
      </trkpt>
      <trkpt lat="44.3826" lon="5.20385">
        <ele>312</ele>
        <time>2019-05-03T12:44:45Z</time>
      </trkpt>
      <trkpt lat="44.3826" lon="5.20352">
        <ele>312</ele>
        <time>2019-05-03T12:44:54Z</time>
      </trkpt>
      <trkpt lat="44.38258" lon="5.20303">
        <ele>313</ele>
        <time>2019-05-03T12:45:03Z</time>
      </trkpt>
      <trkpt lat="44.38257" lon="5.20285">
        <ele>313</ele>
        <time>2019-05-03T12:45:06Z</time>
      </trkpt>
      <trkpt lat="44.38256" lon="5.20268">
        <ele>311</ele>
        <time>2019-05-03T12:45:09Z</time>
      </trkpt>
      <trkpt lat="44.38247" lon="5.20193">
        <ele>308</ele>
        <time>2019-05-03T12:45:21Z</time>
      </trkpt>
      <trkpt lat="44.38244" lon="5.20179">
        <ele>307</ele>
        <time>2019-05-03T12:45:23Z</time>
      </trkpt>
      <trkpt lat="44.38232" lon="5.20153">
        <ele>307</ele>
        <time>2019-05-03T12:45:27Z</time>
      </trkpt>
      <trkpt lat="44.38224" lon="5.2014">
        <ele>308</ele>
        <time>2019-05-03T12:45:30Z</time>
      </trkpt>
      <trkpt lat="44.38209" lon="5.20119">
        <ele>308</ele>
        <time>2019-05-03T12:45:34Z</time>
      </trkpt>
      <trkpt lat="44.38195" lon="5.20096">
        <ele>310</ele>
        <time>2019-05-03T12:45:40Z</time>
      </trkpt>
      <trkpt lat="44.3819" lon="5.20085">
        <ele>310</ele>
        <time>2019-05-03T12:45:43Z</time>
      </trkpt>
      <trkpt lat="44.38183" lon="5.2007">
        <ele>310</ele>
        <time>2019-05-03T12:45:46Z</time>
      </trkpt>
      <trkpt lat="44.38179" lon="5.20059">
        <ele>310</ele>
        <time>2019-05-03T12:45:48Z</time>
      </trkpt>
      <trkpt lat="44.38171" lon="5.20029">
        <ele>309</ele>
        <time>2019-05-03T12:45:53Z</time>
      </trkpt>
      <trkpt lat="44.38156" lon="5.19973">
        <ele>310</ele>
        <time>2019-05-03T12:46:02Z</time>
      </trkpt>
      <trkpt lat="44.38147" lon="5.19949">
        <ele>310</ele>
        <time>2019-05-03T12:46:06Z</time>
      </trkpt>
      <trkpt lat="44.3813" lon="5.19932">
        <ele>310</ele>
        <time>2019-05-03T12:46:11Z</time>
      </trkpt>
      <trkpt lat="44.38112" lon="5.19921">
        <ele>311</ele>
        <time>2019-05-03T12:46:15Z</time>
      </trkpt>
      <trkpt lat="44.381" lon="5.19917">
        <ele>310</ele>
        <time>2019-05-03T12:46:18Z</time>
      </trkpt>
      <trkpt lat="44.3807" lon="5.19914">
        <ele>313</ele>
        <time>2019-05-03T12:46:24Z</time>
      </trkpt>
      <trkpt lat="44.38037" lon="5.19916">
        <ele>314</ele>
        <time>2019-05-03T12:46:30Z</time>
      </trkpt>
      <trkpt lat="44.38025" lon="5.19913">
        <ele>314</ele>
        <time>2019-05-03T12:46:32Z</time>
      </trkpt>
      <trkpt lat="44.38013" lon="5.19908">
        <ele>314</ele>
        <time>2019-05-03T12:46:34Z</time>
      </trkpt>
      <trkpt lat="44.38005" lon="5.19897">
        <ele>314</ele>
        <time>2019-05-03T12:46:36Z</time>
      </trkpt>
      <trkpt lat="44.37999" lon="5.19882">
        <ele>313</ele>
        <time>2019-05-03T12:46:38Z</time>
      </trkpt>
      <trkpt lat="44.37993" lon="5.19853">
        <ele>313</ele>
        <time>2019-05-03T12:46:42Z</time>
      </trkpt>
      <trkpt lat="44.37987" lon="5.19837">
        <ele>314</ele>
        <time>2019-05-03T12:46:44Z</time>
      </trkpt>
      <trkpt lat="44.37981" lon="5.19825">
        <ele>312</ele>
        <time>2019-05-03T12:46:46Z</time>
      </trkpt>
      <trkpt lat="44.37866" lon="5.19651">
        <ele>310</ele>
        <time>2019-05-03T12:47:18Z</time>
      </trkpt>
      <trkpt lat="44.37853" lon="5.19624">
        <ele>308</ele>
        <time>2019-05-03T12:47:22Z</time>
      </trkpt>
      <trkpt lat="44.37843" lon="5.19593">
        <ele>307</ele>
        <time>2019-05-03T12:47:26Z</time>
      </trkpt>
      <trkpt lat="44.37811" lon="5.19403">
        <ele>308</ele>
        <time>2019-05-03T12:47:50Z</time>
      </trkpt>
      <trkpt lat="44.37814" lon="5.19335">
        <ele>308</ele>
        <time>2019-05-03T12:47:58Z</time>
      </trkpt>
      <trkpt lat="44.37821" lon="5.19248">
        <ele>307</ele>
        <time>2019-05-03T12:48:09Z</time>
      </trkpt>
      <trkpt lat="44.37824" lon="5.19232">
        <ele>307</ele>
        <time>2019-05-03T12:48:11Z</time>
      </trkpt>
      <trkpt lat="44.37831" lon="5.19205">
        <ele>307</ele>
        <time>2019-05-03T12:48:16Z</time>
      </trkpt>
      <trkpt lat="44.37835" lon="5.19192">
        <ele>306</ele>
        <time>2019-05-03T12:48:18Z</time>
      </trkpt>
      <trkpt lat="44.37839" lon="5.19176">
        <ele>306</ele>
        <time>2019-05-03T12:48:21Z</time>
      </trkpt>
      <trkpt lat="44.37842" lon="5.19163">
        <ele>305</ele>
        <time>2019-05-03T12:48:24Z</time>
      </trkpt>
      <trkpt lat="44.37842" lon="5.19135">
        <ele>301</ele>
        <time>2019-05-03T12:48:29Z</time>
      </trkpt>
      <trkpt lat="44.3784" lon="5.19111">
        <ele>300</ele>
        <time>2019-05-03T12:48:34Z</time>
      </trkpt>
      <trkpt lat="44.37836" lon="5.1908">
        <ele>300</ele>
        <time>2019-05-03T12:48:40Z</time>
      </trkpt>
      <trkpt lat="44.37865" lon="5.19093">
        <ele>300</ele>
        <time>2019-05-03T12:48:45Z</time>
      </trkpt>
      <trkpt lat="44.37872" lon="5.19092">
        <ele>298</ele>
        <time>2019-05-03T12:48:50Z</time>
      </trkpt>
      <trkpt lat="44.37875" lon="5.19075">
        <ele>298</ele>
        <time>2019-05-03T12:48:51Z</time>
      </trkpt>
      <trkpt lat="44.37883" lon="5.19075">
        <ele>299</ele>
        <time>2019-05-03T12:48:54Z</time>
      </trkpt>
      <trkpt lat="44.37892" lon="5.19074">
        <ele>302</ele>
        <time>2019-05-03T12:48:59Z</time>
      </trkpt>
      <trkpt lat="44.37894" lon="5.19082">
        <ele>302</ele>
        <time>2019-05-03T12:50:08Z</time>
      </trkpt>
      <trkpt lat="44.37909" lon="5.19097">
        <ele>305</ele>
        <time>2019-05-03T12:50:35Z</time>
      </trkpt>
      <trkpt lat="44.37914" lon="5.19112">
        <ele>303</ele>
        <time>2019-05-03T12:50:40Z</time>
      </trkpt>
      <trkpt lat="44.37922" lon="5.19129">
        <ele>303</ele>
        <time>2019-05-03T12:50:44Z</time>
      </trkpt>
      <trkpt lat="44.3793" lon="5.1914">
        <ele>301</ele>
        <time>2019-05-03T12:50:48Z</time>
      </trkpt>
      <trkpt lat="44.37939" lon="5.19144">
        <ele>306</ele>
        <time>2019-05-03T12:50:53Z</time>
      </trkpt>
      <trkpt lat="44.37938" lon="5.19157">
        <ele>298</ele>
        <time>2019-05-03T12:52:17Z</time>
      </trkpt>
      <trkpt lat="44.38005" lon="5.19222">
        <ele>299</ele>
        <time>2019-05-03T12:52:58Z</time>
      </trkpt>
      <trkpt lat="44.38025" lon="5.19254">
        <ele>298</ele>
        <time>2019-05-03T12:53:08Z</time>
      </trkpt>
      <trkpt lat="44.38052" lon="5.19264">
        <ele>300</ele>
        <time>2019-05-03T12:53:17Z</time>
      </trkpt>
      <trkpt lat="44.38064" lon="5.19259">
        <ele>303</ele>
        <time>2019-05-03T12:53:22Z</time>
      </trkpt>
      <trkpt lat="44.38063" lon="5.19247">
        <ele>306</ele>
        <time>2019-05-03T12:53:28Z</time>
      </trkpt>
      <trkpt lat="44.38054" lon="5.19241">
        <ele>305</ele>
        <time>2019-05-03T12:53:45Z</time>
      </trkpt>
      <trkpt lat="44.38045" lon="5.19231">
        <ele>304</ele>
        <time>2019-05-03T12:54:35Z</time>
      </trkpt>
      <trkpt lat="44.38035" lon="5.19223">
        <ele>303</ele>
        <time>2019-05-03T12:55:31Z</time>
      </trkpt>
      <trkpt lat="44.38007" lon="5.19208">
        <ele>303</ele>
        <time>2019-05-03T12:55:40Z</time>
      </trkpt>
      <trkpt lat="44.37958" lon="5.1915">
        <ele>303</ele>
        <time>2019-05-03T12:56:13Z</time>
      </trkpt>
      <trkpt lat="44.37939" lon="5.19144">
        <ele>303</ele>
        <time>2019-05-03T12:56:17Z</time>
      </trkpt>
      <trkpt lat="44.37889" lon="5.19106">
        <ele>299</ele>
        <time>2019-05-03T12:56:32Z</time>
      </trkpt>
      <trkpt lat="44.37872" lon="5.19079">
        <ele>298</ele>
        <time>2019-05-03T12:56:46Z</time>
      </trkpt>
      <trkpt lat="44.37862" lon="5.19078">
        <ele>296</ele>
        <time>2019-05-03T12:56:50Z</time>
      </trkpt>
      <trkpt lat="44.37853" lon="5.19078">
        <ele>297</ele>
        <time>2019-05-03T12:56:54Z</time>
      </trkpt>
      <trkpt lat="44.37843" lon="5.19077">
        <ele>301</ele>
        <time>2019-05-03T12:56:58Z</time>
      </trkpt>
      <trkpt lat="44.37837" lon="5.19051">
        <ele>305</ele>
        <time>2019-05-03T12:57:06Z</time>
      </trkpt>
      <trkpt lat="44.37842" lon="5.19039">
        <ele>302</ele>
        <time>2019-05-03T12:57:10Z</time>
      </trkpt>
      <trkpt lat="44.3784" lon="5.19028">
        <ele>301</ele>
        <time>2019-05-03T12:57:13Z</time>
      </trkpt>
      <trkpt lat="44.37832" lon="5.19014">
        <ele>302</ele>
        <time>2019-05-03T12:57:16Z</time>
      </trkpt>
      <trkpt lat="44.37829" lon="5.19002">
        <ele>303</ele>
        <time>2019-05-03T12:57:18Z</time>
      </trkpt>
      <trkpt lat="44.37828" lon="5.18989">
        <ele>304</ele>
        <time>2019-05-03T12:57:20Z</time>
      </trkpt>
      <trkpt lat="44.37831" lon="5.18974">
        <ele>304</ele>
        <time>2019-05-03T12:57:22Z</time>
      </trkpt>
      <trkpt lat="44.37841" lon="5.18912">
        <ele>301</ele>
        <time>2019-05-03T12:57:35Z</time>
      </trkpt>
      <trkpt lat="44.37838" lon="5.18897">
        <ele>300</ele>
        <time>2019-05-03T12:57:38Z</time>
      </trkpt>
      <trkpt lat="44.37833" lon="5.18885">
        <ele>299</ele>
        <time>2019-05-03T12:57:41Z</time>
      </trkpt>
      <trkpt lat="44.37816" lon="5.18843">
        <ele>301</ele>
        <time>2019-05-03T12:57:50Z</time>
      </trkpt>
      <trkpt lat="44.37787" lon="5.18781">
        <ele>303</ele>
        <time>2019-05-03T12:58:05Z</time>
      </trkpt>
      <trkpt lat="44.3778" lon="5.18762">
        <ele>303</ele>
        <time>2019-05-03T12:58:13Z</time>
      </trkpt>
      <trkpt lat="44.37784" lon="5.18746">
        <ele>301</ele>
        <time>2019-05-03T12:58:16Z</time>
      </trkpt>
      <trkpt lat="44.37805" lon="5.18712">
        <ele>298</ele>
        <time>2019-05-03T12:58:22Z</time>
      </trkpt>
      <trkpt lat="44.37809" lon="5.18699">
        <ele>297</ele>
        <time>2019-05-03T12:58:24Z</time>
      </trkpt>
      <trkpt lat="44.37811" lon="5.18685">
        <ele>296</ele>
        <time>2019-05-03T12:58:28Z</time>
      </trkpt>
      <trkpt lat="44.37808" lon="5.18673">
        <ele>297</ele>
        <time>2019-05-03T12:58:33Z</time>
      </trkpt>
      <trkpt lat="44.37805" lon="5.18657">
        <ele>296</ele>
        <time>2019-05-03T12:58:37Z</time>
      </trkpt>
      <trkpt lat="44.37801" lon="5.18643">
        <ele>296</ele>
        <time>2019-05-03T12:58:40Z</time>
      </trkpt>
      <trkpt lat="44.3778" lon="5.18535">
        <ele>294</ele>
        <time>2019-05-03T12:58:59Z</time>
      </trkpt>
      <trkpt lat="44.37776" lon="5.18518">
        <ele>294</ele>
        <time>2019-05-03T12:59:02Z</time>
      </trkpt>
      <trkpt lat="44.37771" lon="5.18503">
        <ele>294</ele>
        <time>2019-05-03T12:59:05Z</time>
      </trkpt>
      <trkpt lat="44.37769" lon="5.1849">
        <ele>293</ele>
        <time>2019-05-03T12:59:07Z</time>
      </trkpt>
      <trkpt lat="44.37762" lon="5.18457">
        <ele>294</ele>
        <time>2019-05-03T12:59:12Z</time>
      </trkpt>
      <trkpt lat="44.37761" lon="5.18374">
        <ele>294</ele>
        <time>2019-05-03T12:59:26Z</time>
      </trkpt>
      <trkpt lat="44.37761" lon="5.18341">
        <ele>295</ele>
        <time>2019-05-03T12:59:32Z</time>
      </trkpt>
      <trkpt lat="44.37751" lon="5.18308">
        <ele>296</ele>
        <time>2019-05-03T12:59:37Z</time>
      </trkpt>
      <trkpt lat="44.37748" lon="5.18291">
        <ele>297</ele>
        <time>2019-05-03T12:59:41Z</time>
      </trkpt>
      <trkpt lat="44.37767" lon="5.18157">
        <ele>293</ele>
        <time>2019-05-03T13:00:01Z</time>
      </trkpt>
      <trkpt lat="44.37771" lon="5.18084">
        <ele>294</ele>
        <time>2019-05-03T13:00:12Z</time>
      </trkpt>
      <trkpt lat="44.37781" lon="5.18054">
        <ele>295</ele>
        <time>2019-05-03T13:00:16Z</time>
      </trkpt>
      <trkpt lat="44.37785" lon="5.18042">
        <ele>296</ele>
        <time>2019-05-03T13:00:18Z</time>
      </trkpt>
      <trkpt lat="44.37793" lon="5.18025">
        <ele>296</ele>
        <time>2019-05-03T13:00:21Z</time>
      </trkpt>
      <trkpt lat="44.3782" lon="5.17996">
        <ele>296</ele>
        <time>2019-05-03T13:00:28Z</time>
      </trkpt>
      <trkpt lat="44.3785" lon="5.17979">
        <ele>297</ele>
        <time>2019-05-03T13:00:34Z</time>
      </trkpt>
      <trkpt lat="44.37863" lon="5.1796">
        <ele>296</ele>
        <time>2019-05-03T13:00:38Z</time>
      </trkpt>
      <trkpt lat="44.37873" lon="5.17955">
        <ele>296</ele>
        <time>2019-05-03T13:00:42Z</time>
      </trkpt>
      <trkpt lat="44.37886" lon="5.17956">
        <ele>296</ele>
        <time>2019-05-03T13:00:44Z</time>
      </trkpt>
      <trkpt lat="44.37909" lon="5.17961">
        <ele>297</ele>
        <time>2019-05-03T13:00:49Z</time>
      </trkpt>
      <trkpt lat="44.37934" lon="5.1797">
        <ele>296</ele>
        <time>2019-05-03T13:00:54Z</time>
      </trkpt>
      <trkpt lat="44.37943" lon="5.17975">
        <ele>297</ele>
        <time>2019-05-03T13:00:56Z</time>
      </trkpt>
      <trkpt lat="44.37965" lon="5.17994">
        <ele>297</ele>
        <time>2019-05-03T13:01:02Z</time>
      </trkpt>
      <trkpt lat="44.37978" lon="5.17999">
        <ele>297</ele>
        <time>2019-05-03T13:01:05Z</time>
      </trkpt>
      <trkpt lat="44.37989" lon="5.17998">
        <ele>298</ele>
        <time>2019-05-03T13:01:08Z</time>
      </trkpt>
      <trkpt lat="44.37999" lon="5.17992">
        <ele>299</ele>
        <time>2019-05-03T13:01:10Z</time>
      </trkpt>
      <trkpt lat="44.38064" lon="5.17942">
        <ele>296</ele>
        <time>2019-05-03T13:01:29Z</time>
      </trkpt>
      <trkpt lat="44.38075" lon="5.17934">
        <ele>295</ele>
        <time>2019-05-03T13:01:32Z</time>
      </trkpt>
      <trkpt lat="44.38118" lon="5.179">
        <ele>294</ele>
        <time>2019-05-03T13:01:41Z</time>
      </trkpt>
      <trkpt lat="44.38193" lon="5.1777">
        <ele>291</ele>
        <time>2019-05-03T13:01:58Z</time>
      </trkpt>
      <trkpt lat="44.38236" lon="5.17692">
        <ele>297</ele>
        <time>2019-05-03T13:02:15Z</time>
      </trkpt>
      <trkpt lat="44.38243" lon="5.17675">
        <ele>297</ele>
        <time>2019-05-03T13:02:19Z</time>
      </trkpt>
      <trkpt lat="44.38246" lon="5.17662">
        <ele>300</ele>
        <time>2019-05-03T13:02:25Z</time>
      </trkpt>
      <trkpt lat="44.38246" lon="5.17629">
        <ele>300</ele>
        <time>2019-05-03T13:02:31Z</time>
      </trkpt>
      <trkpt lat="44.38244" lon="5.17607">
        <ele>302</ele>
        <time>2019-05-03T13:02:37Z</time>
      </trkpt>
      <trkpt lat="44.38253" lon="5.17592">
        <ele>305</ele>
        <time>2019-05-03T13:02:41Z</time>
      </trkpt>
      <trkpt lat="44.38249" lon="5.17562">
        <ele>307</ele>
        <time>2019-05-03T13:02:48Z</time>
      </trkpt>
      <trkpt lat="44.3826" lon="5.17512">
        <ele>305</ele>
        <time>2019-05-03T13:02:58Z</time>
      </trkpt>
      <trkpt lat="44.38276" lon="5.17478">
        <ele>304</ele>
        <time>2019-05-03T13:03:04Z</time>
      </trkpt>
      <trkpt lat="44.38295" lon="5.17453">
        <ele>303</ele>
        <time>2019-05-03T13:03:08Z</time>
      </trkpt>
      <trkpt lat="44.38297" lon="5.17433">
        <ele>301</ele>
        <time>2019-05-03T13:03:10Z</time>
      </trkpt>
      <trkpt lat="44.38269" lon="5.17409">
        <ele>299</ele>
        <time>2019-05-03T13:03:14Z</time>
      </trkpt>
      <trkpt lat="44.38254" lon="5.17375">
        <ele>298</ele>
        <time>2019-05-03T13:03:21Z</time>
      </trkpt>
      <trkpt lat="44.38236" lon="5.17352">
        <ele>296</ele>
        <time>2019-05-03T13:03:25Z</time>
      </trkpt>
      <trkpt lat="44.3822" lon="5.17336">
        <ele>296</ele>
        <time>2019-05-03T13:03:27Z</time>
      </trkpt>
      <trkpt lat="44.38212" lon="5.17328">
        <ele>295</ele>
        <time>2019-05-03T13:03:28Z</time>
      </trkpt>
      <trkpt lat="44.38171" lon="5.173">
        <ele>294</ele>
        <time>2019-05-03T13:03:34Z</time>
      </trkpt>
      <trkpt lat="44.38147" lon="5.17292">
        <ele>294</ele>
        <time>2019-05-03T13:03:38Z</time>
      </trkpt>
      <trkpt lat="44.38114" lon="5.17291">
        <ele>293</ele>
        <time>2019-05-03T13:03:41Z</time>
      </trkpt>
      <trkpt lat="44.38054" lon="5.17311">
        <ele>294</ele>
        <time>2019-05-03T13:03:51Z</time>
      </trkpt>
      <trkpt lat="44.38041" lon="5.17317">
        <ele>294</ele>
        <time>2019-05-03T13:03:53Z</time>
      </trkpt>
      <trkpt lat="44.37989" lon="5.17336">
        <ele>294</ele>
        <time>2019-05-03T13:04:01Z</time>
      </trkpt>
      <trkpt lat="44.37805" lon="5.17331">
        <ele>286</ele>
        <time>2019-05-03T13:04:32Z</time>
      </trkpt>
      <trkpt lat="44.37732" lon="5.17326">
        <ele>285</ele>
        <time>2019-05-03T13:04:43Z</time>
      </trkpt>
      <trkpt lat="44.37599" lon="5.17422">
        <ele>290</ele>
        <time>2019-05-03T13:05:09Z</time>
      </trkpt>
      <trkpt lat="44.37534" lon="5.17439">
        <ele>290</ele>
        <time>2019-05-03T13:05:22Z</time>
      </trkpt>
      <trkpt lat="44.37465" lon="5.1744">
        <ele>292</ele>
        <time>2019-05-03T13:05:37Z</time>
      </trkpt>
      <trkpt lat="44.37441" lon="5.17433">
        <ele>294</ele>
        <time>2019-05-03T13:05:45Z</time>
      </trkpt>
      <trkpt lat="44.3742" lon="5.17419">
        <ele>294</ele>
        <time>2019-05-03T13:05:51Z</time>
      </trkpt>
      <trkpt lat="44.37398" lon="5.17395">
        <ele>292</ele>
        <time>2019-05-03T13:05:55Z</time>
      </trkpt>
      <trkpt lat="44.37383" lon="5.17327">
        <ele>287</ele>
        <time>2019-05-03T13:06:02Z</time>
      </trkpt>
      <trkpt lat="44.37376" lon="5.17301">
        <ele>288</ele>
        <time>2019-05-03T13:06:04Z</time>
      </trkpt>
      <trkpt lat="44.37373" lon="5.17286">
        <ele>288</ele>
        <time>2019-05-03T13:06:06Z</time>
      </trkpt>
      <trkpt lat="44.37363" lon="5.17064">
        <ele>286</ele>
        <time>2019-05-03T13:06:31Z</time>
      </trkpt>
      <trkpt lat="44.37364" lon="5.17038">
        <ele>287</ele>
        <time>2019-05-03T13:06:39Z</time>
      </trkpt>
      <trkpt lat="44.37366" lon="5.17022">
        <ele>285</ele>
        <time>2019-05-03T13:08:15Z</time>
      </trkpt>
      <trkpt lat="44.37367" lon="5.16981">
        <ele>285</ele>
        <time>2019-05-03T13:08:21Z</time>
      </trkpt>
      <trkpt lat="44.37364" lon="5.16955">
        <ele>285</ele>
        <time>2019-05-03T13:08:25Z</time>
      </trkpt>
      <trkpt lat="44.37361" lon="5.16941">
        <ele>285</ele>
        <time>2019-05-03T13:08:28Z</time>
      </trkpt>
      <trkpt lat="44.37353" lon="5.16897">
        <ele>282</ele>
        <time>2019-05-03T13:08:35Z</time>
      </trkpt>
      <trkpt lat="44.37347" lon="5.16866">
        <ele>282</ele>
        <time>2019-05-03T13:08:39Z</time>
      </trkpt>
      <trkpt lat="44.37331" lon="5.16836">
        <ele>282</ele>
        <time>2019-05-03T13:08:44Z</time>
      </trkpt>
      <trkpt lat="44.37318" lon="5.16815">
        <ele>282</ele>
        <time>2019-05-03T13:08:48Z</time>
      </trkpt>
      <trkpt lat="44.37293" lon="5.16785">
        <ele>283</ele>
        <time>2019-05-03T13:08:55Z</time>
      </trkpt>
      <trkpt lat="44.37274" lon="5.16768">
        <ele>283</ele>
        <time>2019-05-03T13:09:01Z</time>
      </trkpt>
      <trkpt lat="44.37264" lon="5.16752">
        <ele>283</ele>
        <time>2019-05-03T13:09:04Z</time>
      </trkpt>
      <trkpt lat="44.37259" lon="5.16738">
        <ele>282</ele>
        <time>2019-05-03T13:09:07Z</time>
      </trkpt>
      <trkpt lat="44.37239" lon="5.16692">
        <ele>283</ele>
        <time>2019-05-03T13:09:16Z</time>
      </trkpt>
      <trkpt lat="44.3723" lon="5.16666">
        <ele>283</ele>
        <time>2019-05-03T13:09:20Z</time>
      </trkpt>
      <trkpt lat="44.37225" lon="5.16654">
        <ele>284</ele>
        <time>2019-05-03T13:09:23Z</time>
      </trkpt>
      <trkpt lat="44.37226" lon="5.16637">
        <ele>284</ele>
        <time>2019-05-03T13:09:26Z</time>
      </trkpt>
      <trkpt lat="44.3723" lon="5.16625">
        <ele>284</ele>
        <time>2019-05-03T13:09:28Z</time>
      </trkpt>
      <trkpt lat="44.3723" lon="5.16598">
        <ele>283</ele>
        <time>2019-05-03T13:09:32Z</time>
      </trkpt>
      <trkpt lat="44.37229" lon="5.16572">
        <ele>283</ele>
        <time>2019-05-03T13:09:36Z</time>
      </trkpt>
      <trkpt lat="44.37219" lon="5.16539">
        <ele>282</ele>
        <time>2019-05-03T13:09:40Z</time>
      </trkpt>
      <trkpt lat="44.37208" lon="5.16529">
        <ele>282</ele>
        <time>2019-05-03T13:09:42Z</time>
      </trkpt>
      <trkpt lat="44.37191" lon="5.16504">
        <ele>281</ele>
        <time>2019-05-03T13:09:47Z</time>
      </trkpt>
      <trkpt lat="44.37178" lon="5.16494">
        <ele>281</ele>
        <time>2019-05-03T13:09:51Z</time>
      </trkpt>
      <trkpt lat="44.37157" lon="5.1648">
        <ele>283</ele>
        <time>2019-05-03T13:09:58Z</time>
      </trkpt>
      <trkpt lat="44.37073" lon="5.16435">
        <ele>288</ele>
        <time>2019-05-03T13:10:22Z</time>
      </trkpt>
      <trkpt lat="44.3706" lon="5.16421">
        <ele>288</ele>
        <time>2019-05-03T13:10:30Z</time>
      </trkpt>
      <trkpt lat="44.37055" lon="5.16411">
        <ele>289</ele>
        <time>2019-05-03T13:10:35Z</time>
      </trkpt>
      <trkpt lat="44.37043" lon="5.16367">
        <ele>288</ele>
        <time>2019-05-03T13:10:44Z</time>
      </trkpt>
      <trkpt lat="44.37047" lon="5.16286">
        <ele>285</ele>
        <time>2019-05-03T13:10:53Z</time>
      </trkpt>
      <trkpt lat="44.37062" lon="5.16194">
        <ele>284</ele>
        <time>2019-05-03T13:11:04Z</time>
      </trkpt>
      <trkpt lat="44.37072" lon="5.16166">
        <ele>286</ele>
        <time>2019-05-03T13:11:08Z</time>
      </trkpt>
      <trkpt lat="44.37083" lon="5.16133">
        <ele>286</ele>
        <time>2019-05-03T13:11:12Z</time>
      </trkpt>
      <trkpt lat="44.37089" lon="5.16121">
        <ele>286</ele>
        <time>2019-05-03T13:11:15Z</time>
      </trkpt>
      <trkpt lat="44.37103" lon="5.16114">
        <ele>286</ele>
        <time>2019-05-03T13:11:19Z</time>
      </trkpt>
      <trkpt lat="44.37135" lon="5.16109">
        <ele>287</ele>
        <time>2019-05-03T13:11:27Z</time>
      </trkpt>
      <trkpt lat="44.37146" lon="5.16105">
        <ele>287</ele>
        <time>2019-05-03T13:11:30Z</time>
      </trkpt>
      <trkpt lat="44.37155" lon="5.161">
        <ele>285</ele>
        <time>2019-05-03T13:11:32Z</time>
      </trkpt>
      <trkpt lat="44.37169" lon="5.16086">
        <ele>283</ele>
        <time>2019-05-03T13:11:35Z</time>
      </trkpt>
      <trkpt lat="44.37171" lon="5.16069">
        <ele>282</ele>
        <time>2019-05-03T13:11:39Z</time>
      </trkpt>
      <trkpt lat="44.37172" lon="5.16057">
        <ele>281</ele>
        <time>2019-05-03T13:11:40Z</time>
      </trkpt>
      <trkpt lat="44.37173" lon="5.1604">
        <ele>283</ele>
        <time>2019-05-03T13:11:43Z</time>
      </trkpt>
      <trkpt lat="44.37171" lon="5.16006">
        <ele>284</ele>
        <time>2019-05-03T13:11:49Z</time>
      </trkpt>
      <trkpt lat="44.37166" lon="5.15975">
        <ele>283</ele>
        <time>2019-05-03T13:11:54Z</time>
      </trkpt>
      <trkpt lat="44.3716" lon="5.15944">
        <ele>285</ele>
        <time>2019-05-03T13:12:01Z</time>
      </trkpt>
      <trkpt lat="44.37151" lon="5.15916">
        <ele>285</ele>
        <time>2019-05-03T13:12:06Z</time>
      </trkpt>
      <trkpt lat="44.37141" lon="5.15891">
        <ele>281</ele>
        <time>2019-05-03T13:12:10Z</time>
      </trkpt>
      <trkpt lat="44.37115" lon="5.15825">
        <ele>277</ele>
        <time>2019-05-03T13:12:20Z</time>
      </trkpt>
      <trkpt lat="44.37106" lon="5.15793">
        <ele>287</ele>
        <time>2019-05-03T13:12:24Z</time>
      </trkpt>
      <trkpt lat="44.37086" lon="5.1573">
        <ele>288</ele>
        <time>2019-05-03T13:12:32Z</time>
      </trkpt>
      <trkpt lat="44.37075" lon="5.15701">
        <ele>288</ele>
        <time>2019-05-03T13:12:36Z</time>
      </trkpt>
      <trkpt lat="44.37064" lon="5.1567">
        <ele>290</ele>
        <time>2019-05-03T13:12:41Z</time>
      </trkpt>
      <trkpt lat="44.37059" lon="5.15658">
        <ele>290</ele>
        <time>2019-05-03T13:12:43Z</time>
      </trkpt>
      <trkpt lat="44.37055" lon="5.15648">
        <ele>288</ele>
        <time>2019-05-03T13:12:45Z</time>
      </trkpt>
      <trkpt lat="44.37049" lon="5.15634">
        <ele>288</ele>
        <time>2019-05-03T13:12:47Z</time>
      </trkpt>
      <trkpt lat="44.37037" lon="5.15602">
        <ele>289</ele>
        <time>2019-05-03T13:12:52Z</time>
      </trkpt>
      <trkpt lat="44.37034" lon="5.15584">
        <ele>289</ele>
        <time>2019-05-03T13:12:54Z</time>
      </trkpt>
      <trkpt lat="44.37017" lon="5.15436">
        <ele>281</ele>
        <time>2019-05-03T13:13:09Z</time>
      </trkpt>
      <trkpt lat="44.37008" lon="5.15411">
        <ele>279</ele>
        <time>2019-05-03T13:13:13Z</time>
      </trkpt>
      <trkpt lat="44.36994" lon="5.15392">
        <ele>280</ele>
        <time>2019-05-03T13:13:17Z</time>
      </trkpt>
      <trkpt lat="44.36984" lon="5.15386">
        <ele>280</ele>
        <time>2019-05-03T13:13:20Z</time>
      </trkpt>
      <trkpt lat="44.36937" lon="5.15388">
        <ele>279</ele>
        <time>2019-05-03T13:13:27Z</time>
      </trkpt>
      <trkpt lat="44.36924" lon="5.15389">
        <ele>277</ele>
        <time>2019-05-03T13:13:29Z</time>
      </trkpt>
      <trkpt lat="44.36902" lon="5.15391">
        <ele>277</ele>
        <time>2019-05-03T13:13:32Z</time>
      </trkpt>
      <trkpt lat="44.3689" lon="5.15393">
        <ele>275</ele>
        <time>2019-05-03T13:13:34Z</time>
      </trkpt>
      <trkpt lat="44.36877" lon="5.15394">
        <ele>275</ele>
        <time>2019-05-03T13:13:36Z</time>
      </trkpt>
      <trkpt lat="44.36862" lon="5.15394">
        <ele>273</ele>
        <time>2019-05-03T13:13:39Z</time>
      </trkpt>
      <trkpt lat="44.36795" lon="5.15396">
        <ele>271</ele>
        <time>2019-05-03T13:13:49Z</time>
      </trkpt>
      <trkpt lat="44.36781" lon="5.15399">
        <ele>272</ele>
        <time>2019-05-03T13:13:51Z</time>
      </trkpt>
      <trkpt lat="44.36746" lon="5.15431">
        <ele>271</ele>
        <time>2019-05-03T13:13:57Z</time>
      </trkpt>
      <trkpt lat="44.36689" lon="5.15538">
        <ele>270</ele>
        <time>2019-05-03T13:14:13Z</time>
      </trkpt>
      <trkpt lat="44.36647" lon="5.15605">
        <ele>274</ele>
        <time>2019-05-03T13:14:21Z</time>
      </trkpt>
      <trkpt lat="44.36618" lon="5.15622">
        <ele>274</ele>
        <time>2019-05-03T13:14:26Z</time>
      </trkpt>
      <trkpt lat="44.36607" lon="5.15625">
        <ele>273</ele>
        <time>2019-05-03T13:14:30Z</time>
      </trkpt>
      <trkpt lat="44.36598" lon="5.15628">
        <ele>273</ele>
        <time>2019-05-03T13:14:33Z</time>
      </trkpt>
      <trkpt lat="44.36585" lon="5.1563">
        <ele>274</ele>
        <time>2019-05-03T13:14:38Z</time>
      </trkpt>
      <trkpt lat="44.36561" lon="5.15632">
        <ele>280</ele>
        <time>2019-05-03T13:14:50Z</time>
      </trkpt>
      <trkpt lat="44.36552" lon="5.15633">
        <ele>280</ele>
        <time>2019-05-03T13:14:53Z</time>
      </trkpt>
      <trkpt lat="44.36544" lon="5.15633">
        <ele>279</ele>
        <time>2019-05-03T13:14:57Z</time>
      </trkpt>
      <trkpt lat="44.36534" lon="5.15632">
        <ele>279</ele>
        <time>2019-05-03T13:15:01Z</time>
      </trkpt>
      <trkpt lat="44.36516" lon="5.15625">
        <ele>281</ele>
        <time>2019-05-03T13:15:08Z</time>
      </trkpt>
      <trkpt lat="44.36449" lon="5.15607">
        <ele>279</ele>
        <time>2019-05-03T13:15:31Z</time>
      </trkpt>
      <trkpt lat="44.36439" lon="5.15599">
        <ele>278</ele>
        <time>2019-05-03T13:15:33Z</time>
      </trkpt>
      <trkpt lat="44.36409" lon="5.15582">
        <ele>279</ele>
        <time>2019-05-03T13:15:39Z</time>
      </trkpt>
      <trkpt lat="44.36398" lon="5.15574">
        <ele>278</ele>
        <time>2019-05-03T13:15:41Z</time>
      </trkpt>
      <trkpt lat="44.36374" lon="5.15544">
        <ele>277</ele>
        <time>2019-05-03T13:15:47Z</time>
      </trkpt>
      <trkpt lat="44.36368" lon="5.15533">
        <ele>275</ele>
        <time>2019-05-03T13:15:49Z</time>
      </trkpt>
      <trkpt lat="44.36361" lon="5.15525">
        <ele>274</ele>
        <time>2019-05-03T13:15:52Z</time>
      </trkpt>
      <trkpt lat="44.36352" lon="5.1551">
        <ele>274</ele>
        <time>2019-05-03T13:15:54Z</time>
      </trkpt>
      <trkpt lat="44.36331" lon="5.15463">
        <ele>270</ele>
        <time>2019-05-03T13:16:03Z</time>
      </trkpt>
      <trkpt lat="44.3633" lon="5.15443">
        <ele>270</ele>
        <time>2019-05-03T13:16:05Z</time>
      </trkpt>
      <trkpt lat="44.3633" lon="5.15402">
        <ele>268</ele>
        <time>2019-05-03T13:16:09Z</time>
      </trkpt>
      <trkpt lat="44.36328" lon="5.15382">
        <ele>267</ele>
        <time>2019-05-03T13:16:11Z</time>
      </trkpt>
      <trkpt lat="44.36326" lon="5.15367">
        <ele>267</ele>
        <time>2019-05-03T13:16:13Z</time>
      </trkpt>
      <trkpt lat="44.36309" lon="5.15269">
        <ele>268</ele>
        <time>2019-05-03T13:16:26Z</time>
      </trkpt>
      <trkpt lat="44.36297" lon="5.1524">
        <ele>269</ele>
        <time>2019-05-03T13:16:31Z</time>
      </trkpt>
      <trkpt lat="44.3629" lon="5.15228">
        <ele>270</ele>
        <time>2019-05-03T13:16:34Z</time>
      </trkpt>
      <trkpt lat="44.36256" lon="5.15209">
        <ele>273</ele>
        <time>2019-05-03T13:16:47Z</time>
      </trkpt>
      <trkpt lat="44.36223" lon="5.15188">
        <ele>273</ele>
        <time>2019-05-03T13:16:56Z</time>
      </trkpt>
      <trkpt lat="44.36211" lon="5.15183">
        <ele>273</ele>
        <time>2019-05-03T13:17:00Z</time>
      </trkpt>
      <trkpt lat="44.36189" lon="5.1518">
        <ele>275</ele>
        <time>2019-05-03T13:17:06Z</time>
      </trkpt>
      <trkpt lat="44.36152" lon="5.15179">
        <ele>276</ele>
        <time>2019-05-03T13:17:15Z</time>
      </trkpt>
      <trkpt lat="44.36128" lon="5.15178">
        <ele>276</ele>
        <time>2019-05-03T13:17:21Z</time>
      </trkpt>
      <trkpt lat="44.36102" lon="5.15178">
        <ele>278</ele>
        <time>2019-05-03T13:17:27Z</time>
      </trkpt>
      <trkpt lat="44.36087" lon="5.15176">
        <ele>279</ele>
        <time>2019-05-03T13:17:30Z</time>
      </trkpt>
      <trkpt lat="44.36076" lon="5.15172">
        <ele>279</ele>
        <time>2019-05-03T13:17:32Z</time>
      </trkpt>
      <trkpt lat="44.36067" lon="5.15166">
        <ele>279</ele>
        <time>2019-05-03T13:17:34Z</time>
      </trkpt>
      <trkpt lat="44.36023" lon="5.15119">
        <ele>275</ele>
        <time>2019-05-03T13:17:46Z</time>
      </trkpt>
      <trkpt lat="44.35995" lon="5.15097">
        <ele>276</ele>
        <time>2019-05-03T13:17:54Z</time>
      </trkpt>
      <trkpt lat="44.3596" lon="5.15065">
        <ele>276</ele>
        <time>2019-05-03T13:18:05Z</time>
      </trkpt>
      <trkpt lat="44.35951" lon="5.15055">
        <ele>276</ele>
        <time>2019-05-03T13:18:09Z</time>
      </trkpt>
      <trkpt lat="44.3592" lon="5.14995">
        <ele>281</ele>
        <time>2019-05-03T13:18:25Z</time>
      </trkpt>
      <trkpt lat="44.35909" lon="5.1497">
        <ele>281</ele>
        <time>2019-05-03T13:18:31Z</time>
      </trkpt>
      <trkpt lat="44.35904" lon="5.14958">
        <ele>282</ele>
        <time>2019-05-03T13:18:35Z</time>
      </trkpt>
      <trkpt lat="44.35898" lon="5.14894">
        <ele>281</ele>
        <time>2019-05-03T13:18:57Z</time>
      </trkpt>
      <trkpt lat="44.359" lon="5.1487">
        <ele>281</ele>
        <time>2019-05-03T13:18:59Z</time>
      </trkpt>
      <trkpt lat="44.35909" lon="5.14838">
        <ele>280</ele>
        <time>2019-05-03T13:19:02Z</time>
      </trkpt>
      <trkpt lat="44.35925" lon="5.14793">
        <ele>278</ele>
        <time>2019-05-03T13:19:06Z</time>
      </trkpt>
      <trkpt lat="44.35922" lon="5.14765">
        <ele>276</ele>
        <time>2019-05-03T13:19:10Z</time>
      </trkpt>
      <trkpt lat="44.35917" lon="5.14751">
        <ele>276</ele>
        <time>2019-05-03T13:19:12Z</time>
      </trkpt>
      <trkpt lat="44.35891" lon="5.14641">
        <ele>279</ele>
        <time>2019-05-03T13:19:27Z</time>
      </trkpt>
      <trkpt lat="44.359" lon="5.14627">
        <ele>278</ele>
        <time>2019-05-03T13:19:29Z</time>
      </trkpt>
      <trkpt lat="44.35909" lon="5.14605">
        <ele>274</ele>
        <time>2019-05-03T13:19:34Z</time>
      </trkpt>
      <trkpt lat="44.35919" lon="5.14609">
        <ele>273</ele>
        <time>2019-05-03T13:19:40Z</time>
      </trkpt>
      <trkpt lat="44.35928" lon="5.14598">
        <ele>271</ele>
        <time>2019-05-03T13:19:44Z</time>
      </trkpt>
      <trkpt lat="44.35927" lon="5.14584">
        <ele>270</ele>
        <time>2019-05-03T13:19:46Z</time>
      </trkpt>
      <trkpt lat="44.35929" lon="5.14556">
        <ele>271</ele>
        <time>2019-05-03T13:19:50Z</time>
      </trkpt>
      <trkpt lat="44.35929" lon="5.14542">
        <ele>272</ele>
        <time>2019-05-03T13:19:53Z</time>
      </trkpt>
      <trkpt lat="44.35947" lon="5.14531">
        <ele>272</ele>
        <time>2019-05-03T13:20:00Z</time>
      </trkpt>
      <trkpt lat="44.35957" lon="5.14524">
        <ele>268</ele>
        <time>2019-05-03T13:20:04Z</time>
      </trkpt>
      <trkpt lat="44.35963" lon="5.14511">
        <ele>267</ele>
        <time>2019-05-03T13:20:07Z</time>
      </trkpt>
      <trkpt lat="44.3595" lon="5.14477">
        <ele>267</ele>
        <time>2019-05-03T13:20:13Z</time>
      </trkpt>
      <trkpt lat="44.35948" lon="5.14464">
        <ele>267</ele>
        <time>2019-05-03T13:20:15Z</time>
      </trkpt>
      <trkpt lat="44.35946" lon="5.14452">
        <ele>267</ele>
        <time>2019-05-03T13:20:17Z</time>
      </trkpt>
      <trkpt lat="44.35946" lon="5.14437">
        <ele>269</ele>
        <time>2019-05-03T13:20:20Z</time>
      </trkpt>
      <trkpt lat="44.35969" lon="5.14419">
        <ele>264</ele>
        <time>2019-05-03T13:21:20Z</time>
      </trkpt>
      <trkpt lat="44.35972" lon="5.14406">
        <ele>262</ele>
        <time>2019-05-03T13:21:25Z</time>
      </trkpt>
      <trkpt lat="44.3598" lon="5.144">
        <ele>261</ele>
        <time>2019-05-03T13:21:28Z</time>
      </trkpt>
      <trkpt lat="44.3598" lon="5.14409">
        <ele>264</ele>
        <time>2019-05-03T13:22:01Z</time>
      </trkpt>
      <trkpt lat="44.35998" lon="5.14406">
        <ele>265</ele>
        <time>2019-05-03T13:25:23Z</time>
      </trkpt>
      <trkpt lat="44.36008" lon="5.14408">
        <ele>264</ele>
        <time>2019-05-03T13:25:37Z</time>
      </trkpt>
      <trkpt lat="44.36029" lon="5.14409">
        <ele>270</ele>
        <time>2019-05-03T13:25:47Z</time>
      </trkpt>
      <trkpt lat="44.3604" lon="5.14401">
        <ele>274</ele>
        <time>2019-05-03T13:25:51Z</time>
      </trkpt>
      <trkpt lat="44.36044" lon="5.14388">
        <ele>276</ele>
        <time>2019-05-03T13:25:56Z</time>
      </trkpt>
      <trkpt lat="44.36094" lon="5.14353">
        <ele>283</ele>
        <time>2019-05-03T13:26:30Z</time>
      </trkpt>
      <trkpt lat="44.36107" lon="5.14291">
        <ele>284</ele>
        <time>2019-05-03T13:26:53Z</time>
      </trkpt>
      <trkpt lat="44.36153" lon="5.14261">
        <ele>288</ele>
        <time>2019-05-03T13:27:19Z</time>
      </trkpt>
      <trkpt lat="44.36165" lon="5.14183">
        <ele>282</ele>
        <time>2019-05-03T13:28:29Z</time>
      </trkpt>
      <trkpt lat="44.36179" lon="5.14163">
        <ele>283</ele>
        <time>2019-05-03T13:28:40Z</time>
      </trkpt>
      <trkpt lat="44.36151" lon="5.14155">
        <ele>282</ele>
        <time>2019-05-03T13:28:54Z</time>
      </trkpt>
      <trkpt lat="44.3616" lon="5.14148">
        <ele>284</ele>
        <time>2019-05-03T13:29:37Z</time>
      </trkpt>
      <trkpt lat="44.36184" lon="5.14136">
        <ele>287</ele>
        <time>2019-05-03T13:29:46Z</time>
      </trkpt>
      <trkpt lat="44.36173" lon="5.14121">
        <ele>286</ele>
        <time>2019-05-03T13:30:06Z</time>
      </trkpt>
      <trkpt lat="44.36177" lon="5.14107">
        <ele>286</ele>
        <time>2019-05-03T13:30:11Z</time>
      </trkpt>
      <trkpt lat="44.36187" lon="5.14101">
        <ele>287</ele>
        <time>2019-05-03T13:30:15Z</time>
      </trkpt>
      <trkpt lat="44.36208" lon="5.14093">
        <ele>291</ele>
        <time>2019-05-03T13:30:28Z</time>
      </trkpt>
      <trkpt lat="44.36218" lon="5.14094">
        <ele>293</ele>
        <time>2019-05-03T13:30:31Z</time>
      </trkpt>
      <trkpt lat="44.36228" lon="5.14098">
        <ele>295</ele>
        <time>2019-05-03T13:30:42Z</time>
      </trkpt>
      <trkpt lat="44.36238" lon="5.14096">
        <ele>296</ele>
        <time>2019-05-03T13:30:48Z</time>
      </trkpt>
      <trkpt lat="44.36237" lon="5.14092">
        <ele>298</ele>
        <time>2019-05-03T13:34:42Z</time>
      </trkpt>
      <trkpt lat="44.36249" lon="5.14095">
        <ele>300</ele>
        <time>2019-05-03T13:34:55Z</time>
      </trkpt>
      <trkpt lat="44.3625" lon="5.14106">
        <ele>302</ele>
        <time>2019-05-03T13:35:09Z</time>
      </trkpt>
      <trkpt lat="44.36249" lon="5.14099">
        <ele>301</ele>
        <time>2019-05-03T13:36:03Z</time>
      </trkpt>
      <trkpt lat="44.36249" lon="5.14104">
        <ele>301</ele>
        <time>2019-05-03T13:36:42Z</time>
      </trkpt>
      <trkpt lat="44.36259" lon="5.14108">
        <ele>302</ele>
        <time>2019-05-03T13:37:45Z</time>
      </trkpt>
      <trkpt lat="44.36289" lon="5.14122">
        <ele>303</ele>
        <time>2019-05-03T13:37:59Z</time>
      </trkpt>
      <trkpt lat="44.36296" lon="5.14122">
        <ele>302</ele>
        <time>2019-05-03T13:38:01Z</time>
      </trkpt>
      <trkpt lat="44.36294" lon="5.14123">
        <ele>302</ele>
        <time>2019-05-03T13:38:21Z</time>
      </trkpt>
      <trkpt lat="44.36284" lon="5.14127">
        <ele>301</ele>
        <time>2019-05-03T13:38:24Z</time>
      </trkpt>
      <trkpt lat="44.36274" lon="5.14128">
        <ele>301</ele>
        <time>2019-05-03T13:38:27Z</time>
      </trkpt>
      <trkpt lat="44.36262" lon="5.14124">
        <ele>301</ele>
        <time>2019-05-03T13:38:30Z</time>
      </trkpt>
      <trkpt lat="44.3625" lon="5.14119">
        <ele>301</ele>
        <time>2019-05-03T13:38:33Z</time>
      </trkpt>
      <trkpt lat="44.36235" lon="5.1412">
        <ele>301</ele>
        <time>2019-05-03T13:38:38Z</time>
      </trkpt>
      <trkpt lat="44.36182" lon="5.14135">
        <ele>292</ele>
        <time>2019-05-03T13:38:56Z</time>
      </trkpt>
      <trkpt lat="44.36153" lon="5.14136">
        <ele>286</ele>
        <time>2019-05-03T13:39:04Z</time>
      </trkpt>
      <trkpt lat="44.36126" lon="5.1415">
        <ele>285</ele>
        <time>2019-05-03T13:39:17Z</time>
      </trkpt>
      <trkpt lat="44.36111" lon="5.14168">
        <ele>283</ele>
        <time>2019-05-03T13:39:24Z</time>
      </trkpt>
      <trkpt lat="44.3609" lon="5.14158">
        <ele>278</ele>
        <time>2019-05-03T13:39:38Z</time>
      </trkpt>
      <trkpt lat="44.36082" lon="5.14146">
        <ele>279</ele>
        <time>2019-05-03T13:40:07Z</time>
      </trkpt>
      <trkpt lat="44.36056" lon="5.14148">
        <ele>276</ele>
        <time>2019-05-03T13:40:38Z</time>
      </trkpt>
      <trkpt lat="44.36059" lon="5.14077">
        <ele>275</ele>
        <time>2019-05-03T13:41:10Z</time>
      </trkpt>
      <trkpt lat="44.36051" lon="5.14061">
        <ele>276</ele>
        <time>2019-05-03T13:41:20Z</time>
      </trkpt>
      <trkpt lat="44.36062" lon="5.14061">
        <ele>277</ele>
        <time>2019-05-03T13:42:09Z</time>
      </trkpt>
      <trkpt lat="44.36075" lon="5.14073">
        <ele>275</ele>
        <time>2019-05-03T13:43:20Z</time>
      </trkpt>
      <trkpt lat="44.36072" lon="5.14053">
        <ele>274</ele>
        <time>2019-05-03T13:46:05Z</time>
      </trkpt>
    </trkseg>
  </trk>
</gpx>